[[[{"header":{"parameterUnit":"kt","parameterCategory":2,"dx":1,"dy":1,"la1":29.285339999999998,"la2":30.599998999999997,"lo1":-89.70041500000002,"lo2":-87.6738589999976,"nx":112,"ny":82,"refTime":"2022-09-21T12:00:00:Z","depth":0,"parameterNumber":1,"parameterNumberName":"U-component_of_WINDS"},"data":[5.181,5.5373,5.7848,5.5635,5.7002,5.8203,5.5031,5.5128,5.5908,5.5803,5.7297,5.9362,6.1959,6.3226,6.3793,6.3627,6.3797,6.2762,0.0,5.9392,6.0767,6.3357,6.5058,6.6885,6.8744,6.8466,0.0,0.0,6.8585,6.8985,7.0701,7.1064,7.1804,7.2922,7.2948,7.2948,7.2948,7.2183,7.1136,6.9957,6.9292,6.8452,6.7312,6.5734,6.4812,6.4038,6.0674,5.9203,5.8953,5.6878,5.609,5.6366,5.6207,5.5899,5.5899,5.5899,5.5899,5.5899,5.5899,5.5899,5.5899,5.5899,5.5899,5.5899,5.5899,5.5899,5.5899,5.5899,5.5899,5.5899,5.5899,5.5899,5.5899,5.5899,5.5899,5.5899,5.5899,5.5899,5.5899,5.5899,5.5153,5.3056,4.9019,4.7961,4.6609,4.3363,4.39,4.424,4.3771,4.3313,4.2512,4.1637,4.1057,4.0674,4.0674,4.0674,4.0674,4.0674,4.0674,4.0674,4.0674,4.0674,4.0674,4.0674,4.0674,4.0674,4.0674,4.0674,4.0674,4.0674,4.1122,4.1246,4.7692,5.1727,5.4992,5.1886,5.4042,5.5958,5.2712,5.281,5.3469,5.3103,5.4783,5.6589,5.7249,5.9209,6.0774,6.0647,6.1987,6.2378,0.0,5.9493,6.028,6.3843,6.5807,6.7425,6.888,6.8194,0.0,0.0,6.831,0.0,7.0416,7.0575,7.0944,7.1735,7.1761,7.1761,7.1761,7.097,7.0095,6.9314,6.793,6.6962,6.651,6.3693,6.2479,6.2281,5.9289,5.7606,5.7271,5.6419,5.5899,5.5899,5.5899,5.5899,5.5899,5.5899,5.5899,5.5899,5.5899,5.5899,5.5899,5.5899,5.5899,5.5899,5.5899,5.5899,5.5899,5.5899,5.5899,5.5899,5.5899,5.5899,5.5899,5.5899,5.5718,5.5516,5.5516,5.5153,5.4971,5.5334,5.4606,5.2707,4.883,4.7499,4.6,4.3379,4.3396,4.3396,4.223,4.2166,4.1771,4.0659,4.0674,4.0674,4.0674,4.0674,4.0674,4.0674,4.0674,4.0674,4.0674,4.0674,4.0674,4.0674,4.0674,4.0674,4.0674,4.0674,4.0674,4.0674,4.1138,4.0999,4.4709,4.7274,5.0943,5.0304,5.2351,5.4255,5.3274,5.381,5.425,5.3249,5.3786,5.5009,5.6874,5.7121,5.7888,6.0075,6.1609,0.0,0.0,6.176,6.1693,6.4139,6.5516,6.7023,6.905,6.7986,6.7827,0.0,6.8118,6.7906,6.9309,6.9493,6.9493,6.9493,6.944,6.9414,6.9414,6.9414,6.8968,6.8175,6.5785,6.4963,6.5368,6.1598,6.0068,5.9894,5.8469,5.7093,5.5899,5.5899,5.5899,5.5899,5.5899,5.5899,5.5899,5.5899,5.5899,5.5899,5.5899,5.5899,5.5899,5.5899,5.5899,5.5899,5.5899,5.5899,5.5899,5.5899,5.5899,5.5899,5.5899,5.5899,5.5899,5.5899,5.5153,5.4423,5.4423,5.367,5.3117,5.422,5.3486,5.1946,4.8848,4.7373,4.6027,4.3265,4.1637,4.0674,4.0674,4.0674,4.0674,4.0674,4.0674,4.0674,4.0674,4.0674,4.0674,4.0674,4.0674,4.0674,4.0674,4.0674,4.0674,4.0674,4.0674,4.0674,4.0674,4.0674,4.0674,4.0674,4.0674,4.0563,3.9748,4.2868,4.6587,4.8603,5.1317,5.3437,5.3142,5.2663,5.2444,5.2932,5.2005,0.0,0.0,0.0,5.4144,5.55,0.0,6.1639,6.255,6.3413,6.4791,6.667,6.6333,6.6927,0.0,6.8255,6.8039,6.9272,6.8948,6.94,7.0575,7.0654,7.0654,7.0654,6.9862,6.9126,6.8493,6.8493,6.8175,6.7187,6.4988,6.3991,6.4015,6.0196,5.8469,5.8469,5.7093,5.6239,5.5899,5.5899,5.5899,5.5899,5.5899,5.5899,5.5899,5.5899,5.5899,5.5899,5.5899,5.5899,5.5899,5.5899,5.5899,5.5899,5.5899,5.5899,5.5899,5.5899,5.5899,5.5899,5.5899,5.5334,5.4788,5.4788,5.4037,5.3301,5.3301,5.3117,5.2932,5.3301,5.3117,5.1985,4.932,4.714,4.5096,4.3216,4.1637,4.0674,4.0674,4.0674,4.0674,4.0674,4.0674,4.0674,4.0674,4.0674,4.0674,4.0674,4.0674,4.0674,4.0674,4.0674,4.0674,4.0674,4.0674,4.0674,4.0674,4.0674,4.0674,4.0674,4.0674,4.0582,3.8606,4.1634,4.5911,4.8037,5.0826,5.3027,5.3075,5.2541,5.2151,5.2322,0.0,0.0,0.0,0.0,0.0,0.0,5.7391,6.0539,6.1796,6.3769,6.5563,6.683,6.6955,0.0,6.9282,6.8307,6.8317,6.9994,6.9568,6.9883,7.1049,7.1155,7.0757,6.9964,6.9309,6.8493,6.7695,6.7695,6.7,6.5974,6.3799,6.262,6.262,5.8821,5.7428,5.7762,5.6577,5.5899,5.5899,5.5899,5.5899,5.5899,5.5899,5.5899,5.5899,5.5899,5.5899,5.5899,5.5899,5.5899,5.5899,5.5899,5.5899,5.5899,5.5899,5.5899,5.5899,5.5899,5.5899,5.5899,5.5899,5.5153,5.4423,5.4423,5.3403,5.2409,5.2409,5.1937,5.1839,5.2151,5.1985,5.1298,4.9774,4.7744,4.5772,4.4162,4.2577,4.1407,4.0659,4.0674,4.0674,4.0674,4.0674,4.0674,4.0674,4.0674,4.0674,4.0674,4.0674,4.0674,4.0674,4.0674,4.0674,4.0674,4.0674,4.0674,4.0674,4.0674,4.0674,4.0674,4.0674,4.0674,3.9821,4.2153,4.655,4.8448,5.0764,5.266,5.3511,0.0,5.3225,5.2639,0.0,5.1199,5.2322,0.0,0.0,5.4207,5.7435,6.0162,6.1456,6.3322,6.4873,6.5642,6.7193,6.8392,6.9208,6.831,6.8612,7.0917,7.0141,7.0189,7.1418,7.1257,7.0409,6.8615,6.833,6.7534,6.6513,6.6539,6.5647,6.4226,6.204,6.1037,6.0865,5.745,5.6577,5.7606,5.6397,5.5899,5.5899,5.5899,5.5899,5.5899,5.5899,5.5899,5.5899,5.5899,5.5899,5.5899,5.5899,5.5899,5.5899,5.5899,5.5899,5.5899,5.5899,5.5899,5.5899,5.5899,5.5899,5.5899,5.5899,5.5153,5.4423,5.4261,5.2802,5.1499,5.1329,5.0569,5.019,5.1201,5.0528,5.0039,5.0039,4.8603,4.7146,4.5684,4.4095,4.2512,4.1041,4.0659,4.0674,4.0674,4.0674,4.0674,4.0674,4.0674,4.0674,4.0674,4.0674,4.0674,4.0674,4.0674,4.0674,4.0674,4.0674,4.0674,4.0674,4.0674,4.0674,4.0674,4.0674,4.0674,3.9367,3.991,4.2339,4.9254,5.0023,5.0518,0.0,0.0,0.0,5.8691,5.835,5.7935,5.8984,5.7617,5.7107,5.9295,6.1492,6.3063,6.3043,6.3387,6.4067,6.4912,6.6275,6.7432,6.8339,6.8731,6.9571,7.1023,7.1791,7.2716,7.3924,7.2469,7.1371,7.0997,6.8483,6.6188,6.4182,6.4182,6.3127,6.0888,5.9325,5.8645,5.8645,5.6756,5.6058,5.6419,5.608,5.5899,5.5899,5.5899,5.5899,5.5899,5.5899,5.5899,5.5899,5.5899,5.5899,5.5899,5.5899,5.5899,5.5899,5.5899,5.5899,5.5899,5.5899,5.5899,5.5899,5.5899,5.5899,5.5899,5.5899,5.5153,5.4261,5.3299,5.229,5.1298,5.0455,5.0058,5.002,5.019,5.002,5.0039,5.0039,4.8617,4.7608,4.7279,4.4748,4.279,4.2609,4.1454,4.0674,4.0674,4.0674,4.0674,4.0674,4.0674,4.0674,4.0674,4.0674,4.0674,4.0674,4.0674,4.0674,4.0674,4.0674,4.0674,4.0674,4.0674,4.0674,4.0674,4.0674,4.0674,4.0572,4.0503,4.2114,4.7269,4.7732,0.0,0.0,5.3261,5.4318,5.5785,5.6475,5.7425,5.9485,5.7944,5.692,5.8934,6.0687,6.1854,6.2137,6.2991,6.3529,6.3134,6.5001,6.6701,6.8015,6.8652,6.944,7.1049,7.2816,7.3818,7.3818,7.2459,7.0575,6.8348,6.6246,6.4158,6.1769,6.1769,6.0911,5.8997,5.8293,5.7606,5.6914,5.6239,5.5899,5.5899,5.5899,5.5899,5.5899,5.5899,5.5899,5.5899,5.5899,5.5899,5.5899,5.5899,5.5899,5.5899,5.5899,5.5899,5.5899,5.5899,5.5899,5.5899,5.5899,5.5899,5.5899,5.5899,5.5899,5.5899,5.5899,5.4908,5.3425,5.2948,5.175,5.0528,5.002,5.0039,5.0039,5.0039,5.0039,5.0039,5.0039,4.9262,4.8463,4.768,4.6316,4.4765,4.3199,4.223,4.1454,4.0659,4.0674,4.0674,4.0674,4.0674,4.0674,4.0674,4.0674,4.0674,4.0674,4.0674,4.0674,4.0674,4.0674,4.0674,4.0674,4.0674,4.0674,4.0674,4.0674,4.0674,4.1748,4.1781,4.2811,4.54,4.5666,0.0,4.8041,5.0489,5.23,5.2529,5.4495,5.678,5.8994,5.7882,5.716,5.8551,5.9759,6.0321,6.0267,6.2124,6.2864,6.1628,6.3609,6.586,6.7534,6.7669,6.8351,7.0252,7.2295,7.3186,7.2505,7.1218,6.8687,6.4952,6.356,6.1769,5.972,5.972,5.902,5.7606,5.7606,5.6914,5.5899,5.5899,5.5899,5.5899,5.5899,5.5899,5.5899,5.5899,5.5899,5.5899,5.5899,5.5899,5.5899,5.5899,5.5899,5.5899,5.5899,5.5899,5.5899,5.5899,5.5899,5.5899,5.5899,5.5899,5.5899,5.5899,5.5899,5.5899,5.5899,5.4684,5.3343,5.3033,5.1711,5.034,5.002,5.0039,5.0039,5.0039,5.0039,5.0039,5.0039,5.0039,4.9452,4.8272,4.789,4.6702,4.4179,4.3396,4.2412,4.1256,4.0858,4.0674,4.0674,4.0674,4.0674,4.0674,4.0674,4.0674,4.0674,4.0674,4.0674,4.0674,4.0674,4.0674,4.0674,4.0674,4.0674,4.0674,4.0674,4.0674,4.1117,4.1345,4.2216,4.6028,4.553,0.0,5.2054,5.3759,5.4882,5.7277,6.0905,6.3107,6.1764,6.2467,6.3587,6.3817,6.3358,6.1649,5.8276,6.0049,6.153,6.1416,6.2873,6.4349,6.5696,6.5457,6.5671,6.7203,6.8514,6.9637,7.0556,6.7703,6.5817,6.5231,6.2067,5.9697,5.8116,5.8116,5.7428,5.6239,5.6239,5.6058,5.5899,5.5899,5.5899,5.5899,5.5899,5.5899,5.5899,5.5899,5.5899,5.5899,5.5899,5.5899,5.5899,5.5899,5.5899,5.5899,5.5899,5.5899,5.5899,5.5899,5.5899,5.5899,5.5899,5.5899,5.5899,5.5899,5.5899,5.5899,5.5899,5.5878,5.509,5.3323,5.2711,5.2032,5.0359,5.0039,5.0039,5.0039,5.0039,5.0039,5.0039,5.0039,4.9849,4.9641,4.8463,4.7489,4.7105,4.4765,4.2822,4.2822,4.1454,4.0674,4.0674,4.0674,4.0674,4.0674,4.0674,4.0674,4.0674,4.0674,4.0674,4.0674,4.0674,4.0674,4.0674,4.0674,4.0674,4.0674,4.0674,4.0674,4.0414,4.0509,4.0987,4.2568,0.0,0.0,4.6899,5.004,5.267,5.3555,5.6599,5.9253,6.0345,6.0262,6.056,6.1686,6.0711,5.9578,5.8634,5.9133,5.998,6.1757,6.2418,6.3175,6.4349,6.4822,6.5566,6.652,6.7162,6.8276,7.0191,6.7237,6.4596,6.3092,6.0251,5.8138,5.6756,5.6756,5.6598,5.5899,5.5899,5.5899,5.5899,5.5899,5.5899,5.5899,5.5899,5.5899,5.5899,5.5899,5.5899,5.5899,5.5899,5.5899,5.5899,5.5899,5.5899,5.5899,5.5899,5.5899,5.5856,5.5326,5.557,5.5856,5.5305,5.557,5.5899,5.5899,5.5516,5.4992,5.4364,5.422,5.3893,5.2382,5.1701,5.1033,5.019,5.0039,5.0039,5.0039,5.0039,5.0039,5.0039,5.0039,5.0039,5.0039,4.9433,4.8672,4.768,4.6509,4.4959,4.3199,4.2428,4.1653,4.0659,4.0674,4.0674,4.0674,4.0674,4.0674,4.0674,4.0674,4.0674,4.0674,4.0674,4.0674,4.0674,4.0674,4.0674,4.0674,4.0674,4.0674,3.9183,0.0,0.0,0.0,0.0,0.0,4.3446,4.6753,4.9794,5.0175,5.2671,5.527,5.6892,5.7182,5.7352,5.8169,5.7243,5.7081,5.8882,5.8781,5.937,6.1987,6.2181,6.2692,6.3704,6.3848,6.4307,6.5183,6.4892,6.5598,6.7336,6.5573,6.3407,6.1083,5.8975,5.7271,5.608,5.5899,5.5899,5.5899,5.5899,5.5899,5.5899,5.5899,5.5899,5.5899,5.5899,5.5899,5.5899,5.5899,5.5899,5.5899,5.5899,5.5899,5.5899,5.5899,5.5835,5.5591,5.5591,5.5347,5.504,5.4268,5.458,5.4913,5.4191,5.4532,5.5124,5.5111,5.4606,5.3751,5.3108,5.2908,5.2647,5.174,5.0884,5.0209,5.002,4.9641,4.9243,4.8672,4.9053,4.9262,4.9262,4.9641,5.0039,5.0039,5.0039,4.9641,4.8463,4.789,4.6527,4.3984,4.3199,4.223,4.0674,4.0674,4.0674,4.0674,4.0674,4.0674,4.0674,4.0674,4.0674,4.0674,4.0674,4.0674,4.0674,4.0674,4.0674,4.0674,4.0674,4.0674,0.0,0.0,0.0,3.7663,3.7663,3.8742,4.5015,4.664,4.735,4.9433,5.2359,5.385,5.2095,5.4651,5.6574,5.4938,5.4465,5.5334,5.7628,5.9195,6.0589,6.2011,6.2181,6.2716,6.4112,6.1816,6.0761,6.2205,6.098,6.0288,6.0311,6.1544,6.1669,6.0068,5.8645,5.7271,5.608,5.5899,5.5899,5.5899,5.5899,5.5899,5.5899,5.5899,5.5899,5.5899,5.5899,5.5899,5.5899,5.5899,5.5899,5.5899,5.5899,5.5899,5.5899,5.5899,5.5326,5.4532,5.4532,5.3782,5.2994,5.2994,5.2852,5.3014,5.2957,5.2994,5.2935,5.2956,5.2932,5.2888,5.2885,5.2934,5.2596,5.1711,5.1505,5.113,5.0209,4.8863,4.7297,4.5736,4.672,4.768,4.768,4.8863,5.0039,5.0039,5.0039,5.002,4.9849,4.8463,4.6912,4.5348,4.3788,4.223,4.0674,4.0674,4.0674,4.0674,4.0674,4.0674,4.0674,4.0674,4.0674,4.0674,4.0674,4.0674,4.0674,4.0674,4.0674,4.0674,4.0674,4.0674,3.6043,3.6193,3.6485,3.9112,4.0777,4.2172,4.366,4.6249,4.8327,4.8353,5.002,5.1479,5.1563,5.2539,5.3113,5.2496,5.3506,5.5111,5.6713,5.7961,5.9522,6.1987,6.1302,6.0934,6.1474,6.0589,5.9871,5.9348,5.8997,5.8997,6.0068,5.9545,5.9195,5.8645,5.8116,5.7271,5.608,5.5899,5.5899,5.5899,5.5899,5.5899,5.5899,5.5899,5.5899,5.5899,5.5899,5.5271,5.3872,5.3872,5.389,5.3844,5.3931,5.3872,5.3872,5.3996,5.369,5.3322,5.3322,5.3073,5.2822,5.2104,5.242,5.2776,5.2223,5.2442,5.2895,5.2828,5.2476,5.2084,5.2636,5.1848,5.0832,5.0605,5.0397,5.002,4.8672,4.7105,4.593,4.5348,4.5736,4.6123,4.6123,4.6527,4.7297,4.8272,4.8463,4.8863,4.9831,4.9452,4.8081,4.5542,4.4765,4.3396,4.0858,4.0674,4.0674,4.0674,4.0674,4.0674,4.0674,4.0674,4.0674,4.0674,4.0674,4.0674,4.0674,4.0674,4.0674,4.0674,4.0674,4.0674,3.337,3.2851,3.2799,3.6315,3.8589,4.03,4.1812,4.4381,4.6649,4.7489,4.8463,4.9433,5.0774,5.0962,5.1149,5.1505,5.2602,5.422,5.6354,5.7049,5.8512,6.1299,6.0936,6.0262,6.0375,5.9828,5.9038,5.7641,5.741,5.7452,5.8002,5.7939,5.7939,5.7939,5.7939,5.7428,5.6756,5.6239,5.5899,5.5899,5.5899,5.5899,5.5899,5.5516,5.5334,5.5334,5.5033,5.416,5.2888,5.2852,5.2856,5.2833,5.2957,5.2956,5.2956,5.2892,5.2582,5.2417,5.2417,5.2095,5.1804,5.1082,5.1329,5.1804,5.1082,5.1266,5.1878,5.179,5.1395,5.113,5.1652,5.0942,5.0039,5.0039,5.0039,4.9243,4.6509,4.5154,4.4374,4.3788,4.3984,4.4374,4.4374,4.4959,4.5736,4.6702,4.6702,4.7105,4.8081,4.8272,4.7297,4.4765,4.4162,4.2986,4.0858,4.026,4.026,4.0659,4.0674,4.0674,4.0674,4.0674,4.0674,4.0674,4.0674,4.0674,4.0674,4.0674,4.0674,4.0674,4.0674,4.0674,2.8829,2.6402,2.4465,3.0295,3.1746,3.3572,3.968,4.1375,4.256,4.6702,4.7489,4.8063,4.9377,4.9736,5.0075,5.1181,5.1368,5.2442,5.5665,5.6426,5.7498,5.9978,6.0432,6.055,6.0789,5.9253,5.7935,5.7024,5.6314,5.5368,5.4476,5.6442,5.763,5.763,5.7674,5.7696,5.7696,5.6555,5.5899,5.5899,5.5899,5.5899,5.5899,5.4971,5.4423,5.424,5.3053,5.2588,5.2697,5.2662,5.2612,5.267,5.2651,5.2727,5.2727,5.2747,5.2237,5.1464,5.1464,5.071,4.9812,4.9812,4.9812,4.9812,4.9812,4.9812,4.9812,4.9812,4.9812,4.9812,4.9812,4.9793,4.9755,4.9812,4.9793,4.8408,4.3967,4.297,4.2331,4.0749,4.1724,4.2708,4.2708,4.4062,4.5034,4.5034,4.5068,4.5102,4.5296,4.5314,4.4765,4.3216,4.1985,4.1209,4.0659,3.9645,3.9445,4.0475,4.0674,4.0674,4.0674,4.0674,4.0674,4.0674,4.0674,4.0674,4.0674,4.0674,4.0674,4.0674,4.0674,4.0674,2.6139,2.7119,2.8265,3.1491,3.3872,3.5749,3.7463,3.9555,4.2166,4.5331,4.6088,4.6471,4.6074,4.5691,4.6053,4.8102,4.9189,4.9889,5.0743,5.3602,5.5617,5.5492,5.6749,5.7349,5.6669,5.5293,5.4339,5.4122,5.3867,5.3691,5.3457,5.3995,5.4297,5.4297,5.4982,5.5368,5.5368,5.5717,5.5899,5.5899,5.5899,5.5899,5.5899,5.4971,5.369,5.2191,5.047,4.981,4.9753,4.9097,4.8884,4.8839,4.9472,4.9792,4.9811,5.0509,5.0528,5.0283,4.9754,4.9377,4.9037,4.8303,4.8058,4.8058,4.8058,4.8058,4.8284,4.883,4.8566,4.8284,4.883,4.7952,4.6684,4.7254,4.6621,4.5612,4.484,4.3105,4.109,3.956,3.9513,3.9704,3.9704,4.0071,4.0832,4.1952,4.2415,4.334,4.4486,4.5003,4.4765,4.3216,4.1985,4.0796,3.963,3.9245,3.9245,3.9445,4.026,4.0674,4.0674,4.0674,4.0674,4.0674,4.0674,4.0674,4.0674,4.0674,4.0674,4.0674,4.0674,4.0674,2.2528,2.4063,2.6287,2.9272,3.1003,3.2639,3.4698,3.6539,3.8755,4.2166,4.2236,4.2017,4.2738,4.3465,4.4306,4.5616,4.7259,4.8509,4.8865,5.1385,5.309,5.3158,5.4413,5.5064,5.4725,5.3881,5.3154,5.2744,5.2969,5.2927,5.2523,5.2884,5.3096,5.3096,5.3606,5.3882,5.3882,5.4392,5.4668,5.4668,5.5092,5.5316,5.5334,5.422,5.2713,5.0878,4.8935,4.8208,4.8102,4.772,4.7442,4.7506,4.8038,4.8228,4.8284,4.8774,4.8811,4.8792,4.8321,4.8121,4.8074,4.7599,4.7362,4.7406,4.7392,4.7344,4.7442,4.8121,4.7767,4.7612,4.8103,4.6842,4.5655,4.6021,4.4934,4.3591,4.2598,4.1168,3.9738,3.8825,3.862,3.862,3.862,3.862,3.8983,3.9909,4.0244,4.088,4.1829,4.2087,4.1765,4.0998,3.9648,3.8814,3.8441,3.7837,3.8024,3.9029,3.9645,4.006,4.0659,4.0674,4.0674,4.0674,4.0674,4.0674,4.0674,4.0674,4.0459,3.9845,3.9845,3.9845,1.8838,1.9305,2.1371,2.5016,2.6373,2.7616,3.1321,3.2502,3.4107,3.8222,3.7005,3.609,3.9093,4.1459,4.2894,4.3259,4.5287,4.7115,4.7806,4.9159,5.0447,5.1338,5.2543,5.3428,5.3521,5.328,5.2807,5.2018,5.2491,5.2396,5.161,5.2311,5.2714,5.2714,5.2842,5.2927,5.2927,5.3033,5.3096,5.3096,5.3924,5.4199,5.4233,5.2937,5.1384,4.9945,4.8057,4.7274,4.7322,4.7188,4.7074,4.708,4.7289,4.728,4.7377,4.7414,4.7414,4.7414,4.7396,4.724,4.7289,4.708,4.708,4.7148,4.7045,4.7154,4.7101,4.7297,4.7243,4.7083,4.7278,4.6015,4.4898,4.4909,4.3607,4.1753,3.8999,3.8343,3.8343,3.8343,3.8343,3.8155,3.8155,3.8155,3.7951,3.7951,3.8043,3.8104,3.8104,3.7946,3.7795,3.7795,3.655,3.6107,3.7132,3.6392,3.6623,3.8427,3.8843,3.9245,4.0275,4.0275,4.0184,4.0,4.0,3.9802,3.9588,3.9802,3.9374,3.7964,3.8251,3.8295,1.6785,1.7205,1.7618,2.1701,2.4449,2.628,2.6044,2.8585,3.1777,3.4946,3.219,3.0694,3.5264,3.6698,3.7761,3.971,4.2214,4.347,4.2406,4.6285,4.8487,4.6875,4.9854,5.1709,5.105,5.0953,5.0833,5.0683,5.0797,5.0761,5.0613,5.074,5.0825,5.0825,5.1589,5.1993,5.1993,5.2714,5.3096,5.3096,5.3266,5.3242,5.3217,5.0739,4.898,4.7956,4.6912,4.6413,4.6474,4.5597,4.5388,4.5444,4.6146,4.6494,4.6573,4.7248,4.7499,4.7287,4.6612,4.6438,4.6374,4.5652,4.5254,4.5331,4.5271,4.5402,4.5557,4.6209,4.5883,4.5557,4.6209,4.4064,4.1703,4.2288,4.0047,3.7605,3.6968,3.6953,3.6953,3.6953,3.6394,3.5863,3.5863,3.5104,3.4555,3.4555,3.5018,3.5567,3.5567,3.5943,3.6155,3.6155,3.5524,3.5275,3.5488,3.5538,3.6014,3.6406,3.7245,3.7865,3.8067,3.8858,3.854,3.6714,3.6685,3.5883,3.4648,3.6076,3.5287,3.2709,3.4196,3.421,1.5988,1.6372,1.6653,1.8697,2.0872,2.2767,2.4002,2.5646,2.7123,2.7861,2.7765,2.8275,3.1125,3.3483,3.5638,3.7219,3.952,4.0938,4.0798,4.4053,4.6223,4.561,4.7913,4.9784,5.0337,4.9568,4.9139,4.9621,4.915,4.915,4.9662,4.9662,4.9826,5.0337,5.0782,5.1037,5.1037,5.1462,5.1674,5.1674,5.1634,5.1695,5.1674,4.9814,4.8224,4.6843,4.5921,4.5597,4.5559,4.5141,4.497,4.4989,4.5444,4.5482,4.5671,4.5937,4.6127,4.6127,4.569,4.5482,4.5463,4.5008,4.497,4.497,4.497,4.497,4.5008,4.5444,4.5235,4.48,4.4573,4.2699,4.0729,4.0193,3.7935,3.5879,3.6418,3.6598,3.6418,3.5879,3.5518,3.4962,3.4419,3.3874,3.3678,3.3678,3.3948,3.4147,3.4147,3.4327,3.4327,3.4327,3.3902,3.3665,3.3665,3.3918,3.4276,3.4885,3.5281,3.5888,3.6494,3.6466,3.5986,3.4828,3.5406,3.4993,3.3367,3.418,3.32,3.0448,3.1308,3.1222,1.5112,1.5491,1.5724,1.6314,1.7003,1.8287,2.1065,2.198,2.1856,2.1657,2.433,2.7114,2.798,3.138,3.4367,3.5128,3.7219,3.9168,3.9746,4.2517,4.4403,4.4706,4.6484,4.834,4.9926,4.8648,4.7955,4.8654,4.7854,4.7588,4.808,4.8223,4.861,4.9406,4.9652,4.992,5.0089,5.0315,5.0337,5.0358,5.0417,5.0249,5.0081,4.8651,4.7328,4.6005,4.5159,4.497,4.497,4.497,4.497,4.497,4.497,4.497,4.497,4.497,4.497,4.497,4.497,4.497,4.497,4.497,4.497,4.497,4.497,4.497,4.497,4.497,4.497,4.4573,4.2932,4.1542,4.012,3.8398,3.6361,3.5157,3.6059,3.6239,3.6059,3.5338,3.4962,3.46,3.351,3.3132,3.2949,3.2949,3.2949,3.2949,3.2949,3.2825,3.2551,3.2551,3.2326,3.2294,3.2294,3.2398,3.2865,3.3627,3.3641,3.4028,3.5021,3.3975,3.3072,3.2867,3.3647,3.3251,3.1457,3.165,3.0481,2.797,2.8279,2.8324,1.3748,1.3428,1.2672,1.5377,1.4023,1.2644,1.4729,1.5438,1.6583,2.0283,2.3593,2.5997,2.7068,3.039,3.3231,3.3778,3.5803,3.7413,3.694,4.1112,4.3891,4.2689,4.5494,4.8037,4.8964,4.8223,4.7712,4.7988,4.7101,4.6253,4.5425,4.5385,4.5765,4.655,4.7476,4.8434,4.9144,4.9884,5.0337,5.0337,5.0258,4.9851,4.9088,4.6401,4.514,4.497,4.497,4.497,4.497,4.497,4.497,4.497,4.497,4.497,4.497,4.497,4.497,4.497,4.497,4.497,4.497,4.497,4.497,4.497,4.497,4.497,4.497,4.497,4.497,4.4422,4.2082,4.052,3.8799,3.6059,3.4615,3.4056,3.5157,3.5338,3.5338,3.5157,3.4419,3.351,3.2598,3.1682,3.0959,3.0959,3.0959,3.0959,3.0959,3.0998,3.0839,3.0839,3.1359,3.1709,3.1709,3.2177,3.2476,3.267,3.267,3.267,3.267,3.1664,3.0373,2.9069,2.9256,2.7746,2.4917,2.6219,2.5453,2.2442,2.436,2.4366,1.3192,1.2401,1.1366,1.0962,1.0508,1.021,0.997,0.9584,1.1132,1.7493,2.1768,2.4875,2.7026,2.9775,3.2027,3.3044,3.4322,3.5474,3.6418,3.9025,4.1286,4.2171,4.3615,4.5531,4.7913,4.6829,4.6061,4.6232,4.5379,4.4661,4.4237,4.4336,4.4593,4.5603,4.604,4.6326,4.6635,4.7078,4.7121,4.7122,4.7242,4.6709,4.5733,4.4627,4.3962,4.3509,4.3509,4.3509,4.3509,4.3509,4.3717,4.4206,4.4206,4.4439,4.497,4.497,4.497,4.497,4.497,4.497,4.497,4.497,4.497,4.4762,4.3894,4.3665,4.3794,4.3743,4.3798,4.3224,4.146,4.0222,3.8462,3.5006,3.3946,3.3749,3.407,3.4237,3.4056,3.351,3.3146,3.2415,3.1511,3.0959,3.0774,3.0774,3.0774,3.0774,3.0774,3.0774,3.0774,3.0774,3.0982,3.1112,3.1112,3.132,3.145,3.145,3.145,3.145,3.145,3.0077,2.9108,2.8563,2.7606,2.6097,2.4046,2.4602,2.3836,2.1768,2.2499,2.2574,1.2534,1.1004,0.9701,0.6793,0.657,0.687,0.6188,0.587,0.7482,1.4159,2.0,2.4571,2.676,2.9218,3.1327,3.2718,3.328,3.4223,3.6239,3.7801,3.9361,4.0955,4.169,4.3448,4.6373,4.5237,4.4481,4.511,4.427,4.3703,4.3462,4.3424,4.382,4.4653,4.4731,4.4791,4.5051,4.5364,4.5344,4.517,4.5359,4.4947,4.3732,4.369,4.3394,4.2949,4.2616,4.254,4.2559,4.2806,4.3463,4.4035,4.3875,4.4021,4.4498,4.4252,4.414,4.4253,4.4214,4.4249,4.4249,4.4249,4.4363,4.429,4.2963,4.267,4.3007,4.3034,4.2717,4.1975,4.0623,3.9746,3.8285,3.4477,3.3413,3.3216,3.316,3.3146,3.2963,3.2415,3.2245,3.1865,3.0959,3.0774,3.0774,3.0774,3.0774,3.0774,3.0774,3.0774,3.0774,3.0774,3.0774,3.0774,3.0774,3.0774,3.0774,3.0774,3.0774,3.059,3.0035,2.8725,2.7606,2.7244,2.6097,2.4969,2.3478,2.3478,2.2899,2.1759,2.1759,2.1759,1.144,0.8785,0.7052,0.3423,0.2085,0.2114,0.3655,0.4531,0.5994,1.0031,1.8873,2.571,2.6041,2.9133,3.199,3.2789,3.328,3.4223,3.6239,3.7801,3.8671,3.8671,3.9905,4.1825,4.4062,4.3549,4.3576,4.4986,4.427,4.3414,4.2578,4.254,4.2968,4.3722,4.3739,4.4257,4.5129,4.5946,4.6021,4.5187,4.5944,4.5469,4.367,4.3732,4.3741,4.3703,4.2949,4.254,4.2616,4.3414,4.423,4.4856,4.3997,4.3779,4.3671,4.2928,4.2535,4.2548,4.2671,4.2559,4.2559,4.2559,4.312,4.354,4.2036,4.2274,4.296,4.3042,4.1998,4.0623,3.957,3.9267,3.8269,3.4571,3.2963,3.2245,3.2245,3.2245,3.2245,3.2245,3.2245,3.1865,3.0959,3.0774,3.0774,3.0774,3.0774,3.0774,3.0774,3.0774,3.0774,3.0774,3.0774,3.0774,3.0774,3.0774,3.0774,3.0774,3.0774,3.0035,2.8749,2.7034,2.5523,2.4235,2.4046,2.3288,2.1759,2.1759,2.1759,2.1759,2.1759,2.1759,1.295,0.9274,0.6851,0.4553,0.1527,0.0,0.3275,0.5185,0.7508,1.1636,1.6383,2.0519,2.3008,2.5461,2.7385,2.9044,3.0008,3.1592,3.4475,3.4948,3.5506,3.7233,3.7743,3.8404,3.953,3.9362,3.9217,3.894,3.8725,3.857,3.8303,3.9032,3.9592,3.9932,4.0794,4.1371,4.1602,4.1884,4.2197,4.2369,4.2761,4.1434,3.8671,4.0363,4.1051,4.0764,4.1427,4.2009,4.2559,4.2825,4.3072,4.3319,4.3559,4.3761,4.3722,4.3531,4.3101,4.2493,4.2559,4.2511,4.2623,4.2511,4.2762,4.2705,4.1177,4.1369,4.1949,4.198,4.2165,4.1725,3.9408,3.689,3.4755,3.3373,3.2348,3.1521,3.1221,3.1143,3.1143,3.1143,3.1143,3.1143,3.0774,3.0774,3.0774,3.0774,3.0774,3.0774,3.0774,3.0774,3.0774,3.0774,3.0774,3.0774,3.0774,3.0774,3.0774,3.0774,2.985,2.8539,2.7034,2.5534,2.4602,2.4046,2.3098,2.2329,2.1759,2.1759,2.1759,2.1759,2.1759,2.1759,1.5219,1.1516,0.8679,0.4666,0.3074,0.3495,0.7547,0.9094,1.062,1.3736,1.7282,2.0364,2.2325,2.4495,2.6401,2.7108,2.8818,3.0883,3.3474,3.3437,3.3865,3.5725,3.5893,3.6212,3.6681,3.6681,3.6484,3.6171,3.6138,3.6265,3.6808,3.7409,3.8042,3.8357,3.8869,3.9341,3.9821,3.9821,3.9803,3.973,3.9827,3.8905,3.7251,3.8539,3.8996,3.88,3.9178,3.9656,4.0309,4.0604,4.1096,4.1952,4.2606,4.3117,4.3244,4.2854,4.2307,4.1659,4.1634,4.1539,4.1679,4.1615,4.1829,4.1752,4.0414,4.0408,4.1141,4.1091,4.0816,4.0208,3.8869,3.6848,3.4788,3.2748,3.2076,3.158,3.0541,3.0619,3.0774,3.0774,3.0774,3.0774,3.0774,3.0593,3.045,3.045,3.0268,3.0138,3.0138,3.0138,3.0216,3.0424,3.045,3.0541,3.0749,3.0774,3.0392,2.9838,2.7595,2.6274,2.6263,2.4214,2.3288,2.3288,2.2329,2.1759,2.1759,2.1759,2.1577,2.1196,2.0597,2.0406,1.8471,1.5215,1.2493,0.5072,0.7441,1.2392,1.5791,1.5912,1.5555,1.6825,2.1129,2.4143,2.3221,2.5679,2.7679,2.6856,2.9209,3.1466,3.2784,3.2837,3.3345,3.4405,3.4374,3.4558,3.5078,3.5078,3.5214,3.5652,3.5636,3.5985,3.6997,3.7163,3.7493,3.8316,3.7822,3.8095,3.922,3.922,3.8571,3.7139,3.7282,3.7661,3.8134,3.7609,3.7476,3.7333,3.6644,3.6524,3.661,3.7303,3.8694,4.0615,4.1358,4.1818,4.2256,4.1578,4.0734,4.0149,4.0092,4.0073,4.0073,3.9997,4.0598,4.0874,3.9604,3.9818,4.0462,4.0462,3.843,3.67,3.7932,3.8048,3.6882,3.2799,3.2082,3.1989,3.0315,3.0398,3.0564,3.0697,3.0684,3.0671,3.0645,3.0216,2.9866,2.9866,2.9424,2.9086,2.9086,2.9086,2.9294,2.9814,2.9866,2.9893,3.0422,3.0277,2.9724,2.8059,2.4467,2.3329,2.5591,2.3011,2.1532,2.1532,2.1559,2.1568,2.1568,2.1568,2.1196,2.0232,1.8469,1.8093,2.5487,2.0853,1.6978,1.5219,2.0212,2.5355,2.4928,2.385,2.298,2.3208,2.3661,2.4047,2.3334,2.2775,2.3211,2.5196,2.6898,2.8533,3.0172,2.9578,3.0171,3.3015,3.223,3.1907,3.3425,3.2176,3.1255,3.1331,3.0663,3.1004,3.2676,3.3614,3.456,3.5357,3.6138,3.6853,3.6992,3.6992,3.6053,3.4142,3.5092,3.5033,3.3935,3.5823,3.6359,3.6082,3.6876,3.751,3.8214,3.8388,3.8685,3.9198,3.9418,3.9791,4.0636,4.1192,4.1647,4.1838,4.1193,4.0905,4.0886,4.0244,4.0206,4.0337,3.9937,4.0356,4.0987,4.0987,3.8741,3.6435,3.6744,3.4465,3.173,3.1176,3.0518,3.0032,2.9956,3.0055,3.0187,3.0034,2.9712,2.9596,2.9528,2.9372,2.9281,2.9281,2.9177,2.9086,2.9086,2.9086,2.9138,2.9268,2.8377,2.7708,2.7831,2.6942,2.5142,2.2247,2.1158,2.0439,1.9892,1.9272,1.9056,1.9056,2.0087,2.0614,2.0614,2.0614,2.0432,2.0232,1.7709,1.6741,3.2981,2.9536,2.7388,3.014,3.2905,3.4245,3.2226,3.0409,2.8695,2.7068,2.6928,2.6911,2.7018,2.4719,2.4025,2.7434,2.7772,2.8147,2.9805,2.9318,2.9873,3.2794,3.2011,3.1595,3.2477,3.0905,2.9833,2.9373,2.8518,2.864,3.0028,3.0686,3.1487,3.2285,3.3427,3.4074,3.434,3.3727,3.2777,3.1677,3.23,3.2156,3.1387,3.2792,3.3299,3.3015,3.416,3.4626,3.4673,3.5127,3.5761,3.6781,3.6766,3.7765,3.9402,3.9662,3.9874,4.0229,3.9914,3.9362,3.8978,3.9068,3.8786,3.8421,3.8348,3.899,3.9824,3.9749,3.7863,3.5557,3.4471,3.2536,3.0699,2.9889,2.9511,2.9369,2.9212,2.9427,2.9661,2.9502,2.9325,2.9174,2.917,2.897,2.8697,2.8697,2.8463,2.8125,2.7432,2.7419,2.7179,2.6909,2.6228,2.5614,2.5493,2.4809,2.3546,2.1217,2.0335,1.9427,1.8899,1.838,1.8126,1.8126,1.8852,1.9409,1.9418,1.9393,1.8892,1.7724,1.5585,1.4227,3.9912,3.9219,4.0124,4.5654,4.4518,4.1337,3.905,3.6463,3.3719,3.0611,3.0332,3.0903,3.1517,2.8701,2.7363,3.0603,2.9624,2.8653,2.9733,2.9364,2.9828,3.195,3.1898,3.164,3.1622,3.0641,2.9494,2.8639,2.7917,2.7811,2.8477,2.8531,2.9045,2.9867,3.0744,3.1066,3.0817,2.953,2.9234,2.9424,2.9424,2.96,2.9923,2.9923,2.9923,2.9923,3.0773,3.0612,2.9938,3.07,3.2084,3.3751,3.3853,3.5464,3.7614,3.7329,3.7362,3.7471,3.8022,3.7444,3.6662,3.7629,3.7223,3.6368,3.6385,3.706,3.7756,3.7423,3.6126,3.4324,3.2286,3.1697,3.0876,2.8938,2.8951,2.9091,2.8337,2.869,2.9002,2.9065,2.8886,2.8904,2.8904,2.8434,2.7931,2.775,2.7173,2.6361,2.5027,2.4684,2.4347,2.375,2.3623,2.3269,2.2961,2.2816,2.2099,2.1175,1.9461,1.8734,1.907,1.7843,1.7344,1.7391,1.7742,1.7914,1.7728,1.7886,1.6698,1.4378,1.2663,1.1331,4.4081,4.6879,5.0421,5.4216,5.2063,4.876,4.7956,4.3444,3.8925,3.6683,3.3927,3.2128,3.2701,3.1031,2.9817,3.0151,2.9624,2.8427,2.6424,2.5719,2.578,2.7365,2.7654,2.8482,2.9858,2.9985,2.9614,2.8667,2.7864,2.7838,2.8558,2.8504,2.9003,2.9909,3.0056,2.8734,2.5652,2.5178,2.5669,2.7131,2.7131,2.8111,2.9923,2.9923,2.9923,2.9923,3.0099,3.0142,2.9889,3.0031,3.0322,3.0735,3.1389,3.2335,3.3431,3.5135,3.6254,3.7026,3.8126,3.8074,3.7295,3.6747,3.6487,3.6303,3.6269,3.6462,3.6161,3.4352,3.3664,3.3068,3.2131,3.0485,2.8953,2.8626,2.8543,2.8307,2.8247,2.8287,2.8274,2.84,2.8055,2.7723,2.7723,2.7606,2.7172,2.5811,2.5039,2.3986,2.2676,2.1819,2.1327,2.1229,2.0226,1.9416,1.9472,1.8474,1.693,1.5207,1.4819,1.4647,1.4695,1.4529,1.4652,1.4919,1.6126,1.6095,1.4787,1.4904,1.428,1.2573,1.028,0.9,4.8455,5.0476,5.309,5.6568,5.5087,5.2206,5.0433,4.6033,4.1534,3.822,3.5436,3.4119,3.5244,3.3168,3.2031,3.4159,3.187,2.9511,2.8912,2.758,2.6636,2.648,2.7692,2.8967,2.9774,2.9377,2.9075,2.8953,2.698,2.6235,2.689,2.5747,2.5897,2.7556,2.6834,2.5364,2.3186,2.3061,2.3757,2.5116,2.5401,2.6357,2.8017,2.8342,2.8654,2.8654,2.8965,2.8993,2.8572,2.9022,2.924,2.9227,2.9713,3.0299,3.1118,3.2191,3.303,3.3803,3.4561,3.5157,3.5775,3.5341,3.4885,3.4271,3.4271,3.3952,3.3136,3.1258,3.0653,3.0414,2.961,2.8694,2.7943,2.7943,2.793,2.7753,2.7753,2.7195,2.6639,2.6639,2.5895,2.5214,2.5181,2.5193,2.485,2.3631,2.3144,2.2154,2.0487,1.9803,1.9288,1.8621,1.7952,1.7451,1.677,1.5755,1.4735,1.3878,1.3878,1.3534,1.2852,1.3368,1.3598,1.3041,1.3832,1.3426,1.198,1.2219,1.1591,1.0107,0.8981,0.8059,5.1773,0.0,5.5034,5.8665,5.7625,5.5027,0.0,4.7843,4.3194,3.8721,3.6251,3.5327,3.6428,3.4585,3.3794,3.6546,3.3121,3.045,3.1109,2.9117,2.7135,2.5972,2.7532,2.8432,2.8216,2.7476,2.71,2.7262,2.4864,2.3924,2.4469,2.2877,2.2798,2.4772,2.2993,2.1821,2.1413,2.1236,2.1656,2.298,2.3365,2.4211,2.5372,2.5958,2.6223,2.6349,2.6976,2.689,2.655,2.7476,2.7845,2.7845,2.8352,2.8993,2.9724,2.9913,3.0306,3.1021,3.0962,3.2162,3.3707,3.3662,3.311,3.2377,3.2217,3.1577,3.0612,2.9006,2.8599,2.8325,2.7576,2.7385,2.7385,2.7385,2.7385,2.7195,2.6652,2.5907,2.519,2.4555,2.3769,2.3066,2.2955,2.2811,2.2289,2.1402,2.0941,2.014,1.8122,1.7612,1.7103,1.6096,1.6104,1.5762,1.4914,1.3356,1.2668,1.284,1.249,1.1801,1.1122,1.1801,1.1801,1.0772,1.0936,1.0488,0.9435,0.9447,0.8627,0.6989,0.713,0.6574,0.0,5.6583,5.9995,6.3534,6.2054,5.8941,5.6332,5.0668,0.0,3.9655,3.6689,3.4814,3.4169,3.4437,3.4523,3.3571,3.1652,3.0197,2.9537,2.6727,2.4492,2.3586,2.4055,2.4186,2.3429,2.2832,2.2258,2.1664,2.0677,2.0583,2.1236,2.1135,2.1474,2.2381,1.9102,1.805,1.9383,1.8394,1.8654,2.049,2.0521,2.1161,2.2414,2.246,2.2732,2.3023,2.3185,2.3271,2.3699,2.498,2.5527,2.5693,2.7845,2.8653,2.8817,2.9582,2.9952,3.0087,2.9995,3.0627,3.1536,3.1551,3.1973,3.2377,3.1652,3.0803,2.979,2.879,2.8502,2.8325,2.7576,2.7385,2.7385,2.7385,2.7385,2.6816,2.4625,2.4801,2.4732,2.2531,2.214,2.2002,2.2048,2.1361,2.0331,1.9028,1.8213,1.7054,1.5591,1.4735,1.4049,1.4049,1.4049,1.4049,1.3878,1.0756,0.9034,0.9908,0.8334,0.7807,0.8511,0.7807,0.7458,0.7285,0.7295,0.7302,0.7129,0.6052,0.4681,0.3246,0.3496,0.3342,5.4476,5.7782,6.0405,6.3551,6.2995,6.0624,5.6327,5.1065,4.5642,4.0566,3.7161,3.4494,3.3066,3.3115,3.3211,3.2933,3.0742,2.9448,3.0131,2.679,2.3763,2.297,2.2113,2.1107,2.0472,2.0668,2.0695,2.0593,1.9044,1.868,1.9815,1.8554,1.7298,1.6247,1.4987,1.4919,1.6351,1.5879,1.6359,1.7805,1.8059,1.9099,2.0811,2.1257,2.1821,2.2336,2.2336,2.2616,0.0,2.433,2.5069,2.5455,2.7108,2.793,2.793,2.8298,2.868,2.9049,2.9117,2.9648,3.0357,3.0364,3.0714,3.0844,3.0554,2.9151,2.7165,2.5438,2.5087,2.5165,2.4625,2.445,2.445,2.445,2.4075,2.3537,2.2824,2.1903,2.0932,2.0086,1.9279,1.871,1.8665,1.846,1.7748,1.6592,1.6236,1.5554,1.4392,1.4049,1.3878,1.3878,1.3024,1.1807,0.9712,0.8326,0.7638,0.7988,0.7461,0.6772,0.6258,0.6769,0.6596,0.5735,0.5735,0.5735,0.5738,0.3506,0.1584,0.0352,0.1259,0.1263,5.4952,5.8485,6.1207,6.4282,6.3735,6.1207,5.6549,5.0897,4.5342,4.0566,3.6649,3.3661,3.2137,3.1625,3.1539,3.2001,2.9149,2.7246,2.8043,2.4543,2.1312,1.9998,1.9456,1.8622,1.702,1.6999,1.7262,1.7372,1.5936,1.5459,1.6715,1.4935,1.3344,1.2111,1.2111,1.2567,1.3472,1.3479,1.4069,1.5095,1.5182,1.6208,1.8352,1.8644,1.9323,2.0261,2.0583,2.0941,2.151,2.2855,2.3681,2.4278,2.6105,2.6651,2.6702,2.726,2.7753,2.8134,2.8134,2.8694,2.9568,2.9544,2.9634,2.9795,2.9493,2.7653,2.5342,2.3278,2.2832,2.2929,2.2582,2.2522,2.2629,2.2629,2.1824,2.1206,2.0829,1.9549,1.8399,1.7688,1.6826,1.6305,1.6188,1.5971,1.542,1.4228,1.4029,1.3641,1.2201,1.2025,1.1854,1.1684,1.0892,0.9154,0.6473,0.565,0.5329,0.5675,0.5019,0.452,0.3831,0.4346,0.4348,0.331,0.331,0.3135,0.2611,0.0696,-0.087,-0.2262,-0.1235,-0.1411,5.4129,5.8844,6.2954,6.6557,6.4483,6.082,5.7681,5.0304,4.3072,3.9387,3.5236,3.1958,3.1056,3.0074,2.9715,3.012,2.6791,2.3658,2.2385,1.9473,1.6372,1.3759,1.6048,1.6272,1.2493,1.1642,1.1361,1.1361,1.0633,1.0633,1.1367,1.032,1.0018,1.0748,1.0748,1.0748,1.0898,1.0898,1.1355,1.256,1.1355,1.2111,1.454,1.4077,1.4864,1.6287,1.7073,1.7993,1.8737,2.0169,2.0982,2.1658,2.418,2.5169,2.5503,2.6854,2.7385,2.7385,2.7385,2.793,2.8502,2.8502,2.924,2.9596,2.8342,2.6614,2.4838,2.3153,2.2403,2.2053,2.2064,2.2159,2.2044,2.2044,2.1501,2.0451,1.8482,1.8066,1.7621,1.5524,1.5121,1.5121,1.5121,1.4413,1.3349,1.1945,1.1762,1.0825,0.8595,0.8235,0.79,0.7069,0.7024,0.6309,0.4909,0.2665,0.1688,0.2532,0.1035,0.0349,0.122,0.0524,0.0,0.0,0.0,-0.0698,-0.2092,-0.2092,-0.2962,-0.435,-0.435,-0.435,4.9498,5.4295,5.8605,6.4038,6.3361,6.057,5.7501,5.0422,4.3582,4.0378,3.5666,3.1847,3.0274,2.8642,2.6896,2.4962,2.3102,2.0258,1.5386,1.3839,1.153,0.6703,0.7857,0.8414,0.6434,0.6537,0.6817,0.6817,0.6674,0.7278,0.9254,0.5312,0.3644,0.5306,0.5457,0.6065,0.7429,0.7429,0.758,0.8033,0.8344,0.9556,1.1517,1.1967,1.3223,1.515,1.5911,1.6498,1.7117,1.9446,2.0656,2.1136,2.3155,2.3857,2.4092,2.536,2.5969,2.5977,2.7082,2.7563,2.7753,2.7753,2.7943,2.7753,2.5402,2.4157,2.2985,2.1012,1.9819,1.9396,1.9604,1.9327,1.881,1.8179,1.7423,1.6488,1.5678,1.5153,1.4397,1.2808,1.2694,1.2341,1.0594,1.0066,0.9544,0.8667,0.8326,0.8087,0.7547,0.7285,0.7238,0.7074,0.3976,0.149,-0.0163,-0.0329,-0.066,-0.0989,-0.1495,-0.1678,-0.1363,-0.2046,-0.2406,-0.2442,-0.2789,-0.3135,-0.3657,-0.4529,-0.5227,-0.5749,-0.6615,-0.6615,3.9661,4.5702,5.1569,5.8595,5.9275,5.7913,5.6347,4.924,4.2194,3.948,3.487,3.0557,2.8783,2.6311,2.3972,2.2396,1.9328,1.512,0.9661,0.7384,0.4042,-0.1497,0.0154,0.1242,-0.0303,0.1664,0.2726,0.227,0.2725,0.2874,0.2565,-0.0303,-0.1215,0.0303,0.0455,0.1213,0.2729,0.2729,0.3337,0.4554,0.4708,0.6227,0.9108,0.94,1.061,1.2737,1.3935,1.4729,1.5386,1.7475,1.8842,1.9594,2.1382,2.1933,2.2154,2.3496,2.3778,2.3577,2.5463,2.6084,2.6096,2.7018,2.6196,2.4329,2.2622,2.158,2.0716,1.8558,1.7656,1.7186,1.7345,1.6888,1.6229,1.5144,1.426,1.3588,1.3454,1.2442,1.1668,1.1387,1.0882,0.999,0.8465,0.7959,0.7452,0.6267,0.6056,0.5824,0.4909,0.4695,0.4506,0.3861,0.0,-0.2859,-0.3809,-0.3363,-0.3382,-0.3863,-0.3894,-0.3938,-0.3992,-0.4365,-0.4582,-0.4642,-0.5195,-0.5562,-0.6085,-0.7468,-0.8169,-0.8176,-1.0239,-0.9894,2.5288,3.3285,4.1497,4.9859,5.2408,5.3142,5.409,4.7147,3.9839,3.7802,3.3079,2.8629,2.6689,2.304,2.0401,2.0466,1.4635,0.8541,0.4006,-0.0154,-0.4614,-0.9809,-0.7061,-0.5412,-0.7088,-0.3624,-0.1511,-0.2716,-0.1662,-0.287,-0.7242,-0.635,-0.5451,-0.4539,-0.4542,-0.3939,-0.2882,-0.2732,-0.1215,0.167,0.0761,0.2585,0.6685,0.6227,0.7286,0.9264,1.1211,1.2414,1.3011,1.4594,1.5933,1.7152,1.8647,1.9343,1.9426,2.1001,2.0932,2.0625,2.2813,2.3571,2.3911,2.6134,2.3997,2.0289,1.9991,1.9315,1.8213,1.6396,1.5795,1.5702,1.5378,1.4872,1.4212,1.2978,1.1987,1.1435,1.1695,1.0216,0.9357,1.0512,0.9263,0.781,0.7648,0.7003,0.6031,0.4566,0.4158,0.3311,0.1265,0.0789,0.0,-0.1576,-0.4313,-0.6072,-0.6223,-0.6194,-0.6114,-0.627,-0.6237,-0.6317,-0.633,-0.6621,-0.6868,-0.6714,-0.7191,-0.7961,-0.9353,-1.0554,-1.1257,-1.1457,-1.4003,-1.3318,0.728,1.5165,2.4146,3.3861,4.0821,4.6203,4.959,4.542,4.003,3.7824,3.1871,2.6544,2.4629,1.793,1.2127,1.0877,0.5744,-0.0601,-0.749,-0.8787,-1.0803,-1.5768,-1.4094,-1.2592,-1.2768,-1.0821,-0.9776,-1.069,-0.9343,-1.0241,-1.3829,-1.2931,-1.2018,-1.1256,-1.0523,-0.9338,-0.7539,-0.635,-0.4852,-0.3342,-0.2283,-0.076,0.1214,0.1669,0.3185,0.5608,0.7254,0.849,0.978,1.1656,1.2619,1.2977,1.3667,1.4025,1.4405,1.6818,1.7567,1.7696,2.0457,2.1259,2.1435,2.2745,2.1286,1.8887,1.895,1.8799,1.8096,1.5665,1.4616,1.4404,1.434,1.3095,1.2067,1.2943,1.1534,0.9884,0.9487,0.9181,0.8528,0.7134,0.6603,0.5708,0.3267,0.2616,0.2289,0.1144,-0.032,-0.1419,-0.1105,-0.31,-0.4899,-0.5975,-0.6095,-0.653,-0.7908,-0.7482,-0.735,-0.7968,-0.8007,-0.8097,-0.809,-0.8608,-0.8857,-0.8853,-0.9559,-1.0674,-1.2002,-1.2548,-1.3324,-1.4345,-1.485,-1.4679,-0.958,-0.2385,0.6412,1.7734,2.6631,3.4343,4.0945,3.9688,3.6654,3.5006,3.0257,2.5352,2.1543,1.4808,0.8894,0.5879,0.015,-0.6019,-1.2071,-1.4653,-1.7244,-2.0614,-2.0391,-1.9881,-1.9592,-1.7126,-1.5837,-1.6753,-1.4118,-1.4701,-1.9824,-1.9512,-1.834,-1.646,-1.6028,-1.4701,-1.2187,-1.1454,-0.9669,-0.7135,-0.6375,-0.4854,-0.2579,-0.2274,-0.091,0.1213,0.2568,0.3775,0.4852,0.6621,0.7972,0.901,0.9353,0.9951,1.068,1.1996,1.2526,1.2969,1.5399,1.6626,1.6903,1.6266,1.4949,1.3746,1.4822,1.4658,1.414,1.3495,1.2371,1.1386,1.2068,1.0555,0.898,0.9743,0.8498,0.6999,0.6547,0.6155,0.5743,0.5121,0.4233,0.3005,0.1109,0.0475,-0.0158,-0.1109,-0.2662,-0.357,-0.295,-0.6434,-0.8962,-0.9123,-0.8962,-0.9415,-1.0191,-1.0482,-1.0777,-1.1091,-1.1674,-1.2039,-1.2036,-1.248,-1.2625,-1.2618,-1.3242,-1.3955,-1.4915,-1.5752,-1.6258,-1.6568,-1.7765,-1.7418,-2.5193,-1.8894,-1.0784,0.0838,1.0692,2.0208,2.9712,3.1442,3.0737,2.9957,2.6943,2.2862,1.7486,1.1131,0.5451,0.2227,-0.4549,-1.0737,-1.4792,-1.8953,-2.2538,-2.5222,-2.597,-2.6332,-2.6332,-2.2873,-2.1042,-2.1973,-1.8641,-1.9201,-2.5112,-2.5267,-2.4008,-2.1614,-2.147,-2.0168,-1.7396,-1.7102,-1.5038,-1.1036,-1.0886,-0.9224,-0.6361,-0.6508,-0.5602,-0.379,-0.2719,-0.166,-0.0606,0.1103,0.2877,0.432,0.4654,0.5413,0.647,0.6769,0.7132,0.7587,0.988,1.1206,1.1566,0.908,0.79,0.7904,0.9842,0.9856,0.9507,1.0392,0.9189,0.8099,0.9189,0.7597,0.5823,0.6111,0.4942,0.3965,0.3965,0.3052,0.2442,0.3203,0.1983,0.0458,-0.0305,-0.0916,-0.1679,-0.2747,-0.3965,-0.4876,-0.4876,-0.9571,-1.2608,-1.1856,-1.2458,-1.2908,-1.3058,-1.395,-1.4548,-1.4697,-1.5574,-1.6151,-1.6151,-1.6316,-1.649,-1.649,-1.6708,-1.7221,-1.7859,-1.899,-1.9223,-1.8692,-2.0991,-2.0347,-3.8641,-3.3589,-2.6095,-1.7743,-0.6357,0.5676,1.6424,2.0307,2.1706,2.1267,1.8611,1.5263,1.1931,0.2166,-0.5249,-0.4333,-1.1605,-1.845,-2.1303,-2.2352,-2.4533,-2.9564,-3.032,-3.032,-3.032,-2.8611,-2.7505,-2.7441,-2.5928,-2.6462,-3.0047,-2.9273,-2.8614,-2.8321,-2.8321,-2.6882,-2.4136,-2.2806,-2.0224,-1.6358,-1.5612,-1.4141,-1.2084,-1.2817,-1.2065,-1.0125,-0.9044,-0.7364,-0.555,-0.3642,-0.2596,-0.2298,-0.2166,-0.2019,-0.1413,0.0849,0.2095,0.2961,0.5511,0.7041,0.7201,0.389,0.3544,0.4747,0.6899,0.7461,0.7125,0.6096,0.5562,0.5324,0.5605,0.4276,0.3377,0.4604,0.3827,0.2749,0.2749,0.1984,0.0916,-0.0153,-0.0611,-0.1069,-0.1985,-0.2291,-0.2747,-0.3804,-0.5778,-0.7147,-0.7454,-1.2111,-1.5269,-1.512,-1.5269,-1.5557,-1.6281,-1.6438,-1.6882,-1.7481,-1.7629,-1.7776,-1.7776,-1.7834,-1.7863,-1.7863,-1.8108,-1.8817,-2.0134,-2.0302,-2.0871,-2.1921,-2.2027,-2.1724,-4.483,-4.332,-3.9518,-3.0716,-2.086,-1.013,0.1786,0.7407,1.0637,1.282,1.218,1.0422,0.7373,-0.0575,-0.7778,-1.0985,-1.7756,-2.3785,-2.7064,-2.8052,-2.9218,-3.1493,-3.2339,-3.2778,-3.2778,-3.054,-2.9685,-3.0763,-3.0593,-3.1794,-3.4758,-3.4513,-3.3871,-3.3127,-3.2537,-3.1272,-2.9467,-2.7227,-2.4406,-2.1267,-2.0824,-1.9389,-1.6964,-1.7258,-1.6349,-1.4553,-1.3924,-1.3015,-1.1534,-1.0185,-0.9292,-0.8552,-0.8139,-0.7543,-0.6817,-0.5683,-0.4654,-0.3545,-0.1795,-0.1936,-0.3158,-0.4087,-0.2883,-0.0657,0.0663,0.2169,0.3375,0.3984,0.3195,0.2572,0.3789,0.2168,0.0153,0.0305,-0.0153,-0.0916,-0.1985,-0.2134,-0.2284,-0.3656,-0.3958,-0.441,-0.5924,-0.6227,-0.6829,-0.833,-0.9997,-1.1511,-1.2859,-1.4947,-1.6438,-1.6438,-1.6734,-1.7029,-1.6872,-1.7894,-1.8638,-1.9088,-2.0267,-2.0995,-2.0995,-2.1696,-2.1973,-2.1973,-2.2189,-2.26,-2.3509,-2.3838,-2.4529,-2.5313,-2.5547,-2.5652,-4.7779,-4.8643,-4.7611,-3.9779,-3.2479,-2.4127,-1.2344,-0.5944,-0.1425,0.2158,0.3709,0.3547,0.1007,-0.4882,-1.1168,-1.6103,-2.2113,-2.7236,-3.0673,-3.1033,-3.1391,-3.2303,-3.2456,-3.2608,-3.293,-3.0983,-3.0796,-3.3587,-3.4288,-3.5964,-3.9062,-3.9166,-3.8663,-3.7795,-3.6669,-3.5854,-3.5185,-3.2297,-2.9177,-2.6081,-2.6346,-2.4803,-2.1722,-2.2165,-2.1325,-1.9505,-1.937,-1.891,-1.7992,-1.6872,-1.5966,-1.5103,-1.3939,-1.3036,-1.2262,-1.1631,-1.0744,-1.0059,-1.0794,-1.2072,-1.3141,-1.1404,-0.896,-0.639,-0.5304,-0.3548,-0.1301,0.0167,-0.032,-0.1064,0.061,-0.0916,-0.3054,-0.3664,-0.381,-0.4267,-0.5654,-0.5484,-0.5312,-0.6227,-0.6984,-0.7887,-0.9244,-0.969,-1.0436,-1.2241,-1.3308,-1.4963,-1.7786,-1.808,-1.807,-1.8041,-1.8658,-1.8825,-1.8501,-1.9943,-2.1117,-2.1262,-2.3162,-2.4335,-2.4335,-2.5163,-2.573,-2.573,-2.573,-2.5797,-2.6097,-2.6557,-2.701,-2.7599,-2.8055,-2.8422,-4.7945,-4.8453,-4.7242,-4.4443,-4.0005,-3.3968,-2.4859,-1.8881,-1.4638,-1.1833,-0.9528,-0.8151,-0.8786,-1.4323,-1.8838,-1.8589,-2.397,-2.8938,-3.0959,-2.8674,-2.8287,-3.2215,-3.0019,-2.8776,-3.0015,-3.0064,-3.1829,-3.6381,-3.71,-3.891,-4.2485,-4.2535,-4.2465,-4.2465,-4.1524,-4.1403,-4.2203,-3.8977,-3.5262,-3.1085,-3.211,-3.0578,-2.6874,-2.8642,-2.8443,-2.6706,-2.6117,-2.5487,-2.4611,-2.2825,-2.2057,-2.1857,-2.0095,-1.9297,-1.8972,-1.6643,-1.5364,-1.5527,-2.132,-2.1956,-1.9771,-1.6307,-1.3648,-1.144,-0.9788,-0.848,-0.7391,-0.7178,-0.6505,-0.5747,-0.5496,-0.566,-0.581,-0.5943,-0.5911,-0.5901,-0.5943,-0.6681,-0.7258,-0.7258,-0.9395,-1.0934,-1.0314,-1.1205,-1.2383,-1.3703,-1.3889,-1.5846,-2.0715,-2.1366,-2.1366,-2.1407,-2.1343,-2.1693,-2.2371,-2.3606,-2.4594,-2.536,-2.648,-2.7184,-2.7184,-2.7184,-2.7325,-2.7325,-2.7325,-2.734,-2.7369,-2.6968,-2.7152,-2.7937,-2.7585,-2.7855,-4.8119,-4.9622,-4.9386,-4.5143,-4.2811,-3.9772,-3.2685,-2.8198,-2.4727,-2.1527,-1.8505,-1.6167,-1.5246,-1.9887,-2.4352,-2.6028,-3.1744,-3.6471,-3.796,-3.5731,-3.3948,-3.3436,-3.1001,-2.9516,-2.9976,-3.1824,-3.4752,-3.8681,-4.0337,-4.2424,-4.522,-4.5656,-4.5516,-4.4616,-4.4265,-4.4007,-4.3699,-4.1956,-4.0033,-3.7782,-3.7088,-3.5439,-3.301,-3.3194,-3.2575,-3.1152,-3.0581,-3.0167,-2.9739,-2.8047,-2.7293,-2.7112,-2.5293,-2.4599,-2.4454,-2.3572,-2.3061,-2.342,-2.7366,-2.7791,-2.6406,-2.449,-2.1577,-1.8729,-1.8131,-1.5744,-1.3062,-1.2485,-1.115,-0.9585,-0.8184,-0.8206,-0.8358,-0.8042,-0.8636,-0.955,-1.0813,-1.1843,-1.2567,-1.3344,-1.4673,-1.5697,-1.5392,-1.6263,-1.7434,-1.8754,-1.8921,-1.9662,-2.1961,-2.2274,-2.2624,-2.3313,-2.4348,-2.4892,-2.5014,-2.6748,-2.767,-2.7421,-2.958,-3.0727,-3.0723,-3.2086,-3.2562,-3.1905,-3.1954,-3.1968,-3.1833,-3.1602,-3.2181,-3.3613,-3.3352,-3.3345,-4.9696,-5.0896,-5.0908,-4.6627,-4.5046,-4.3274,-3.8221,-3.4829,-3.1969,-2.9073,-2.6085,-2.3837,-2.2704,-2.6123,-3.0,-3.2848,-3.7912,-4.1652,-4.2244,-3.9778,-3.6917,-3.4043,-3.1507,-2.9927,-2.9992,-3.4435,-3.8611,-4.1686,-4.431,-4.6382,-4.7982,-4.8938,-4.902,-4.8206,-4.7624,-4.735,-4.7169,-4.5392,-4.431,-4.3819,-4.1387,-3.9798,-3.8843,-3.7773,-3.6948,-3.6153,-3.5795,-3.5688,-3.5441,-3.4549,-3.3726,-3.2803,-3.0646,-2.9566,-2.8971,-2.8593,-2.9628,-3.1407,-3.2821,-3.2767,-3.1871,-3.0407,-2.7778,-2.4914,-2.4751,-2.2153,-1.9075,-1.8336,-1.6955,-1.5183,-1.3094,-1.2887,-1.2943,-1.2321,-1.2737,-1.3614,-1.512,-1.5846,-1.6411,-1.7158,-1.8618,-1.9495,-1.9328,-2.0827,-2.2009,-2.2106,-2.2094,-2.2788,-2.4447,-2.4607,-2.5,-2.5714,-2.6897,-2.7535,-2.7044,-2.9491,-3.0693,-2.9855,-3.2286,-3.383,-3.371,-3.5436,-3.5907,-3.4926,-3.542,-3.5416,-3.5304,-3.5057,-3.5883,-3.7659,-3.7246,-3.738,-5.1936,-5.1785,-5.1109,-4.8726,-4.6816,-4.4738,-4.1452,-3.8747,-3.6361,-3.4268,-3.2537,-3.1136,-3.0983,-3.318,-3.6092,-3.8589,-4.1925,-4.4004,-4.3226,-3.976,-3.6446,-3.4138,-3.1383,-2.992,-3.0374,-3.7802,-4.3454,-4.571,-4.9046,-5.0868,-5.0854,-5.2335,-5.3132,-5.316,-5.1653,-5.1551,-5.3132,-4.9525,-4.8144,-4.887,-4.5015,-4.3581,-4.4439,-4.2698,-4.1691,-4.1575,-4.2077,-4.2047,-4.1581,-4.2244,-4.131,-3.9073,-3.6301,-3.4247,-3.2777,-3.1794,-3.466,-3.9056,-3.8286,-3.7416,-3.6255,-3.4129,-3.1989,-3.0042,-2.93,-2.7425,-2.5437,-2.4701,-2.371,-2.2357,-2.0446,-1.9983,-1.9757,-1.8473,-1.8257,-1.8315,-1.83,-1.827,-1.8374,-1.8386,-2.0853,-2.275,-2.1961,-2.4295,-2.5686,-2.3698,-2.3517,-2.4776,-2.7997,-2.841,-2.8421,-2.8504,-2.953,-2.9633,-2.8686,-3.2098,-3.3945,-3.2805,-3.4852,-3.609,-3.609,-3.6809,-3.6809,-3.622,-3.7412,-3.7795,-3.7087,-3.7107,-3.7996,-3.9594,-3.9039,-3.9524,-3.8437,-4.3393,-4.5407,-4.135,-4.1859,-4.3042,-4.1587,-3.9658,-3.7723,-3.6096,-3.5345,-3.4965,-3.4792,-3.7548,-4.0525,-4.2839,-4.5135,-4.6833,-4.7111,-4.4271,-4.125,-3.8596,-3.6582,-3.7318,-4.252,-4.7092,-4.993,-5.0567,-5.3252,-5.4625,-5.4154,-5.4995,-5.5272,-5.4749,-5.4023,-5.3861,-5.4368,-5.1806,-5.0721,-5.081,-4.8697,-4.7772,-4.8017,-4.7437,-4.6933,-4.6469,-4.6179,-4.5916,-4.5705,-4.4717,-4.3622,-4.2223,-3.9887,-3.824,-3.7442,-3.8408,-3.9748,-4.1229,-4.1479,-4.1752,-4.1752,-4.0536,-3.8885,-3.7255,-3.6607,-3.4583,-3.2173,-3.0777,-2.9145,-2.7411,-2.5241,-2.4269,-2.3344,-2.1667,-2.196,-2.2366,-2.183,-2.3271,-2.4958,-2.5688,-2.639,-2.7052,-2.752,-2.7391,-2.6903,-2.621,-2.7691,-2.8993,-2.9156,-2.9829,-3.0897,-3.2501,-3.3404,-3.3837,-3.3913,-3.5783,-3.663,-3.579,-3.8684,-4.0266,-4.0301,-4.1593,-4.1956,-4.107,-4.0782,-4.0875,-4.1453,-4.0664,-4.1634,-4.4196,-4.3352,-4.2852,-3.7004,-4.2111,-4.2018,-3.7758,-3.8943,-4.0252,-3.7212,-3.669,-3.6316,-3.4796,-3.4721,-3.5402,-3.7119,-3.9989,-4.2771,-4.5135,-4.7314,-4.8618,-4.8301,-4.6972,-4.5332,-4.3269,-4.3458,-4.5581,-5.0169,-5.2705,-5.4176,-5.444,-5.6125,-5.6893,-5.618,-5.6774,-5.698,-5.6624,-5.5972,-5.5699,-5.5972,-5.3714,-5.2622,-5.2578,-5.0828,-4.9956,-4.996,-4.996,-4.9504,-4.8829,-4.9074,-4.9013,-4.876,-4.8515,-4.734,-4.567,-4.362,-4.179,-4.0706,-4.3723,-4.4801,-4.4732,-4.5444,-4.5713,-4.5758,-4.4739,-4.3447,-4.2048,-4.1144,-3.9377,-3.7417,-3.5674,-3.4511,-3.3145,-3.1085,-3.0189,-2.9379,-2.7814,-2.751,-2.7507,-2.7399,-2.8213,-2.9241,-3.0509,-3.044,-3.037,-3.1407,-3.042,-2.9936,-3.0523,-3.1894,-3.288,-3.3057,-3.3668,-3.4475,-3.5686,-3.6192,-3.6837,-3.7718,-3.958,-4.0478,-4.0018,-4.2244,-4.3677,-4.3935,-4.508,-4.5401,-4.4859,-4.5357,-4.5638,-4.581,-4.5679,-4.6394,-4.7699,-4.6876,-4.684,-3.8494,-4.0831,-3.6589,-3.444,-3.571,-3.6188,0.0,-3.151,-3.3194,-3.1521,-3.2028,-3.3985,-3.7729,-4.0693,-4.3369,-4.577,-4.8321,-4.9522,-4.8127,-4.85,-4.8701,-4.8041,-5.1007,-5.3528,-5.4639,-5.6003,-5.6948,-5.7428,-5.8134,-5.84,-5.7868,-5.8527,-5.904,-5.9282,-5.8025,-5.7616,-5.8134,-5.5637,-5.439,-5.4572,-5.2454,-5.1512,-5.1742,-5.153,-5.1027,-5.0267,-5.1632,-5.1917,-5.1522,-5.2728,-5.1577,-4.901,-4.7339,-4.5242,-4.3808,-4.8351,-4.9578,-4.9027,-4.9545,-4.9348,-4.8863,-4.7767,-4.6797,-4.568,-4.4402,-4.3355,-4.2227,-4.0262,-3.9676,-3.9307,-3.7381,-3.6878,-3.6547,-3.5358,-3.3903,-3.2964,-3.3723,-3.2964,-3.2448,-3.3913,-3.3742,-3.3551,-3.4043,-3.3527,-3.3771,-3.5455,-3.5678,-3.6271,-3.7946,-3.8237,-3.8274,-3.8216,-3.826,-3.9041,-4.0626,-4.3036,-4.4523,-4.4543,-4.5541,-4.639,-4.6929,-4.7624,-4.7929,-4.7825,-5.0112,-5.0832,-4.9775,-5.1039,-5.1439,-5.0812,-5.0349,-5.1255,0.0,0.0,0.0,0.0,0.0,0.0,0.0,-2.9458,-3.0493,-2.9374,-3.1556,-3.402,-3.5364,-3.9083,-4.2583,-4.463,-4.6777,-4.8393,-4.9249,-4.9469,-5.0582,-5.3121,-5.5325,-5.6943,-5.7746,-5.8791,-5.9433,-5.948,-5.9957,-6.0825,-6.2408,-6.2629,-6.3499,-6.5124,-6.3068,-6.1971,-6.2083,-5.9001,-5.7986,-5.9193,-5.6984,-5.6482,-5.7585,-5.6396,-5.5813,-5.5605,-5.5935,-5.5994,-5.5845,-5.5325,-5.3781,-5.1618,-5.0339,-5.0342,-5.133,-5.3222,-5.3281,-5.2303,-5.1983,-5.2231,-5.2646,-5.2459,-5.1806,-5.0975,-5.0665,-5.0299,-4.9305,-4.5614,-4.5106,-4.4903,-4.2183,-4.1448,-4.1067,-3.9409,-3.8828,-3.8345,-3.727,-3.7208,-3.7713,-3.8851,-3.8368,-3.7499,-3.7155,-3.5901,-3.5659,-3.8026,-3.7939,-3.7683,-3.8047,-3.8853,-3.9506,-3.9987,-4.0836,-4.1995,-4.3345,-4.522,-4.6339,-4.6801,-4.8206,-4.9047,-4.9154,-4.9744,-5.009,-5.0063,-5.0936,-5.1571,-5.2165,-5.3457,-5.4486,-5.5139,-5.5014,-5.5271,0.0,0.0,0.0,0.0,0.0,0.0,0.0,0.0,0.0,0.0,0.0,-2.8924,-3.303,0.0,-4.0149,-4.3191,-4.6001,-4.8141,-4.8975,-5.0394,-5.2232,-5.438,-5.6027,-5.7441,-5.8628,-5.948,-6.0035,-6.0035,-6.0715,-6.1497,-6.2526,-6.3597,-6.4259,-6.4547,-6.3702,-6.2838,-6.2,-5.9596,-5.8992,-6.0391,-5.8463,-5.8111,-5.9242,-5.8119,-5.78,-5.8146,-5.7458,-5.7522,-5.8122,-5.7163,-5.5975,-5.4892,-5.6034,-5.7037,-5.7996,-5.9245,-5.8786,-5.7284,-5.707,-5.7005,-5.694,-5.5678,-5.5153,-5.5004,-5.3756,-5.375,-5.327,-5.0063,-4.9236,-4.8931,-4.7058,-4.588,-4.5107,-4.4815,-4.3756,-4.2682,-4.2763,-4.2071,-4.1812,-4.2628,-4.176,-4.0804,-4.0354,-3.9916,-3.977,-4.0296,-4.009,-3.9987,-4.0112,-4.0588,-4.0459,-3.9483,-3.9848,-4.0884,-4.2655,-4.4257,-4.6136,-4.8398,-5.0036,-5.0931,-5.127,-5.1607,-5.2252,-5.3109,-5.398,-5.4891,-5.5671,-5.6981,-5.74,-5.7136,-5.7581,-5.7726,0.0,0.0,0.0,0.0,0.0,0.0,0.0,0.0,0.0,0.0,0.0,0.0,0.0,0.0,0.0,-4.0955,-4.4503,-4.7125,-4.8169,-5.077,-5.2769,-5.3768,-5.5486,-5.7125,-5.8364,-5.9435,-6.0139,-6.0185,-6.0932,-6.1631,-6.2259,-6.3904,-6.4559,-6.4049,-6.3888,-6.3275,-6.2332,-6.0231,-5.9886,-6.1251,-5.9447,0.0,-6.0136,-5.9032,-5.9065,-5.9863,-5.8534,-5.8748,-5.9919,-5.889,-5.8251,-5.8213,-6.1636,-6.3278,-6.3782,-6.5066,-6.4193,-6.2383,-6.2147,-6.1644,-6.0829,-5.8568,-5.8359,-5.8641,-5.6836,-5.6824,0.0,-5.4642,-5.3531,-5.2861,-5.1701,-5.0066,-4.8913,-4.9658,-4.7939,-4.6515,-4.7735,-4.6427,-4.5286,-4.596,-4.5013,-4.3819,-4.3058,-4.3867,-4.3935,-4.1732,-4.179,-4.1904,-4.1441,-4.1979,-4.159,-3.9641,-3.9573,-4.0662,-4.3016,-4.3655,-4.5934,-5.0501,-5.1108,-5.1678,-5.2455,-5.2553,-5.3455,-5.5163,-5.6307,-5.7509,-5.9032,-5.9709,-5.9599,-5.8602,-5.7736,-5.7609,0.0,0.0,0.0,0.0,0.0,0.0,0.0,0.0,0.0,0.0,0.0,0.0,0.0,0.0,0.0,0.0,-4.0225,-4.3318,-4.7638,-4.9469,-5.0923,-5.2507,-5.5115,-5.7017,-5.7626,-5.9144,-6.0244,-6.0715,-6.1165,-6.257,-6.5273,-6.5612,0.0,0.0,0.0,-6.6397,-6.7406,-6.3981,-6.2883,-6.4033,-6.2052,-6.1754,-6.308,-6.1663,-6.1504,-6.2306,-6.1347,-6.1504,-6.2326,-6.1002,-6.0494,-6.0784,-6.4424,-6.6751,-6.817,-6.9031,-6.7879,-6.574,-6.4732,0.0,0.0,-6.2638,-6.2691,-6.2862,-6.3177,-6.3357,-6.3026,-6.0553,-5.9082,-5.7861,-5.6044,-5.403,-5.2286,-5.1608,-5.0748,-4.9981,-4.9316,-4.8938,-4.8775,-4.891,-4.8312,-4.7041,-4.4824,-4.6024,-4.5733,-4.1246,-4.2581,-4.2637,-3.9021,-4.125,-4.3463,-4.4397,-4.4949,0.0,-4.9623,-4.7175,-4.7964,-5.406,-5.1194,-4.9832,-5.1105,-5.143,-5.2381,-5.3825,-5.4016,-5.636,-6.1075,-5.9958,-5.9895,-6.0654,-5.3996,-5.2051,0.0,0.0,0.0,0.0,0.0,0.0,0.0,0.0,0.0,0.0,0.0,0.0,0.0,0.0,0.0,0.0,-3.8431,-4.2231,-4.42,-4.5308,-4.7162,-5.0177,-5.3223,-5.5638,-5.7079,-5.803,-5.8949,-5.9833,-6.1105,-6.2412,-6.4009,-6.5866,-6.7055,-6.7424,-6.675,-6.6026,-6.5307,-6.3401,-6.2686,-6.3187,-6.23,-6.2015,-6.2318,-6.1982,-6.2339,-6.3147,-6.2532,-6.2948,-6.3979,-6.3027,-6.2754,-6.3205,0.0,0.0,0.0,0.0,-7.0844,-6.9297,-6.7792,-6.7029,-6.6648,-6.4933,-6.4791,-6.5196,-6.5023,-6.5269,-6.5269,-6.3132,-6.1996,-6.1011,-5.938,-5.7505,-5.6071,-5.5863,-5.5069,-5.4319,-5.3682,-5.3281,-5.2762,-5.1398,-5.0936,0.0,-5.0529,-4.9881,-4.8321,-4.4869,-4.5321,-4.4883,-4.2003,-4.3202,-4.4043,-4.3,-4.3966,-4.5917,-4.9092,-4.8075,0.0,0.0,0.0,-5.3543,-5.4924,-5.49,0.0,0.0,0.0,-5.6185,-5.9104,-5.6075,0.0,0.0,-5.1449,-5.0917,0.0,0.0,0.0,0.0,0.0,0.0,0.0,0.0,0.0,0.0,0.0,0.0,0.0,0.0,0.0,0.0,-3.5315,-3.9042,-4.0684,-4.2238,-4.5031,-4.9825,-5.1831,-5.3531,-5.5426,-5.5901,-5.6828,-5.8389,-5.9933,-6.1463,-6.3014,-6.5367,-6.6246,-6.5358,-6.5861,-6.5536,-6.4292,-6.3323,-6.272,-6.2517,-6.2449,-6.2068,-6.1452,-6.1964,-6.2738,-6.3643,-6.306,-6.3673,-6.4972,-6.4275,-6.4327,-6.5245,-6.8903,-7.1106,-7.2326,-7.321,-7.308,-7.2339,-7.0884,-7.0046,-6.9429,-6.7562,-6.7024,-6.7087,-6.6579,-6.6609,-6.6604,-6.5271,-6.4136,-6.3139,-6.2202,-6.0484,-5.9137,-5.9315,-5.8592,-5.7903,-5.7591,-5.7276,-5.6536,-5.4928,-5.4227,-5.4114,-5.4319,-5.2572,-4.9978,-4.6845,-4.6981,-4.6627,-4.4032,-4.4998,-4.5309,-4.4127,-4.5391,-4.7578,-5.0838,-5.0265,-5.24,-5.878,-5.7043,-5.6948,-5.9438,-5.8349,-5.8793,-6.1191,-5.7699,-5.6414,0.0,0.0,0.0,0.0,0.0,0.0,0.0,0.0,0.0,0.0,0.0,0.0,0.0,0.0,0.0,0.0,0.0,0.0,0.0,0.0,0.0,0.0,0.0,0.0,-3.769,-4.1343,-4.5859,-5.2568,-5.1561,-5.077,-5.2074,-5.2499,-5.3691,-5.631,-5.7308,-5.959,-6.3732,-6.3993,-6.5264,-6.7854,-6.6249,-6.59,-6.7129,-6.5262,-6.3887,-6.3154,-6.3154,-6.2517,-6.1458,-6.1964,-6.288,-6.4085,-6.3197,-6.3739,-6.5241,-6.4303,-6.4864,-6.6633,-7.0693,-7.3192,-7.4539,-7.461,-7.4592,-7.4494,-7.3916,-7.2137,-7.0329,-7.1044,-7.034,-6.9068,-6.9068,-6.8462,-6.7791,-6.7759,-6.6093,-6.4303,-6.4209,-6.2576,-6.092,-6.092,-6.0408,-5.9982,-5.9982,-5.9982,-5.9853,-5.9823,-5.8765,-5.6887,-5.4319,-5.2788,-5.0024,-4.4872,-4.6492,0.0,-4.327,-4.5371,-4.8149,-5.0926,-5.2292,-5.4386,-5.805,-5.4756,-5.5336,-6.1831,-5.8064,-5.8027,-6.3522,-6.0365,-5.8734,-5.9364,-5.7488,-5.6908,-5.7715,0.0,0.0,0.0,0.0,0.0,0.0,0.0,0.0,0.0,0.0,0.0,0.0,0.0,0.0,0.0,0.0,0.0,0.0,0.0,0.0,0.0,0.0,0.0,0.0,-3.7614,-4.1887,-4.8378,-4.8881,-4.9701,-5.2396,-5.1788,-5.2582,-5.562,-5.6603,-5.8365,-6.1355,-6.3243,-6.4783,-6.5936,-6.5243,-6.5474,-6.6864,-6.5267,-6.4493,-6.4561,-6.3802,-6.2758,-6.1418,-6.1964,-6.248,-6.2919,-6.3518,-6.4129,-6.4705,-6.5657,-6.6995,-6.8705,-7.1063,-7.2761,-7.4037,-7.4163,-7.3963,-7.3737,-7.478,-7.3881,-7.2153,-7.1701,-7.0461,-6.9244,-6.9244,-6.8784,-6.8299,-6.7931,-6.7052,-6.6041,-6.569,-6.5343,-6.487,-6.4389,-6.4096,-6.3801,-6.3141,-6.2737,-6.2085,-6.0759,-5.8288,-5.5478,-5.2814,-5.1635,-4.918,-4.3644,-4.5553,-4.7183,-4.5886,-4.7516,-4.9821,-5.2435,-5.4697,-5.7242,-6.0014,-5.9514,-6.0618,-6.4488,-6.2307,-6.2218,-6.5236,-6.3875,-6.3268,-6.3784,-6.3967,-6.0379,-5.2961,0.0,0.0,0.0,0.0,0.0,0.0,0.0,0.0,0.0,0.0,0.0,0.0,0.0,0.0,0.0,0.0,0.0,0.0,0.0,0.0,0.0,0.0,0.0,0.0,0.0,0.0,-4.3813,-4.4708,0.0,-4.8006,-4.7869,-4.904,-5.2773,-5.4891,-5.7121,-5.9724,-6.2461,-6.3974,-6.4123,-6.4663,-6.537,-6.6077,-6.5619,-6.5321,-6.5215,-6.4663,-6.3399,-6.1725,-6.2874,-6.3386,-6.3299,-6.4168,-6.4837,-6.5402,-6.6437,-6.7469,-6.8538,-6.9725,-7.0982,-7.2058,-7.214,-7.2071,-7.2025,-7.3215,-7.3229,-7.2347,-6.9967,-6.7615,-6.566,-6.6003,-6.5366,-6.4627,-6.5461,-6.5375,-6.5186,-6.6003,-6.6674,-6.6866,-6.6189,-6.6189,-6.6059,-6.5302,-6.4228,-6.2559,-5.9718,-5.6701,-5.3164,-4.8657,-4.7443,-4.5603,-4.127,-4.2987,-4.5532,-4.7558,-4.9208,-5.1242,-5.4314,-5.7074,-5.9666,-6.211,-6.3061,-6.4409,-6.6607,-6.5803,-6.5802,-6.7067,-6.6706,-6.6028,-6.5154,-6.479,-5.9384,0.0,0.0,0.0,0.0,0.0,0.0,0.0,0.0,0.0,0.0,0.0,0.0,0.0,0.0,0.0,0.0,0.0,0.0,0.0,0.0,0.0,0.0,0.0,0.0,0.0,0.0,0.0,-3.8797,-3.9129,0.0,0.0,0.0,0.0,-4.7602,-5.1829,-5.5452,-5.8541,-6.1328,-6.2709,-6.2379,-6.4516,-6.5378,-6.4864,-6.6003,-6.6138,-6.5183,-6.5581,-6.4468,-6.2008,-6.4468,-6.5309,-6.49,-6.4866,-6.5647,-6.6899,-6.6579,-6.6237,-6.5962,-6.6856,-6.7816,-6.8742,-6.8554,-6.8822,-6.9305,-6.9516,-7.0476,-7.0703,-6.6421,-6.2368,-5.9173,-5.9804,-5.8387,0.0,0.0,-6.0986,-6.1483,-6.4929,-6.6294,-6.6675,-6.6354,-6.6579,-6.6866,-6.6289,-6.4333,-6.1408,-5.707,-5.4043,-4.9608,-4.1923,0.0,-3.8956,-3.6974,-3.8505,-4.1853,-4.7654,-4.9996,-5.2737,-5.6812,-5.935,-6.1804,-6.4516,-6.5528,-6.664,-6.8145,-6.8266,-6.8495,-6.8996,-6.8563,-6.6738,-6.3354,-6.0084,0.0,0.0,0.0,0.0,0.0,0.0,0.0,0.0,0.0,0.0,0.0,0.0,0.0,0.0,0.0,0.0,0.0,0.0,0.0,0.0,0.0,0.0,0.0,0.0,0.0,0.0,-2.4923,-3.0485,-3.234,-3.1561,-3.0866,0.0,0.0,0.0,0.0,0.0,0.0,-5.295,-5.6421,-5.8764,-5.984,-6.1056,-6.2376,-6.3734,-6.3668,-6.4338,-6.5965,-6.5123,-6.358,-6.1498,-6.2592,-6.2931,-6.2705,-6.361,-6.4513,-6.5108,-6.3664,-6.1923,-6.0406,-6.1982,-6.2873,-6.3116,-6.3302,-6.3919,-6.5062,-6.6821,-6.7344,-6.6863,-6.4506,-6.164,-5.8531,-5.5076,0.0,0.0,0.0,0.0,-5.4215,-5.7591,-6.0418,-6.2885,-6.4802,-6.5649,-6.5773,-6.4776,-6.2984,-5.9621,-5.3388,-4.5713,-3.7961,-3.0896,-2.7902,0.0,-2.3069,-2.8956,-3.6089,-4.2451,-4.8063,-5.3314,-5.8325,-6.0607,-6.2777,-6.5091,-6.6565,-6.7642,-6.8333,-6.8809,-6.915,-6.9279,-6.6161,-6.3837,-6.2537,0.0,0.0,0.0,0.0,0.0,0.0,0.0,0.0,0.0,0.0,0.0,0.0,0.0,0.0,0.0,0.0,0.0,0.0,0.0,0.0,0.0,0.0,0.0,0.0,0.0,0.0,0.0,-1.0006,-1.7118,-1.733,-1.6794,-1.6282,0.0,0.0,0.0,0.0,0.0,0.0,0.0,0.0,0.0,-5.4098,-5.6479,-5.8675,-6.0689,-6.0971,-6.1297,-6.1593,-6.0855,-5.9315,-5.7403,-5.885,-5.9662,-5.9881,-6.1181,-6.1263,-6.0257,-5.7274,-5.6195,-5.6239,0.0,0.0,0.0,0.0,-5.588,-5.7727,-5.9166,-6.0316,-6.0483,-5.7282,0.0,0.0,0.0,0.0,0.0,0.0,0.0,-4.7747,-5.3138,-5.6996,-6.0143,-6.2639,-6.3767,-6.3926,-6.2668,-5.676,-4.9892,-4.3774,-3.5582,-2.7068,-1.8884,-1.647,0.0,0.0,0.0,-3.0856,-3.8499,-4.661,-5.3704,-5.908,-6.1814,-6.41,-6.6257,-6.7674,-6.854,-6.8828,-6.9247,-6.8418,-6.6075,-6.3469,-5.9694,0.0,0.0,0.0,0.0,0.0,0.0,0.0,0.0,0.0,0.0,0.0,0.0,0.0,0.0,0.0,0.0,0.0,0.0,0.0,0.0,0.0,0.0,0.0,0.0,0.0,0.0,0.0,0.0,0.0,0.248,0.0824,0.0,0.0,0.0,0.0,0.0,0.0,0.0,0.0,0.0,0.0,0.0,0.0,0.0,-5.098,-5.313,-5.4747,-5.48,-5.3281,-5.3655,-5.3099,-5.1722,-5.4762,-5.6217,-5.6177,-5.6216,0.0,-5.0711,-4.7501,0.0,0.0,0.0,0.0,0.0,0.0,0.0,0.0,0.0,0.0,0.0,0.0,0.0,0.0,0.0,0.0,0.0,0.0,0.0,0.0,0.0,0.0,-5.6292,-5.884,-6.0296,-6.0341,-5.7613,-4.6885,-3.6306,-3.0931,-2.4087,-1.6183,0.0,0.0,0.0,0.0,0.0,0.0,-3.4755,-4.5204,-5.3839,-5.925,-6.268,-6.5444,-6.7521,-6.8634,-6.929,-6.9373,-6.879,-6.6401,-6.1836,-5.9952,0.0,0.0,0.0,0.0,0.0,0.0,0.0,0.0,0.0,0.0,0.0,0.0,0.0,0.0,0.0,0.0,0.0,0.0,0.0,0.0,0.0,0.0,0.0,0.0,0.0,0.0,0.0,0.0,0.0,0.0,0.0,0.0,0.0,0.0,0.0,0.0,0.0,0.0,0.0,0.0,0.0,0.0,0.0,0.0,0.0,0.0,0.0,0.0,0.0,0.0,-4.4508,-4.6889,-4.866,-5.3722,-5.4303,-5.0782,-4.3906,-3.6264,-2.8732,-3.1266,0.0,0.0,0.0,0.0,0.0,0.0,0.0,0.0,0.0,0.0,0.0,0.0,0.0,0.0,0.0,0.0,0.0,0.0,0.0,0.0,0.0,0.0,-4.4993,-4.977,-5.2048,-5.0659,-4.1822,0.0,0.0,0.0,0.0,0.0,0.0,0.0,0.0,0.0,0.0,0.0,-2.8519,-4.2092,-5.3033,-5.8912,-6.275,-6.5715,-6.7779,-6.8836,-6.937,-6.9376,-6.497,-6.2192,0.0,0.0,0.0,0.0,0.0,0.0,0.0,0.0,0.0,0.0,0.0,0.0,0.0,0.0,0.0,0.0,0.0,0.0,0.0,0.0,0.0,0.0,0.0,0.0,0.0,0.0,0.0,0.0,0.0,0.0,0.0,0.0,0.0,0.0,0.0,0.0,0.0,0.0,0.0,0.0,0.0,0.0,0.0,0.0,0.0,0.0,0.0,0.0,0.0,0.0,0.0,0.0,0.0,0.0,0.0,0.0,0.0,0.0,-2.4035,-1.8543,0.0,0.0,0.0,0.0,0.0,0.0,0.0,0.0,0.0,0.0,0.0,0.0,0.0,0.0,0.0,0.0,0.0,0.0,0.0,0.0,0.0,0.0,0.0,0.0,0.0,0.0,0.0,0.0,0.0,0.0,0.0,0.0,0.0,0.0,0.0,0.0,0.0,0.0,0.0,0.0,-2.5216,-3.8909,-5.0288,-5.7149,-6.1278,-6.4208,-6.568,-6.7959,-6.75,-6.3294,-6.167,0.0,0.0,0.0,0.0,0.0,0.0,0.0,0.0,0.0,0.0,0.0,0.0,0.0,0.0,0.0,0.0,0.0,0.0,0.0,0.0,0.0,0.0,0.0,0.0,0.0,0.0,0.0,0.0,0.0,0.0,0.0,0.0,0.0,0.0,0.0,0.0,0.0,0.0,0.0,0.0,0.0,0.0,0.0,0.0,0.0,0.0,0.0,0.0,0.0,0.0,0.0,0.0,0.0,0.0,0.0,0.0,0.0,0.0,0.0,-0.2704,-0.1383,0.0,0.0,0.0,0.0,0.0,0.0,0.0,0.0,0.0,0.0,0.0,0.0,0.0,0.0,0.0,0.0,0.0,0.0,0.0,0.0,0.0,0.0,0.0,0.0,0.0,0.0,0.0,0.0,0.0,0.0,0.0,0.0,0.0,0.0,0.0,0.0,0.0,0.0,0.0,0.0,-2.2887,-3.6214,-4.7549,-5.4723,-5.9283,-6.2277,-6.3437,-6.6473,-6.494,-5.704,-5.615,0.0,0.0,0.0,0.0,0.0,0.0,0.0,0.0,0.0,0.0,0.0,0.0,0.0,0.0,0.0,0.0,0.0,0.0,0.0,0.0,0.0,0.0,0.0,0.0,0.0,0.0,0.0,0.0,0.0,0.0,0.0,0.0,0.0,0.0,0.0,0.0,0.0,0.0,0.0,0.0,0.0,0.0,0.0,0.0,0.0,0.0,0.0,0.0,0.0,0.0,0.0,0.0,0.0,0.0,0.0,0.0,0.0,0.0,0.0,0.0,0.0,0.0,0.0,0.0,0.0,0.0,0.0,0.0,0.0,0.0,0.0,0.0,0.0,0.0,0.0,0.0,0.0,0.0,0.0,0.0,0.0,0.0,0.0,0.0,0.0,0.0,0.0,0.0,0.0,0.0,0.0,0.0,0.0,0.0,0.0,0.0,0.0,0.0,0.0,0.0,0.0,-2.0256,-3.4599,-4.6149,-5.2025,-5.7073,-6.0732,-6.2706,-6.4519,-6.2366,-5.4966,0.0,0.0,0.0,0.0,0.0,0.0,0.0,0.0,0.0,0.0,0.0,0.0,0.0,0.0,0.0,0.0,0.0,0.0,0.0,0.0,0.0,0.0,0.0,0.0,0.0,0.0,0.0,0.0,0.0,0.0,0.0,0.0,0.0,0.0,0.0,0.0,0.0,0.0,0.0,0.0,0.0,0.0,0.0,0.0,0.0,0.0,0.0,0.0,0.0,0.0,0.0,0.0,0.0,0.0,0.0,0.0,0.0,0.0,0.0,0.0,0.0,0.0,0.0,0.0,0.0,0.0,0.0,0.0,0.0,0.0,0.0,0.0,0.0,0.0,0.0,0.0,0.0,0.0,0.0,0.0,0.0,0.0,0.0,0.0,0.0,0.0,0.0,0.0,0.0,0.0,0.0,0.0,0.0,0.0,0.0,0.0,0.0,0.0,0.0,0.0,0.0,0.0,-1.9323,-3.2024,-4.2584,-4.8889,-5.4158,-5.7761,-5.9191,-6.1783,-5.6304,-3.9748,0.0,0.0,0.0,0.0,0.0,0.0,0.0,0.0,0.0,0.0,0.0,0.0,0.0,0.0,0.0,0.0,0.0,0.0,0.0,0.0,0.0,0.0,0.0,0.0,0.0,0.0,0.0,0.0,0.0,0.0,0.0,0.0,0.0,0.0,0.0,0.0,0.0,0.0,0.0,0.0,0.0,0.0,0.0,0.0,0.0,0.0,0.0,0.0,0.0,0.0,0.0,0.0,0.0,0.0,0.0,0.0,0.0,0.0,0.0,0.0,0.0,0.0,0.0,0.0,0.0,0.0,0.0,0.0,0.0,0.0,0.0,0.0,0.0,0.0,0.0,0.0,0.0,0.0,0.0,0.0,0.0,0.0,0.0,0.0,0.0,0.0,0.0,0.0,0.0,0.0,0.0,0.0,0.0,0.0,0.0,0.0,0.0,0.0,0.0,0.0,0.0,0.0,-1.8027,-2.9655,-3.9319,-4.5618,-5.1082,-5.4749,-5.5893,-5.4317,-4.5774,-2.8153,0.0,0.0,0.0,0.0,0.0,0.0,0.0,0.0,0.0,0.0,0.0,0.0,0.0,0.0,0.0,0.0,0.0,0.0,0.0,0.0,0.0,0.0,0.0,0.0,0.0,0.0,0.0,0.0,0.0,0.0,0.0,0.0,0.0,0.0,0.0,0.0,0.0,0.0,0.0,0.0,0.0,0.0,0.0,0.0,0.0,0.0,0.0,0.0,0.0,0.0,0.0,0.0,0.0,0.0,0.0,0.0,0.0,0.0,0.0,0.0,0.0,0.0,0.0,0.0,0.0,0.0,0.0,0.0,0.0,0.0,0.0,0.0,0.0,0.0,0.0,0.0,0.0,0.0,0.0,0.0,0.0,0.0,0.0,0.0,0.0,0.0,0.0,0.0,0.0,0.0,0.0,0.0,0.0,0.0,0.0,0.0,0.0,0.0,0.0,0.0,0.0,0.0,-1.5903,-2.7572,-3.7017,-4.2257,-4.7715,-5.1766,-5.3718,-4.0562,-2.9873,0.0,0.0,0.0,0.0,0.0,0.0,0.0,0.0,0.0,0.0,0.0,0.0,0.0,0.0,0.0,0.0,0.0,0.0,0.0,0.0,0.0,0.0,0.0,0.0,0.0,0.0,0.0,0.0,0.0,0.0,0.0,0.0,0.0,0.0,0.0,0.0,0.0,0.0,0.0,0.0,0.0,0.0,0.0,0.0,0.0,0.0,0.0,0.0,0.0,0.0,0.0,0.0,0.0,0.0,0.0,0.0,0.0,0.0,0.0,0.0,0.0,0.0,0.0,0.0,0.0,0.0,0.0,0.0,0.0,0.0,0.0,0.0,0.0,0.0,0.0,0.0,0.0,0.0,0.0,0.0,0.0,0.0,0.0,0.0,0.0,0.0,0.0,0.0,0.0,0.0,0.0,0.0,0.0,0.0,0.0,0.0,0.0,0.0,0.0,0.0,0.0,0.0,0.0,-1.4863,-2.5837,-3.46,-3.9101,-4.4199,-4.3106,-3.3066,-2.9224,-1.8238,0.3141,0.0,0.0,0.0,0.0,0.0,0.0,0.0,0.0,0.0,0.0,0.0,0.0,0.0,0.0,0.0,0.0,0.0,0.0,0.0,0.0,0.0,0.0,0.0,0.0,0.0,0.0,0.0,0.0,0.0,0.0,0.0,0.0,0.0,0.0,0.0,0.0,0.0,0.0,0.0,0.0,0.0,0.0,0.0,0.0,0.0,0.0,0.0,0.0,0.0,0.0,0.0,0.0,0.0,0.0,0.0,0.0,0.0,0.0,0.0,0.0,0.0,0.0,0.0,0.0,0.0,0.0,0.0,0.0,0.0,0.0,0.0,0.0,0.0,0.0,0.0,0.0,0.0,0.0,0.0,0.0,0.0,0.0,0.0,0.0,0.0,0.0,0.0,0.0,0.0,0.0,0.0,0.0,0.0,0.0,0.0,0.0,0.0,0.0,0.0,0.0,0.0,0.0,0.0,-2.338,-3.1348,-3.5678,-4.1512,-4.1392,-3.2322,-2.1509,-0.8763,0.6424,0.0,0.0,0.0,0.0,0.0,0.0,0.0,0.0,0.0,0.0,0.0,0.0,0.0,0.0,0.0,0.0,0.0,0.0,0.0,0.0,0.0,0.0,0.0,0.0,0.0,0.0,0.0,0.0,0.0,0.0,0.0,0.0,0.0,0.0,0.0,0.0,0.0,0.0,0.0,0.0,0.0,0.0,0.0,0.0,0.0,0.0,0.0,0.0,0.0,0.0,0.0,0.0,0.0,0.0,0.0,0.0,0.0,0.0,0.0,0.0,0.0,0.0,0.0,0.0,0.0,0.0,0.0,0.0,0.0,0.0,0.0,0.0,0.0,0.0,0.0,0.0,0.0,0.0,0.0,0.0,0.0,0.0,0.0,0.0,0.0,0.0,0.0,0.0,0.0,0.0,0.0,0.0,0.0,0.0,0.0,0.0,0.0,0.0,0.0,0.0,0.0,0.0,0.0,-2.0343,-2.758,-3.1986,-3.9298,-4.4042,-4.462,-1.7282,-0.2233,-0.7265,2.2249,0.0,0.0,0.0,0.0,0.0,0.0,0.0,0.0,0.0,0.0,0.0,0.0,0.0,0.0,0.0,0.0,0.0,0.0,0.0,0.0,0.0,0.0,0.0,0.0,0.0,0.0,0.0,0.0,0.0,0.0,0.0,0.0,0.0,0.0,0.0,0.0,0.0,0.0,0.0,0.0,0.0,0.0,0.0,0.0,0.0,0.0,0.0,0.0,0.0,0.0,0.0,0.0,0.0,0.0,0.0,0.0,0.0,0.0,0.0,0.0,0.0,0.0,0.0,0.0,0.0,0.0,0.0,0.0,0.0,0.0,0.0,0.0,0.0,0.0,0.0,0.0,0.0,0.0,0.0,0.0,0.0,0.0,0.0,0.0,0.0,0.0,0.0,0.0,0.0,0.0,0.0,0.0,0.0,0.0,0.0,0.0,0.0,0.0,0.0,0.0,0.0,0.0,-1.8515,-2.5169,-2.8614,-3.3868,-3.2692,-2.1966,-1.7008,-0.6521,1.2252,1.92,0.0,0.0,0.0,0.0,0.0,0.0,0.0,0.0,0.0,0.0,0.0,0.0,0.0,0.0,0.0,0.0,0.0,0.0,0.0,0.0,0.0,0.0,0.0,0.0,0.0,0.0,0.0,0.0,0.0,0.0,0.0,0.0,0.0,0.0,0.0,0.0,0.0,0.0,0.0,0.0,0.0,0.0,0.0,0.0,0.0,0.0,0.0,0.0,0.0,0.0,0.0,0.0,0.0,0.0,0.0,0.0,0.0,0.0,0.0,0.0,0.0,0.0,0.0,0.0,0.0,0.0,0.0,0.0,0.0,0.0,0.0,0.0,0.0,0.0,0.0,0.0,0.0,0.0,0.0,0.0,0.0,0.0,0.0,0.0,0.0,0.0,0.0,0.0,0.0,0.0,0.0,0.0,0.0,0.0,0.0,0.0,0.0,0.0,0.0,0.0,0.0,0.0,-1.127,-1.7846,-2.4931,-3.0601,-3.1407,-2.5533,-2.0531,-1.0589,0.6204,1.1445,0.0,0.0,0.0,0.0,0.0,0.0,0.0,0.0,0.0,0.0,0.0,0.0,0.0,0.0,0.0,0.0,0.0,0.0,0.0,0.0,0.0,0.0,0.0,0.0,0.0,0.0,0.0,0.0,0.0,0.0,0.0,0.0,0.0,0.0,0.0,0.0,0.0,0.0,0.0,0.0,0.0,0.0,0.0,0.0,0.0,0.0,0.0,0.0,0.0,0.0,0.0,0.0,0.0,0.0,0.0,0.0,0.0,0.0,0.0,0.0,0.0,0.0,0.0,0.0,0.0,0.0,0.0,0.0,0.0,0.0,0.0,0.0,0.0,0.0,0.0,0.0,0.0,0.0,0.0,0.0,0.0,0.0,0.0,0.0,0.0,0.0,0.0,0.0,0.0,0.0,0.0,0.0,0.0,0.0,0.0,0.0,0.0,0.0,0.0,0.0,0.0,0.0,0.0,-0.9545,-2.0694,-2.7753,-3.3387,-3.7631,-2.4773,-1.3856,-0.786,0.0,0.0,0.0,0.0,0.0,0.0,0.0,0.0,0.0,0.0,0.0,0.0,0.0,0.0,0.0,0.0,0.0,0.0,0.0,0.0,0.0,0.0,0.0,0.0,0.0,0.0,0.0,0.0,0.0,0.0,0.0,0.0,0.0,0.0,0.0,0.0,0.0,0.0,0.0,0.0,0.0,0.0,0.0,0.0,0.0,0.0,0.0,0.0,0.0,0.0,0.0,0.0,0.0,0.0,0.0,0.0,0.0,0.0,0.0,0.0,0.0,0.0,0.0,0.0,0.0,0.0,0.0,0.0,0.0,0.0,0.0,0.0,0.0,0.0,0.0,0.0,0.0,0.0,0.0,0.0,0.0,0.0,0.0,0.0,0.0,0.0,0.0,0.0,0.0,0.0,0.0,0.0,0.0,0.0,0.0,0.0,0.0,0.0,0.0,0.0,0.0,0.0,0.0,0.0,-0.692,-1.5027,-2.2829,-2.8716,-3.1917,-2.442,-1.4684,-0.3342,0.0,0.0,0.0,0.0,0.0,0.0,0.0,0.0,0.0,0.0,0.0,0.0,0.0,0.0]}],[{"header":{"parameterUnit":"kt","parameterCategory":2,"dx":1,"dy":1,"la1":29.285339999999998,"la2":30.599998999999997,"lo1":-89.70041500000002,"lo2":-87.6738589999976,"nx":112,"ny":82,"refTime":"2022-09-21T12:00:00:Z","depth":0,"parameterNumber":2,"parameterNumberName":"V-component_of_WINDS"},"data":[7.5737,7.4832,7.371,6.9943,6.9767,6.9364,6.5583,6.5699,6.6334,6.5626,6.4478,6.3937,6.4723,6.1324,5.7946,5.654,5.4729,5.3604,0.0,5.5384,5.6915,5.8311,5.9095,5.996,6.1356,6.2738,0.0,0.0,6.9186,7.0815,7.3856,7.4559,7.5007,7.5513,7.554,7.554,7.554,7.4748,7.4962,7.6012,7.6619,7.737,7.8464,7.9742,8.0395,8.0868,8.1252,8.1862,8.2649,8.2758,8.3157,8.3566,8.294,8.2873,8.2873,8.2873,8.2873,8.2873,8.2873,8.2873,8.2873,8.2873,8.2873,8.2873,8.2873,8.2873,8.2873,8.2873,8.2873,8.2873,8.2873,8.2873,8.2873,8.2873,8.2873,8.2873,8.2873,8.2873,8.2873,8.2873,8.3326,8.4497,8.664,8.697,8.7659,8.99,8.9512,8.9218,8.9744,8.9798,9.0138,9.0838,9.1143,9.1356,9.1356,9.1356,9.1356,9.1356,9.1356,9.1356,9.1356,9.1356,9.1356,9.1356,9.1356,9.1356,9.1356,9.1356,9.1356,9.1356,9.2362,9.2639,7.4502,7.3531,7.2318,6.762,6.7035,6.6688,6.282,6.2936,6.3722,6.3285,6.33,6.3125,6.2476,6.0515,5.8178,5.5817,5.4842,5.4224,0.0,5.5721,5.7706,5.9016,6.0301,6.1514,6.2566,6.3592,0.0,0.0,6.8012,0.0,7.2918,7.3082,7.3464,7.4284,7.4311,7.4311,7.4311,7.3492,7.3542,7.433,7.5444,7.6355,7.6849,7.9006,7.9969,8.0075,8.086,8.151,8.1792,8.2475,8.2873,8.2873,8.2873,8.2873,8.2873,8.2873,8.2873,8.2873,8.2873,8.2873,8.2873,8.2873,8.2873,8.2873,8.2873,8.2873,8.2873,8.2873,8.2873,8.2873,8.2873,8.2873,8.2873,8.2873,8.2995,8.3085,8.3085,8.3326,8.3447,8.3206,8.3686,8.476,8.6747,8.7483,8.8366,8.9934,8.9969,8.9969,9.0563,9.0426,9.0609,9.1321,9.1356,9.1356,9.1356,9.1356,9.1356,9.1356,9.1356,9.1356,9.1356,9.1356,9.1356,9.1356,9.1356,9.1356,9.1356,9.1356,9.1356,9.1356,9.2396,9.2084,7.3678,7.1423,6.9796,6.6153,6.5228,6.4945,6.3489,6.4129,6.4652,6.346,6.41,6.4407,6.2613,6.2336,6.0736,5.6266,5.6454,0.0,0.0,5.4641,5.6531,5.9031,6.2172,6.4442,6.4955,6.2025,6.2424,0.0,6.5494,6.6151,7.1771,7.1962,7.1962,7.1962,7.1908,7.188,7.188,7.188,7.2361,7.3109,7.5014,7.5727,7.5529,7.8489,7.9713,7.9844,8.0846,8.1917,8.2873,8.2873,8.2873,8.2873,8.2873,8.2873,8.2873,8.2873,8.2873,8.2873,8.2873,8.2873,8.2873,8.2873,8.2873,8.2873,8.2873,8.2873,8.2873,8.2873,8.2873,8.2873,8.2873,8.2873,8.2873,8.2873,8.3326,8.3805,8.3805,8.4244,8.4594,8.3891,8.4361,8.5185,8.678,8.8629,8.9847,9.02,9.0838,9.1356,9.1356,9.1356,9.1356,9.1356,9.1356,9.1356,9.1356,9.1356,9.1356,9.1356,9.1356,9.1356,9.1356,9.1356,9.1356,9.1356,9.1356,9.1356,9.1356,9.1356,9.1356,9.1356,9.1356,9.0574,7.359,7.314,7.2776,6.9091,6.81,6.7179,6.3896,6.2762,6.25,6.3082,6.1977,0.0,0.0,0.0,5.8316,5.7976,0.0,5.7984,5.6321,5.8362,6.0949,6.3823,6.4337,6.5197,0.0,6.7367,6.8337,7.08,7.0162,7.0622,7.3082,7.3164,7.3164,7.3164,7.2345,7.221,7.2811,7.2811,7.3109,7.3967,7.5756,7.66,7.6629,7.9521,8.0846,8.0846,8.1917,8.2597,8.2873,8.2873,8.2873,8.2873,8.2873,8.2873,8.2873,8.2873,8.2873,8.2873,8.2873,8.2873,8.2873,8.2873,8.2873,8.2873,8.2873,8.2873,8.2873,8.2873,8.2873,8.2873,8.2873,8.3206,8.3566,8.3566,8.4009,8.4478,8.4478,8.4594,8.4709,8.4478,8.4594,8.5249,8.6731,8.8193,8.9469,9.0097,9.0838,9.1356,9.1356,9.1356,9.1356,9.1356,9.1356,9.1356,9.1356,9.1356,9.1356,9.1356,9.1356,9.1356,9.1356,9.1356,9.1356,9.1356,9.1356,9.1356,9.1356,9.1356,9.1356,9.1356,9.1356,9.1148,7.3767,7.3588,7.3473,7.0222,6.9317,6.8178,6.4099,6.2616,6.2151,6.2355,0.0,0.0,0.0,0.0,0.0,0.0,6.0214,6.0804,5.9416,6.1581,6.4148,6.6539,6.7541,0.0,6.8381,6.8606,6.9823,7.2481,7.1414,7.1425,7.3574,7.3683,7.3592,7.3405,7.2718,7.2811,7.3553,7.3553,7.4085,7.4899,7.671,7.7675,7.7675,8.059,8.1636,8.1353,8.232,8.2873,8.2873,8.2873,8.2873,8.2873,8.2873,8.2873,8.2873,8.2873,8.2873,8.2873,8.2873,8.2873,8.2873,8.2873,8.2873,8.2873,8.2873,8.2873,8.2873,8.2873,8.2873,8.2873,8.2873,8.3326,8.3805,8.3805,8.4638,8.5524,8.5524,8.559,8.5428,8.5103,8.5249,8.5798,8.6647,8.7479,8.8398,8.9552,9.0275,9.0859,9.1321,9.1356,9.1356,9.1356,9.1356,9.1356,9.1356,9.1356,9.1356,9.1356,9.1356,9.1356,9.1356,9.1356,9.1356,9.1356,9.1356,9.1356,9.1356,9.1356,9.1356,9.1356,9.1356,9.1356,7.4111,7.338,7.3069,7.0493,6.9551,6.8318,6.4626,0.0,6.3431,6.2733,0.0,6.1017,6.2355,0.0,0.0,6.0468,6.3231,6.4799,6.3362,6.5572,6.7767,6.887,7.1428,7.207,6.9208,6.8012,6.9213,7.3437,7.1065,7.0804,7.3956,7.4112,7.3872,7.3581,7.3275,7.3701,7.4522,7.455,7.5186,7.6204,7.7995,7.883,7.8963,8.1667,8.232,8.151,8.2443,8.2873,8.2873,8.2873,8.2873,8.2873,8.2873,8.2873,8.2873,8.2873,8.2873,8.2873,8.2873,8.2873,8.2873,8.2873,8.2873,8.2873,8.2873,8.2873,8.2873,8.2873,8.2873,8.2873,8.2873,8.3326,8.3805,8.3955,8.5327,8.6562,8.6707,8.6713,8.6495,8.5635,8.6209,8.667,8.667,8.6787,8.7285,8.8701,8.9416,9.0138,9.1108,9.1321,9.1356,9.1356,9.1356,9.1356,9.1356,9.1356,9.1356,9.1356,9.1356,9.1356,9.1356,9.1356,9.1356,9.1356,9.1356,9.1356,9.1356,9.1356,9.1356,9.1356,9.1356,9.1356,7.4825,7.4666,7.4454,7.3022,7.1109,6.9213,0.0,0.0,0.0,6.9945,6.9538,6.9044,7.0294,6.8666,6.7756,6.9733,7.1051,7.1594,7.1257,7.4876,7.7376,7.7017,7.524,7.3589,7.233,7.1484,7.1729,7.3546,7.4018,7.4972,7.655,7.6366,7.6202,7.6135,7.4736,7.4811,7.6489,7.6489,7.7264,7.8993,8.0173,8.0719,8.0719,8.2196,8.272,8.2475,8.2751,8.2873,8.2873,8.2873,8.2873,8.2873,8.2873,8.2873,8.2873,8.2873,8.2873,8.2873,8.2873,8.2873,8.2873,8.2873,8.2873,8.2873,8.2873,8.2873,8.2873,8.2873,8.2873,8.2873,8.2873,8.3326,8.3955,8.4883,8.533,8.5798,8.6516,8.6702,8.6637,8.6495,8.6637,8.667,8.667,8.7258,8.7683,8.799,8.9261,9.0216,9.0344,9.0963,9.1356,9.1356,9.1356,9.1356,9.1356,9.1356,9.1356,9.1356,9.1356,9.1356,9.1356,9.1356,9.1356,9.1356,9.1356,9.1356,9.1356,9.1356,9.1356,9.1356,9.1356,9.1356,7.3572,7.3827,7.4058,7.2788,7.1437,0.0,0.0,6.7561,6.7982,7.1082,7.0681,7.0598,7.3131,7.252,7.1879,7.2453,7.4942,7.7414,7.9175,7.9904,7.9866,7.9016,7.6444,7.4405,7.3257,7.2661,7.2855,7.3574,7.5403,7.6441,7.6441,7.669,7.6682,7.6242,7.5872,7.646,7.8354,7.8354,7.9023,8.0462,8.0974,8.151,8.2041,8.2597,8.2873,8.2873,8.2873,8.2873,8.2873,8.2873,8.2873,8.2873,8.2873,8.2873,8.2873,8.2873,8.2873,8.2873,8.2873,8.2873,8.2873,8.2873,8.2873,8.2873,8.2873,8.2873,8.2873,8.2873,8.2873,8.2873,8.2873,8.3351,8.4265,8.5147,8.5703,8.6209,8.6637,8.667,8.667,8.667,8.667,8.667,8.667,8.707,8.743,8.7816,8.8501,8.9295,9.0063,9.0563,9.0963,9.1321,9.1356,9.1356,9.1356,9.1356,9.1356,9.1356,9.1356,9.1356,9.1356,9.1356,9.1356,9.1356,9.1356,9.1356,9.1356,9.1356,9.1356,9.1356,9.1356,9.1356,7.1947,7.2367,7.3042,7.1955,7.1337,0.0,6.9575,6.8858,6.9404,7.2633,7.2646,7.3003,7.585,7.6464,7.62,7.528,7.8232,8.1892,8.4883,8.2442,8.0101,7.9236,7.7164,7.5099,7.3701,7.3525,7.3619,7.3707,7.5851,7.6785,7.6071,7.6707,7.6958,7.6386,7.7105,7.8354,7.9974,7.9974,8.0493,8.151,8.151,8.2041,8.2873,8.2873,8.2873,8.2873,8.2873,8.2873,8.2873,8.2873,8.2873,8.2873,8.2873,8.2873,8.2873,8.2873,8.2873,8.2873,8.2873,8.2873,8.2873,8.2873,8.2873,8.2873,8.2873,8.2873,8.2873,8.2873,8.2873,8.2873,8.2873,8.3408,8.4137,8.487,8.5638,8.6319,8.6637,8.667,8.667,8.667,8.667,8.667,8.667,8.667,8.6962,8.7536,8.7745,8.8298,8.9586,8.9969,9.0437,9.1053,9.1232,9.1356,9.1356,9.1356,9.1356,9.1356,9.1356,9.1356,9.1356,9.1356,9.1356,9.1356,9.1356,9.1356,9.1356,9.1356,9.1356,9.1356,9.1356,9.1356,7.1216,7.1611,7.2027,7.2951,7.1468,0.0,7.5386,7.5021,7.5193,8.1045,8.3064,8.3746,8.3469,8.4035,8.4382,8.4304,8.3699,8.3696,8.4792,8.3031,8.1654,8.1502,7.8689,7.6349,7.5243,7.53,7.5214,7.431,7.5428,7.6665,7.7676,7.8227,7.8438,7.8432,7.9086,7.9944,8.1101,8.1101,8.1636,8.2597,8.2597,8.272,8.2873,8.2873,8.2873,8.2873,8.2873,8.2873,8.2873,8.2873,8.2873,8.2873,8.2873,8.2873,8.2873,8.2873,8.2873,8.2873,8.2873,8.2873,8.2873,8.2873,8.2873,8.2873,8.2873,8.2873,8.2873,8.2873,8.2873,8.2873,8.2873,8.2842,8.3232,8.4105,8.4355,8.4909,8.6352,8.667,8.667,8.667,8.667,8.667,8.667,8.667,8.6779,8.6854,8.743,8.792,8.8126,8.9295,9.0285,9.0285,9.0963,9.1356,9.1356,9.1356,9.1356,9.1356,9.1356,9.1356,9.1356,9.1356,9.1356,9.1356,9.1356,9.1356,9.1356,9.1356,9.1356,9.1356,9.1356,9.1356,7.0,7.0164,7.0282,7.0846,0.0,0.0,7.4691,7.5602,7.7357,8.2467,8.3912,8.4622,8.5386,8.6464,8.6488,8.4516,8.4332,8.4301,8.4128,8.252,8.1058,7.9761,7.847,7.7323,7.6349,7.5897,7.5759,7.6187,7.6584,7.7171,7.7955,7.8378,7.8711,7.8611,7.9956,8.1132,8.2196,8.2196,8.2351,8.2873,8.2873,8.2873,8.2873,8.2873,8.2873,8.2873,8.2873,8.2873,8.2873,8.2873,8.2873,8.2873,8.2873,8.2873,8.2873,8.2873,8.2873,8.2873,8.2873,8.2873,8.2811,8.2801,8.2775,8.2811,8.2769,8.2775,8.2873,8.2873,8.3085,8.3478,8.4114,8.3891,8.3786,8.4649,8.52,8.5779,8.6495,8.667,8.667,8.667,8.667,8.667,8.667,8.667,8.667,8.667,8.6929,8.7357,8.7816,8.8399,8.9197,9.0063,9.0471,9.0872,9.1321,9.1356,9.1356,9.1356,9.1356,9.1356,9.1356,9.1356,9.1356,9.1356,9.1356,9.1356,9.1356,9.1356,9.1356,9.1356,9.1356,9.1356,6.9609,0.0,0.0,0.0,0.0,0.0,7.6401,7.781,7.9687,8.3505,8.4291,8.4703,8.5954,8.7218,8.7061,8.385,8.4072,8.4228,8.2932,8.1652,8.0234,7.8279,7.8173,7.7764,7.6937,7.6769,7.6979,7.7682,7.8024,7.8176,7.8493,7.8494,7.8651,7.889,8.0431,8.1792,8.2751,8.2873,8.2873,8.2873,8.2873,8.2873,8.2873,8.2873,8.2873,8.2873,8.2873,8.2873,8.2873,8.2873,8.2873,8.2873,8.2873,8.2873,8.2873,8.2873,8.2779,8.2806,8.2806,8.2832,8.2763,8.2773,8.3249,8.3757,8.305,8.2781,8.289,8.3263,8.3686,8.4372,8.5405,8.5083,8.4664,8.5265,8.5955,8.6527,8.6637,8.6854,8.7037,8.7357,8.7144,8.707,8.707,8.6854,8.667,8.667,8.667,8.6854,8.743,8.7745,8.8433,8.9683,9.0063,9.0563,9.1356,9.1356,9.1356,9.1356,9.1356,9.1356,9.1356,9.1356,9.1356,9.1356,9.1356,9.1356,9.1356,9.1356,9.1356,9.1356,9.1356,9.1356,0.0,0.0,0.0,7.7221,7.7221,7.7705,8.3776,8.3709,8.3266,8.6054,8.671,8.6598,8.5849,8.7037,8.7116,8.4194,8.3868,8.3206,8.1541,8.0364,7.9318,7.8308,7.8173,7.7794,7.6746,7.8414,7.9186,7.8203,7.9113,7.9642,7.9673,7.8772,7.8578,7.9713,8.0719,8.1792,8.2751,8.2873,8.2873,8.2873,8.2873,8.2873,8.2873,8.2873,8.2873,8.2873,8.2873,8.2873,8.2873,8.2873,8.2873,8.2873,8.2873,8.2873,8.2873,8.2873,8.2801,8.2781,8.2781,8.2818,8.2784,8.2784,8.4581,8.6089,8.3528,8.2784,8.3092,8.4337,8.4709,8.505,8.6301,8.5959,8.541,8.5638,8.5718,8.5942,8.6527,8.7251,8.8023,8.8802,8.8331,8.7816,8.7816,8.7251,8.667,8.667,8.667,8.6637,8.6779,8.743,8.8229,8.9,8.9778,9.0563,9.1356,9.1356,9.1356,9.1356,9.1356,9.1356,9.1356,9.1356,9.1356,9.1356,9.1356,9.1356,9.1356,9.1356,9.1356,9.1356,9.1356,9.1356,7.2687,7.3798,7.5641,7.8878,8.0464,8.1883,8.4319,8.518,8.5854,8.7231,8.7075,8.6529,8.5816,8.6157,8.625,8.5248,8.4393,8.3263,8.2134,8.1258,8.0074,7.8279,7.8816,7.9053,7.8683,7.9318,7.9814,8.0204,8.0462,8.0462,7.9713,8.0105,8.0364,8.0719,8.1101,8.1792,8.2751,8.2873,8.2873,8.2873,8.2873,8.2873,8.2873,8.2873,8.2873,8.2873,8.2873,8.3111,8.3754,8.3754,8.3381,8.2913,8.3445,8.3754,8.3754,8.3945,8.4276,8.451,8.451,8.4935,8.5359,8.5444,8.5963,8.6546,8.5638,8.4746,8.424,8.4954,8.5216,8.5411,8.5474,8.5865,8.6295,8.634,8.6418,8.6637,8.7357,8.8126,8.8702,8.9,8.8802,8.8601,8.8601,8.8433,8.8023,8.7536,8.743,8.7251,8.6746,8.6962,8.7641,8.8901,8.9295,8.9969,9.1232,9.1356,9.1356,9.1356,9.1356,9.1356,9.1356,9.1356,9.1356,9.1356,9.1356,9.1356,9.1356,9.1356,9.1356,9.1356,9.1356,9.1356,7.4951,7.6462,7.8217,8.2532,8.4675,8.5934,8.6686,8.7575,8.8197,8.792,8.743,8.6929,8.6197,8.6086,8.5975,8.5718,8.5004,8.3891,8.2381,8.1854,8.0534,7.7758,7.7994,7.8181,7.7276,7.8323,7.9062,7.9336,8.0858,8.1293,8.02,8.0854,8.1227,8.1227,8.1227,8.1636,8.2196,8.2597,8.2873,8.2873,8.2873,8.2873,8.2873,8.3085,8.3206,8.3206,8.3542,8.4201,8.505,8.4581,8.3771,8.2931,8.3932,8.4337,8.4337,8.4645,8.4972,8.5119,8.5119,8.5849,8.6645,8.672,8.6707,8.6645,8.672,8.617,8.5492,8.5768,8.596,8.5942,8.554,8.6053,8.667,8.667,8.667,8.7037,8.8399,8.9099,8.949,8.9778,8.9683,8.949,8.949,8.9197,8.8802,8.8298,8.8298,8.8126,8.7641,8.7536,8.8023,8.9295,8.9552,9.0123,9.1232,9.1498,9.1498,9.1321,9.1356,9.1356,9.1356,9.1356,9.1356,9.1356,9.1356,9.1356,9.1356,9.1356,9.1356,9.1356,9.1356,9.1356,7.7622,7.9482,8.1289,8.7984,8.9649,8.9792,9.0716,9.079,9.0241,8.8298,8.792,8.7607,8.683,8.6581,8.6297,8.5602,8.549,8.4746,8.2527,8.2101,8.0609,7.6768,7.6314,7.5443,7.3091,7.584,7.7232,7.6017,8.0052,8.2087,8.0765,8.0982,8.1168,8.1168,8.123,8.1261,8.1261,8.2289,8.2873,8.2873,8.2873,8.2873,8.2873,8.3447,8.3805,8.3923,8.4903,8.5816,8.6416,8.5101,8.379,8.2675,8.4259,8.4792,8.4792,8.4825,8.4828,8.4811,8.4811,8.5661,8.6713,8.6713,8.6713,8.6713,8.6713,8.6713,8.6713,8.6713,8.6713,8.6713,8.6713,8.668,8.6614,8.6713,8.668,8.733,8.9649,9.0089,9.0265,9.099,9.0505,9.0045,9.0045,8.9348,8.8862,8.8862,8.893,8.8998,8.8899,8.8933,8.9295,9.0097,9.0552,9.0949,9.1321,9.1724,9.1811,9.1444,9.1356,9.1356,9.1356,9.1356,9.1356,9.1356,9.1356,9.1356,9.1356,9.1356,9.1356,9.1356,9.1356,9.1356,8.0447,8.4719,8.8299,9.2109,9.2434,9.1928,9.2145,9.1515,9.0426,8.8967,8.8534,8.7861,8.6653,8.5481,8.438,8.3316,8.2679,8.2214,8.1601,8.0984,7.9799,7.7796,7.8108,7.7857,7.6235,7.7518,7.8329,7.8017,7.9114,7.96,7.9254,7.9302,7.9372,7.9372,8.0375,8.0939,8.0939,8.2217,8.2873,8.2873,8.2873,8.2873,8.2873,8.3447,8.4276,8.5168,8.4833,8.4561,8.4463,8.3351,8.1357,7.9697,8.4408,8.6242,8.6275,8.6176,8.6209,8.6221,8.6176,8.6393,8.6673,8.6694,8.67,8.67,8.67,8.67,8.6661,8.6747,8.6721,8.6661,8.6747,8.6064,8.5981,8.7486,8.7222,8.7155,8.896,8.8379,8.7618,8.782,8.7716,8.763,8.763,8.7421,8.7068,8.6492,8.7448,8.7884,8.7309,8.8324,8.9295,9.0097,9.0552,9.1094,9.169,9.1897,9.1897,9.1811,9.1498,9.1356,9.1356,9.1356,9.1356,9.1356,9.1356,9.1356,9.1356,9.1356,9.1356,9.1356,9.1356,9.1356,7.9877,8.5321,9.0925,9.4271,9.4715,9.4123,9.3424,9.2761,9.1857,9.0426,8.905,8.7598,8.6191,8.4847,8.3767,8.3147,8.2268,8.1537,8.1325,8.0658,7.9455,7.7345,7.7351,7.6842,7.4979,7.624,7.6979,7.6385,7.7796,7.8467,7.7869,7.8404,7.8719,7.8719,7.9474,7.9883,7.9883,8.0639,8.1048,8.1048,8.1677,8.2396,8.3206,8.3891,8.3951,8.3434,8.3491,8.3079,8.2482,8.1826,8.014,7.8287,8.1552,8.4382,8.6661,8.6648,8.6714,8.6681,8.6727,8.5054,8.285,8.2861,8.2866,8.3365,8.594,8.6746,8.6476,8.5054,8.5732,8.6339,8.5021,8.4942,8.5414,8.6553,8.678,8.6954,8.7824,8.7288,8.6696,8.6693,8.6743,8.6743,8.6743,8.6743,8.6539,8.6074,8.6798,8.7171,8.672,8.8238,8.9565,8.9961,9.1185,9.1997,9.2236,9.2485,9.2367,9.1947,9.1724,9.1585,9.1321,9.1356,9.1356,9.1356,9.1356,9.1356,9.1356,9.1356,9.141,9.1638,9.1638,9.1638,7.9227,8.4459,9.0761,9.5017,9.591,9.552,9.429,9.3729,9.3076,9.171,8.9338,8.7128,8.5781,8.4535,8.3731,8.3544,8.2548,8.1606,8.1159,8.0614,7.9185,7.647,7.574,7.4558,7.233,7.401,7.472,7.3604,7.6375,7.768,7.6516,7.7554,7.8152,7.8152,7.8341,7.8467,7.8467,7.8624,7.8719,7.8719,7.9946,8.1499,8.3113,8.39,8.3035,8.071,8.1584,8.147,8.0739,8.051,7.9519,7.7968,7.793,8.1072,8.5471,8.5537,8.5537,8.5537,8.5504,8.2235,7.793,7.7968,7.7968,7.8857,8.4005,8.5508,8.4973,8.2334,8.3501,8.494,8.2301,8.3014,8.4441,8.4908,8.5584,8.6082,8.6073,8.6119,8.6119,8.6119,8.6119,8.6202,8.6202,8.6202,8.625,8.625,8.6459,8.6598,8.6598,8.8322,8.9583,8.9583,9.1613,9.2848,9.2484,9.2981,9.2972,9.22,9.2067,9.1897,9.1532,9.1532,9.1324,9.0907,9.0907,9.0994,9.1046,9.0994,9.1097,9.1653,9.178,9.1885,8.635,8.8512,8.9592,9.3998,9.4537,9.3966,9.3913,9.2059,9.0363,9.0448,8.9046,8.7282,8.5662,8.3898,8.2382,8.1418,8.0235,7.9647,8.0176,7.9366,7.8354,7.7248,7.6768,7.5944,7.4279,7.4484,7.4658,7.4438,7.4957,7.5257,7.5036,7.5225,7.5351,7.5351,7.6484,7.7082,7.7082,7.8152,7.8719,7.8719,7.8971,7.9307,7.9644,8.12,8.192,8.182,8.0846,8.039,8.0091,7.8976,7.8219,7.7923,7.7951,7.8539,7.9462,7.9416,7.9443,7.9482,7.9527,7.8837,7.7948,7.789,7.799,7.8121,7.9207,7.9438,7.9306,7.8839,7.9073,7.9306,7.8839,7.9494,8.0971,8.3444,8.3491,8.2996,8.3032,8.2997,8.2997,8.2997,8.3202,8.3474,8.3474,8.3714,8.3942,8.3942,8.5065,8.5865,8.5865,8.7312,8.8374,8.8374,9.0182,9.1298,9.1256,9.258,9.321,9.3017,9.2766,9.2555,9.2473,9.2102,9.0794,8.8636,8.8566,8.8812,8.9098,8.8734,8.901,8.9868,9.0856,9.1499,8.3217,8.6236,8.8772,9.0885,9.224,9.3042,9.281,9.1699,9.0837,9.113,8.8735,8.638,8.5515,8.3926,8.2454,8.167,8.0581,7.9913,8.007,7.9066,7.8082,7.743,7.5937,7.486,7.4627,7.4183,7.424,7.4969,7.5323,7.5323,7.5032,7.5032,7.4923,7.4627,7.5288,7.5666,7.5666,7.6295,7.661,7.661,7.7642,7.8103,7.8071,7.8193,7.8694,7.9524,7.9139,7.8976,7.891,7.8187,7.7891,7.7924,7.7923,7.7989,7.7922,7.7986,7.7918,7.7918,7.7955,7.7989,7.7956,7.7957,7.7891,7.7891,7.7891,7.7891,7.7957,7.7923,7.7957,7.7989,7.7987,7.8641,7.9935,8.2408,8.2762,8.2516,8.2279,8.2199,8.2279,8.2516,8.2671,8.2867,8.3094,8.3318,8.3356,8.3356,8.4025,8.4518,8.4518,8.6041,8.7144,8.7144,8.8897,9.0041,9.0041,9.0717,9.1069,9.0878,9.0725,9.0528,9.0326,9.0256,8.963,8.8416,8.8186,8.8269,8.8653,8.8465,8.8797,8.9697,9.0285,9.0676,7.9597,8.3582,8.8054,8.9105,9.0637,9.1936,9.2158,9.1553,9.1036,9.1084,8.8479,8.5995,8.5478,8.4491,8.3485,8.2756,8.167,8.0753,8.0597,7.9127,7.8084,7.7824,7.5485,7.4083,7.472,7.42,7.4198,7.4921,7.5479,7.5423,7.4749,7.4613,7.4497,7.4291,7.4309,7.4358,7.4611,7.4596,7.4627,7.4659,7.6172,7.7009,7.7118,7.6367,7.6481,7.7328,7.7825,7.7891,7.7891,7.7891,7.7891,7.7891,7.7891,7.7891,7.7891,7.7891,7.7891,7.7891,7.7891,7.7891,7.7891,7.7891,7.7891,7.7891,7.7891,7.7891,7.7891,7.7891,7.7891,7.7987,7.8254,7.8958,8.003,8.1878,8.2636,8.2826,8.2437,8.2358,8.2437,8.2749,8.2867,8.3019,8.3465,8.3575,8.3647,8.3647,8.3647,8.3647,8.3647,8.4959,8.5917,8.5917,8.7623,8.8726,8.8726,8.9012,8.9083,8.8757,8.8793,8.8645,8.8339,8.7933,8.7871,8.7908,8.7653,8.7763,8.8221,8.8152,8.8523,8.9388,8.9688,8.9833,8.2154,8.4783,8.7394,9.189,9.1108,8.9968,9.2996,9.1033,8.8399,8.7857,8.8049,8.7766,8.585,8.582,8.5453,8.3603,8.2342,8.1623,8.2004,7.9824,7.8373,7.9035,7.7234,7.5768,7.5399,7.5695,7.5255,7.3543,7.3934,7.3662,7.2344,7.2279,7.2533,7.3069,7.3106,7.3523,7.4601,7.4657,7.4627,7.4627,7.4863,7.5317,7.5952,7.7224,7.7793,7.7891,7.7891,7.7891,7.7891,7.7891,7.7891,7.7891,7.7891,7.7891,7.7891,7.7891,7.7891,7.7891,7.7891,7.7891,7.7891,7.7891,7.7891,7.7891,7.7891,7.7891,7.7891,7.7891,7.7891,7.8117,7.9145,7.9956,8.0889,8.2437,8.3054,8.3244,8.2826,8.2749,8.2749,8.2826,8.3094,8.3465,8.3825,8.4176,8.4485,8.4485,8.4485,8.4485,8.4485,8.4592,8.4731,8.4731,8.6158,8.7121,8.7121,8.8405,8.9226,8.9155,8.9155,8.9155,8.9155,8.641,8.5181,8.5635,8.5571,8.6033,8.6894,8.6431,8.662,8.7566,8.8589,8.9374,7.4815,7.8296,8.2173,8.3261,8.5577,8.7907,8.9233,8.9314,8.9058,8.8958,8.8127,8.6748,8.443,8.4668,8.4533,8.2302,8.2353,8.2567,8.2279,8.0907,7.9734,7.9312,7.7483,7.6152,7.5937,7.5674,7.5166,7.4347,7.4782,7.4328,7.2543,7.2349,7.2414,7.2276,7.2269,7.2717,7.3556,7.3543,7.3966,7.4685,7.5237,7.548,7.5366,7.5012,7.5007,7.5359,7.5359,7.5359,7.5359,7.5359,7.5721,7.6183,7.6183,7.697,7.7891,7.7891,7.7891,7.7891,7.7891,7.7891,7.7891,7.7891,7.7891,7.7923,7.798,7.8369,7.8602,7.8108,7.8208,7.8787,7.9644,8.0233,8.1092,8.2972,8.3494,8.3532,8.3279,8.3169,8.3244,8.3465,8.361,8.3896,8.428,8.4485,8.4552,8.4552,8.4552,8.4552,8.4552,8.4552,8.4552,8.4552,8.5123,8.548,8.548,8.6051,8.6407,8.6407,8.6407,8.6407,8.6407,8.5528,8.514,8.5365,8.5599,8.6031,8.6706,8.651,8.6685,8.7306,8.7787,8.8081,7.0189,7.3633,7.7605,7.7647,8.1209,8.4917,8.5807,8.6667,8.7724,8.9396,8.8389,8.6401,8.3598,8.4259,8.4349,8.1492,8.2371,8.3134,8.2358,8.1528,8.0702,7.9947,7.8407,7.7186,7.6798,7.6416,7.5892,7.5076,7.5531,7.4939,7.3054,7.2989,7.2929,7.2867,7.2284,7.2381,7.3158,7.2247,7.2215,7.2994,7.4749,7.5175,7.4614,7.3802,7.3668,7.4016,7.3814,7.3682,7.3715,7.4143,7.4903,7.5888,7.5234,7.6247,7.7856,7.7034,7.7229,7.782,7.6968,7.6641,7.6641,7.6641,7.6839,7.71,7.7109,7.8181,7.9208,7.8848,7.8674,7.8944,8.0159,8.0597,8.1176,8.3235,8.3749,8.3787,8.3645,8.361,8.3682,8.3896,8.4002,8.4107,8.4485,8.4552,8.4552,8.4552,8.4552,8.4552,8.4552,8.4552,8.4552,8.4552,8.4552,8.4552,8.4552,8.4552,8.4552,8.4552,8.4552,8.4619,8.4817,8.523,8.5599,8.5755,8.6031,8.6366,8.6862,8.6862,8.6977,8.7269,8.7269,8.7269,7.1222,7.286,7.4955,7.84,7.9625,8.0725,8.371,8.2983,8.3119,8.8042,8.8792,8.7494,8.3865,8.5212,8.5561,8.1668,8.2371,8.3134,8.2358,8.1528,8.1076,8.1076,8.0476,7.9495,7.8277,7.8564,7.781,7.524,7.5531,7.5195,7.3748,7.3682,7.4049,7.4972,7.3154,7.2575,7.3644,7.075,6.9201,6.9251,7.2465,7.3836,7.3769,7.4614,7.5005,7.4939,7.4016,7.3682,7.3814,7.5195,7.6609,7.7694,7.5822,7.6211,7.7583,7.473,7.5565,7.7555,7.4658,7.3715,7.3715,7.3715,7.4312,7.5034,7.5061,7.7056,7.9536,8.0526,7.9404,7.8453,8.0684,8.0958,8.1141,8.2949,8.3682,8.4002,8.4002,8.4002,8.4002,8.4002,8.4002,8.4107,8.4485,8.4552,8.4552,8.4552,8.4552,8.4552,8.4552,8.4552,8.4552,8.4552,8.4552,8.4552,8.4552,8.4552,8.4552,8.4552,8.4552,8.4817,8.5302,8.5742,8.6164,8.6653,8.6706,8.6913,8.7269,8.7269,8.7269,8.7269,8.7269,8.7269,6.9032,7.1651,7.4554,7.7202,7.7739,7.8817,8.3346,8.4771,8.5816,8.8381,8.8397,8.714,8.4393,8.5271,8.5551,8.2591,8.2447,8.2301,8.1218,7.9898,7.882,7.8061,7.7815,7.7449,7.6752,7.6838,7.6145,7.4406,7.439,7.37,7.2038,7.1516,7.1425,7.167,7.0657,7.0233,7.0626,6.9707,7.0228,7.2289,7.2234,7.2129,7.1971,7.1341,7.1824,7.3163,7.2483,7.2762,7.3715,7.4175,7.4603,7.503,7.5067,7.5037,7.4972,7.4644,7.4279,7.3972,7.3715,7.3261,7.236,7.1102,7.0818,7.1781,7.5838,7.9048,8.1015,7.937,7.8885,7.8474,7.6516,7.7341,7.8988,8.0569,8.1598,8.2653,8.4064,8.4417,8.4417,8.4417,8.4417,8.4417,8.4552,8.4552,8.4552,8.4552,8.4552,8.4552,8.4552,8.4552,8.4552,8.4552,8.4552,8.4552,8.4552,8.4552,8.4552,8.4552,8.4883,8.5293,8.5742,8.62,8.651,8.6706,8.6963,8.7125,8.7269,8.7269,8.7269,8.7269,8.7269,8.7269,6.7945,7.071,7.3331,7.6282,7.4121,7.2772,7.8378,7.9819,8.0664,8.3195,8.4005,8.4015,8.3319,8.4724,8.5025,8.2207,8.1946,8.1515,7.9827,7.8772,7.7885,7.705,7.6972,7.678,7.6473,7.6473,7.6062,7.4991,7.4922,7.4355,7.3026,7.2635,7.2305,7.2139,7.1216,7.0609,7.0383,7.0383,7.1438,7.3556,7.2596,7.2405,7.2716,7.1352,7.1449,7.259,7.1783,7.191,7.272,7.3251,7.376,7.415,7.5306,7.5059,7.4152,7.3852,7.2545,7.1077,7.175,7.1586,7.0757,6.9603,6.9961,7.1594,7.5215,7.7623,7.8611,7.6876,7.6765,7.6828,7.547,7.5971,7.7227,7.9061,8.0399,8.1736,8.3344,8.4124,8.4552,8.4552,8.4552,8.4552,8.4552,8.4053,8.366,8.366,8.3161,8.2804,8.2804,8.2804,8.3018,8.3589,8.366,8.391,8.4481,8.4552,8.465,8.4847,8.5563,8.5938,8.5902,8.658,8.6913,8.6913,8.7125,8.7269,8.7269,8.7269,8.7353,8.7446,8.7472,8.7517,6.7174,6.9346,7.0852,7.4886,6.9345,6.4501,7.0502,7.0319,7.0165,7.4355,7.6838,7.8967,8.0982,8.3341,8.3938,8.0851,8.0799,8.0395,7.8182,7.783,7.7614,7.7274,7.7205,7.7165,7.6971,7.6971,7.6826,7.6456,7.6421,7.6299,7.5856,7.5775,7.5612,7.5199,7.3831,7.2792,7.2235,7.2235,7.2541,7.3284,7.3169,7.3913,7.5248,7.3812,7.3155,7.3271,7.1918,7.1297,7.1466,7.2817,7.3935,7.4804,7.6172,7.6224,7.5068,7.2746,7.0911,6.9539,6.9441,6.9408,6.9408,6.9276,7.1032,7.3362,7.3322,7.3336,7.3373,7.3373,7.3431,7.4014,7.6497,7.6312,7.6039,7.8217,7.9906,8.121,8.2173,8.3518,8.4548,8.4338,8.4302,8.4267,8.4195,8.3018,8.2055,8.2055,8.0842,7.9914,7.9914,7.9914,8.0485,8.1912,8.2055,8.2691,8.4155,8.4328,8.4525,8.5092,8.6036,8.6312,8.5708,8.6633,8.7169,8.7169,8.7279,8.7316,8.7316,8.7316,8.7446,8.7635,8.783,8.7947,6.0781,6.2322,6.392,6.6583,6.6631,6.6923,7.0395,7.0767,7.1254,7.417,7.5619,7.6851,7.8774,8.0083,8.0946,8.1145,7.8674,7.6315,7.515,7.461,7.4209,7.4153,7.4125,7.4265,7.4635,7.4893,7.4994,7.4715,7.4951,7.4851,7.4262,7.3758,7.3278,7.2896,7.2088,7.1554,7.144,7.144,7.1918,7.2803,7.235,7.2631,7.3611,7.2245,7.2529,7.3979,7.3162,7.3223,7.38,7.4137,7.471,7.5299,7.6126,7.7259,7.8061,7.6262,7.4365,7.2466,7.1348,7.1207,7.1174,6.9704,6.9638,7.0219,7.023,7.0252,7.0282,7.0282,7.0983,7.1896,7.2505,7.349,7.5207,7.8142,7.9501,8.0861,8.3435,8.4287,8.4078,8.2519,8.2191,8.187,8.1127,8.0699,8.0449,8.0449,8.0164,7.9914,7.9914,7.9914,8.0057,8.0414,8.0692,8.1045,8.1404,8.1703,8.2235,8.3025,8.3309,8.3528,8.366,8.5168,8.5955,8.5955,8.7007,8.7546,8.7546,8.7546,8.7628,8.7635,8.8025,8.8176,5.6272,5.8282,5.9071,5.4656,5.6141,5.9314,6.1251,6.3397,6.5602,6.7846,6.9695,7.1976,7.5252,7.6078,7.7374,8.0817,7.7886,7.5283,7.5664,7.4427,7.3018,7.1545,7.1899,7.2663,7.381,7.4153,7.4304,7.4569,7.4778,7.461,7.3857,7.3627,7.3288,7.294,7.2508,7.2248,7.1995,7.2327,7.2762,7.3289,7.2975,7.308,7.3496,7.2797,7.3067,7.4153,7.3675,7.3834,7.4357,7.406,7.4556,7.5412,7.58,7.6579,7.733,7.5786,7.4599,7.3328,7.1637,7.1378,7.1416,6.9761,6.9614,7.0033,6.99,6.9979,7.0032,6.99,7.0466,7.1317,7.227,7.3078,7.4115,7.6365,7.7894,7.9609,8.2491,8.31,8.2613,8.1056,8.112,8.1255,8.0692,7.9593,7.8844,7.8844,7.8202,7.78,7.8006,7.797,7.8376,7.9271,7.9539,8.0018,8.0853,8.1145,8.1442,8.204,8.1559,8.1702,8.2683,8.3772,8.4371,8.4371,8.5923,8.6655,8.6692,8.7475,8.7934,8.8099,8.8387,8.8577,5.178,5.3488,5.2527,4.1834,4.3367,4.7974,4.9757,5.3806,5.7819,6.0078,6.2886,6.6271,7.0789,7.1486,7.3185,7.8695,7.6672,7.5133,7.6955,7.551,7.3365,7.0927,6.9993,7.065,7.3602,7.3975,7.4399,7.5098,7.5167,7.4882,7.4184,7.4326,7.4208,7.3922,7.3767,7.3633,7.349,7.4017,7.4215,7.4222,7.4222,7.4193,7.4063,7.4063,7.4063,7.4063,7.3837,7.3904,7.4098,7.3662,7.423,7.5363,7.5151,7.5622,7.6273,7.4464,7.3724,7.3541,7.1887,7.1547,7.1567,7.0031,7.0376,7.1376,7.1026,7.1191,7.1383,7.1129,7.1286,7.1961,7.3811,7.3776,7.363,7.4413,7.5913,7.7808,8.0022,8.0461,8.0227,7.9316,7.9906,8.0505,8.0505,7.8656,7.7264,7.7289,7.6205,7.5485,7.5898,7.597,7.6637,7.8293,7.849,7.9189,8.0741,8.09,8.1059,8.1149,8.0288,8.0344,8.1786,8.2179,8.248,8.2703,8.4375,8.5192,8.5231,8.6943,8.7952,8.8284,8.8699,8.9071,4.4081,4.0572,3.6465,3.2577,3.6118,4.1645,4.5708,5.0419,5.4824,5.8421,6.0891,6.3055,6.5232,6.6169,6.7763,7.1464,7.1519,7.2167,7.5141,7.5225,7.5405,7.6217,6.8019,6.5115,7.2532,7.3751,7.4228,7.468,7.5024,7.4953,7.4397,7.4255,7.4102,7.4028,7.3927,7.437,7.5569,7.5248,7.5081,7.505,7.505,7.4689,7.4063,7.4063,7.4063,7.4063,7.4033,7.4138,7.4445,7.4798,7.5049,7.5127,7.3949,7.6641,8.0709,7.6653,7.5162,7.5081,7.4827,7.4725,7.4396,7.212,7.1997,7.2812,7.2744,7.2733,7.2925,7.325,7.3443,7.3838,7.4788,7.4982,7.4936,7.5062,7.5337,7.571,7.6056,7.6163,7.6128,7.5959,7.6047,7.6168,7.6168,7.5847,7.5681,7.6036,7.5934,7.6074,7.6554,7.6724,7.6901,7.7204,7.7512,7.7875,7.8096,7.8455,7.8803,7.9154,7.8995,7.9027,7.9289,7.9358,8.003,8.1487,8.2959,8.3777,8.3863,8.5616,8.6492,8.6718,8.851,8.9375,3.8371,3.3727,2.9126,2.6378,3.2449,4.0788,4.662,5.0457,5.3885,5.8019,6.0158,6.187,6.4241,6.4057,6.531,7.0819,7.2003,7.3042,7.5318,7.5776,7.6274,7.7452,7.2614,7.0805,7.5104,7.5057,7.4767,7.4936,7.5145,7.5127,7.4895,7.4774,7.4682,7.4693,7.4229,7.3661,7.2982,7.3141,7.3118,7.2943,7.3769,7.3916,7.3466,7.4317,7.4645,7.4645,7.4484,7.4555,7.492,7.5114,7.5192,7.5156,7.4475,7.5467,7.702,7.4928,7.4188,7.4173,7.4116,7.3709,7.2946,7.206,7.2324,7.3078,7.3078,7.3227,7.3558,7.4087,7.4463,7.4807,7.5169,7.5239,7.5238,7.5238,7.5202,7.5227,7.5227,7.5229,7.5226,7.5226,7.5205,7.5356,7.5807,7.5843,7.5916,7.6105,7.6295,7.6628,7.7129,7.7268,7.736,7.7562,7.7758,7.7911,7.8061,7.8311,7.8547,7.8704,7.8704,7.8763,7.8916,7.883,7.9137,8.0078,8.1563,8.2438,8.2622,8.4276,8.5169,8.5396,8.7278,8.7711,3.3622,0.0,2.508,2.1642,2.8731,3.8173,0.0,4.9327,5.3103,5.7137,5.9448,6.1188,6.3095,6.2393,6.3557,6.9832,7.1436,7.2615,7.4643,7.5361,7.6098,7.7063,7.6682,7.6555,7.6999,7.549,7.4456,7.4397,7.4312,7.4181,7.4203,7.3676,7.3422,7.3502,7.2924,7.1935,7.0591,7.112,7.139,7.1254,7.2447,7.2888,7.2654,7.3816,7.4568,7.4926,7.4622,7.4895,7.5499,7.549,7.5477,7.5477,7.5328,7.4555,7.357,7.3576,7.362,7.3528,7.3388,7.2663,7.1875,7.2189,7.2653,7.3149,7.3219,7.3497,7.3904,7.459,7.4991,7.5257,7.5252,7.5241,7.5241,7.5241,7.5241,7.5229,7.5262,7.5241,7.5284,7.5573,7.5386,7.5445,7.6272,7.6395,7.647,7.6526,7.681,7.7181,7.7719,7.7836,7.795,7.8241,7.8278,7.8348,7.8552,7.8755,7.8869,7.8841,7.8859,7.8965,7.914,7.8965,7.8965,7.915,8.0354,8.1026,8.1232,8.2912,8.3841,8.4108,8.581,8.5931,0.0,2.534,2.1985,1.8368,2.2433,2.9067,3.5371,4.3852,0.0,5.458,5.8149,6.03,5.9183,5.9948,6.1645,6.4489,6.5621,6.7428,7.1309,7.2935,7.4275,7.596,7.6291,7.613,7.5453,7.3531,7.2238,7.1982,7.1522,7.1193,7.112,6.9128,6.8108,6.8375,6.8299,6.9173,7.1096,7.1123,7.1487,7.2049,7.2159,7.2013,7.1633,7.1778,7.2648,7.4147,7.4097,7.4945,7.6323,7.6313,7.6292,7.6236,7.5477,7.5133,7.507,7.5099,7.5075,7.4939,7.4239,7.3939,7.3845,7.388,7.3533,7.3149,7.3672,7.3908,7.4199,7.4999,7.5231,7.5257,7.5252,7.5241,7.5241,7.5241,7.5241,7.5204,7.523,7.5213,7.5555,7.6676,7.5959,7.5486,7.6263,7.6379,7.6542,7.7033,7.7347,7.7727,7.8382,7.8547,7.8673,7.8673,7.8673,7.8673,7.8704,7.9037,7.9291,7.9263,7.9291,7.9268,7.931,7.9268,7.9264,7.928,7.9393,7.9469,7.9485,8.1439,8.2442,8.2625,8.4287,8.5053,2.9118,2.5726,2.2735,1.6287,1.7767,2.312,3.2357,4.1908,5.0248,5.5325,5.8614,6.0659,6.0585,6.0991,6.2792,6.7151,6.7849,6.8957,7.2296,7.5132,7.5945,7.3409,7.3473,7.361,7.3198,7.2077,7.1002,7.0083,6.9851,6.9713,6.9676,6.8646,6.8112,6.8331,6.8308,6.8711,6.9438,6.947,6.9475,6.9472,7.0465,7.0662,7.0256,7.1193,7.1935,7.2492,7.2492,7.3399,0.0,7.4328,7.4924,7.6076,7.5502,7.5202,7.5202,7.5186,7.5204,7.5184,7.4873,7.4787,7.4666,7.376,7.3245,7.3108,7.3312,7.4004,7.4634,7.3876,7.4437,7.5212,7.523,7.5248,7.5248,7.5248,7.5209,7.522,7.5241,7.6384,7.7442,7.7666,7.7323,7.7189,7.7746,7.7639,7.7649,7.806,7.8057,7.8196,7.8611,7.8673,7.8704,7.8704,7.8888,7.9002,7.9096,7.9216,7.9323,7.9327,7.9302,7.9402,7.952,7.9364,7.9378,7.9521,7.9521,7.9521,7.9559,8.0297,8.0661,8.0752,8.2452,8.2679,3.109,2.7117,2.3189,1.6027,1.7227,2.2429,3.1346,4.1032,4.9699,5.5325,5.8936,6.1039,6.1083,6.1734,6.3605,6.7852,6.8672,6.9612,7.2113,7.4978,7.5565,7.2109,7.1981,7.2006,7.1582,7.0806,6.9882,6.9033,6.9028,6.902,6.8961,6.8786,6.8648,6.8683,6.8683,6.864,6.8507,6.8544,6.8387,6.809,6.9198,6.9511,6.9094,7.0194,7.0877,7.1246,7.1193,7.2433,7.4403,7.3604,7.4538,7.6419,7.5815,7.5786,7.5929,7.5407,7.5227,7.5248,7.5248,7.5239,7.5063,7.4052,7.3811,7.3746,7.3459,7.4455,7.5193,7.3272,7.3531,7.4415,7.4442,7.3666,7.2878,7.2878,7.3678,7.4569,7.5109,7.6275,7.7381,7.8169,7.832,7.8392,7.8687,7.8499,7.8416,7.868,7.8561,7.836,7.8136,7.8124,7.8151,7.8176,7.875,7.8818,7.7903,7.8347,7.8674,7.8688,7.9227,7.96,7.975,7.9609,7.9647,7.9811,7.9811,7.978,7.9761,7.9763,7.9723,7.9734,8.0895,8.0817,3.5152,2.9178,2.3069,1.799,2.1576,2.7397,3.1809,4.11,4.9987,5.4212,5.8642,6.1391,5.9977,6.1661,6.3725,6.5336,6.673,6.8225,6.993,7.1426,7.2356,7.2473,7.2389,7.1911,7.0852,6.9573,6.8811,6.8811,6.9081,6.9081,6.8849,6.9052,6.9096,6.8833,6.8833,6.8833,6.8809,6.8809,6.8774,6.8603,6.8774,6.8683,6.8404,6.8424,6.9189,7.0545,7.0437,7.2165,7.5149,7.462,7.5657,7.744,7.669,7.689,7.734,7.5835,7.5241,7.5241,7.5241,7.5202,7.5231,7.5231,7.5192,7.5134,7.4317,7.5155,7.588,7.3431,7.271,7.2698,7.2734,7.0281,6.7846,6.7846,7.0326,7.3125,7.4821,7.4532,7.4834,7.8047,7.8706,7.8706,7.8706,7.8723,7.8718,7.8751,7.8702,7.8261,7.6933,7.6744,7.6779,7.6936,7.8312,7.7992,7.4897,7.6302,7.7356,7.7333,7.9038,7.9993,7.987,7.9992,8.007,8.007,8.007,8.0028,7.989,7.989,7.9825,7.9685,7.9685,7.9685,4.2651,3.5937,2.906,2.252,2.3061,2.6651,3.2367,4.1196,4.9695,5.5322,5.9358,6.1834,6.207,6.3215,6.5335,6.9052,6.8055,6.7846,7.0863,7.2032,7.1784,6.9611,7.1744,7.2445,7.0017,6.9474,6.9218,6.9218,6.9308,6.9248,6.9126,6.9426,6.9534,6.935,6.9339,6.9326,6.9231,6.9231,6.9215,6.9164,6.9204,6.9085,6.8824,6.8747,6.8826,6.905,6.8917,7.0067,7.1988,7.2574,7.3856,7.5575,7.6331,7.6831,7.6996,7.6907,7.6503,7.5979,7.5431,7.5216,7.5227,7.5227,7.5238,7.5227,7.5373,7.4904,7.4597,7.5767,7.3967,7.1762,7.2531,7.0285,6.7828,6.7843,6.9881,7.2135,7.2975,7.4481,7.583,7.6537,7.7942,7.9036,7.9136,7.9128,7.9155,7.9141,7.9216,7.8591,7.6624,7.5657,7.5166,7.5182,7.5865,7.5879,7.4868,7.5361,7.5663,7.5583,7.6106,7.69,7.8083,7.8144,7.8742,7.9918,7.9869,7.978,7.9758,7.9751,7.9747,7.9711,7.9605,7.9605,4.9417,4.5305,3.975,3.034,2.8114,2.9508,3.4699,4.2428,5.0285,5.6384,6.0093,6.265,6.3526,6.5122,6.7229,6.9966,6.9694,6.9639,7.0987,7.1756,7.1185,6.8588,7.0388,7.1175,6.9401,6.9343,6.9386,6.9326,6.9348,6.9304,6.9126,6.9438,6.958,6.9514,6.9514,6.9504,6.9461,6.9461,6.9473,6.948,6.9508,6.9426,6.9184,6.9068,6.8931,6.8724,6.8492,6.9296,7.0863,7.2097,7.3517,7.5087,7.6452,7.7125,7.726,7.7457,7.7173,7.652,7.5552,7.522,7.5256,7.5252,7.5543,7.6005,7.6372,7.5884,7.5337,7.6562,7.4982,7.2986,7.2948,7.1028,6.8921,6.8312,6.9316,7.0727,7.1719,7.3365,7.4722,7.5073,7.6221,7.7186,7.7291,7.7345,7.7396,7.7463,7.6946,7.6126,7.4897,7.4112,7.3668,7.3666,7.316,7.2762,7.268,7.3348,7.3766,7.3704,7.4311,7.5145,7.6168,7.687,7.7695,7.8718,7.9254,7.9534,7.9533,7.9377,7.9385,7.946,7.9106,7.915,5.4855,5.4853,5.1936,3.9838,3.5683,3.5341,3.8582,4.4741,5.1453,5.7113,6.0924,6.3554,6.4434,6.6912,6.8873,6.9091,7.1138,7.2163,7.054,7.073,7.0389,6.8705,6.8621,6.8771,6.8886,6.9154,6.9233,6.912,6.9229,6.919,6.8908,6.911,6.9263,6.9253,6.929,6.9365,6.9493,6.9537,6.958,6.9571,6.9739,6.9657,6.9422,6.9426,6.9323,6.9201,6.8836,6.9516,7.1067,7.2542,7.4163,7.5799,7.6931,7.7581,7.7912,7.7699,7.7442,7.6974,7.58,7.5329,7.5262,7.5363,7.611,7.7064,7.7299,7.747,7.7347,7.6316,7.5938,7.5492,7.3931,7.2291,7.0643,6.9181,6.8859,6.9261,7.0834,7.1561,7.2291,7.3628,7.4102,7.4307,7.4324,7.4426,7.4549,7.4653,7.3232,7.2211,7.2465,7.232,7.2211,7.2231,7.0522,6.9402,6.9388,7.0801,7.1685,7.1671,7.3122,7.4068,7.4219,7.568,7.6573,7.6739,7.8259,7.9062,7.9024,7.8835,7.8852,7.9015,7.8411,7.8531,5.5294,5.4222,5.2079,4.4935,4.3016,4.3085,4.3873,4.8073,5.3122,5.7417,6.1223,6.4083,6.5006,6.6337,6.7909,6.9658,6.9125,6.8867,6.9798,6.9072,6.8209,6.7625,6.7761,6.794,6.8062,6.8322,6.8479,6.8458,6.8654,6.8526,6.7971,6.8109,6.816,6.8175,6.8368,6.8617,6.8838,6.911,6.9384,6.9587,6.9743,6.9701,6.9542,6.9533,6.948,6.9327,6.9021,6.9148,6.959,7.1571,7.4413,7.7548,7.7507,7.7559,7.7721,7.8283,7.843,7.8206,7.7019,7.6014,7.5372,7.6177,7.6755,7.7185,7.7443,7.7558,7.7608,7.7864,7.6986,7.5867,7.5531,7.3329,7.1157,7.0694,6.986,6.9231,6.9708,7.0936,7.2049,7.243,7.3624,7.4612,7.4835,7.4898,7.4909,7.4935,7.3425,7.2273,7.2354,7.1004,7.0065,7.0058,6.9667,6.9398,6.9408,6.9722,6.9927,6.9936,7.0275,7.1067,7.2406,7.2728,7.3463,7.4802,7.6475,7.7171,7.686,7.8119,7.8568,7.835,7.8217,7.8249,5.5752,5.4618,5.3184,5.0428,4.9563,4.9505,4.9891,5.2429,5.5642,5.9133,6.2036,6.436,6.5813,6.7492,6.8714,6.8923,6.8945,6.8797,6.8459,6.7487,6.6676,6.6388,6.6179,6.6057,6.6143,6.6824,6.7258,6.7192,6.7873,6.771,6.6391,6.6404,6.6698,6.7265,6.7408,6.771,6.8246,6.8449,6.8801,6.9339,6.9375,6.9421,6.9505,6.9478,6.9509,6.9467,6.9202,6.9146,6.9384,7.2059,7.429,7.6121,7.7571,7.8224,7.8473,7.9089,7.9084,7.8551,7.7414,7.6577,7.6244,7.7353,7.7811,7.7956,7.8068,7.8137,7.8194,7.8539,7.8109,7.7338,7.6196,7.3929,7.1841,7.1589,7.0485,6.9505,6.9587,7.0347,7.0992,7.1001,7.1782,7.2452,7.2582,7.2589,7.259,7.262,7.1744,7.1096,7.1124,7.0017,6.9241,6.9297,6.9241,6.9181,6.9224,6.9104,6.902,6.9048,6.8836,6.9158,7.0045,7.0777,7.16,7.2487,7.4151,7.5294,7.5845,7.6568,7.7316,7.7948,7.7723,7.7763,5.4648,5.4487,5.4216,5.4854,5.5008,5.5147,5.5881,5.7016,5.8731,6.1422,6.3092,6.4562,6.6417,6.8349,6.9263,6.8036,6.9404,6.9757,6.7418,6.6645,6.5921,6.4859,6.4277,6.3965,6.3965,6.5041,6.5736,6.5671,6.6654,6.6415,6.4576,6.4557,6.5076,6.603,6.6077,6.6485,6.7264,6.7339,6.783,6.871,6.8734,6.89,6.9223,6.9172,6.9251,6.9412,6.9196,6.9153,6.9436,7.224,7.3217,7.326,7.6093,7.7413,7.7865,7.9364,7.9523,7.8794,7.7659,7.7287,7.7388,7.8177,7.8458,7.8496,7.8735,7.8848,7.8853,7.8933,7.912,7.8705,7.6215,7.3833,7.1975,7.1647,7.0671,6.982,6.982,6.9904,6.9928,6.9859,6.9905,6.9969,6.997,6.9965,6.995,6.9917,6.982,6.9724,6.9724,6.9198,6.8864,6.8997,6.8891,6.8808,6.878,6.8566,6.8442,6.841,6.8137,6.7925,6.7925,6.9291,7.003,7.003,7.1655,7.3134,7.4387,7.4772,7.5692,7.7115,7.6994,7.7284,4.9016,5.1477,5.3801,5.5431,5.8044,6.0327,6.0766,6.1584,6.2593,6.4025,6.4373,6.4819,6.5977,6.6177,6.6689,6.8391,6.9348,6.946,6.8082,6.7785,6.6501,6.3041,6.2512,6.2512,6.2512,6.3146,6.3636,6.387,6.458,6.4281,6.2644,6.3135,6.352,6.3609,6.3609,6.4107,6.4988,6.5306,6.6151,6.7485,6.7622,6.7984,6.8534,6.8323,6.8422,6.8774,6.8695,6.8627,6.8608,6.9496,6.996,7.0199,7.0887,7.1157,7.1931,7.7863,8.0004,7.9787,7.8814,7.8502,7.8373,7.7466,7.7293,7.7609,7.8857,7.9302,7.9447,7.9685,7.9534,7.8599,7.542,7.2502,7.0307,7.0238,7.0094,6.9955,6.9955,6.9943,6.9965,6.997,6.9968,6.9962,6.998,6.9971,6.9917,6.9677,6.9541,6.9452,6.9458,6.8683,6.8168,6.8201,6.8168,6.8063,6.7816,6.7817,6.7708,6.7595,6.7557,6.7518,6.7518,6.7738,6.7848,6.7848,6.9393,7.0227,7.0216,7.3206,7.4624,7.46,7.619,7.7027,4.3863,4.6659,5.0355,5.4291,5.8101,6.1357,6.296,6.3771,6.4429,6.5191,6.4928,6.4887,6.5991,6.5944,6.5715,6.5641,6.6266,6.6248,6.4936,6.4515,6.3745,6.2143,6.1792,6.1646,6.1646,6.2616,6.2942,6.238,6.2379,6.1733,6.0202,6.0386,6.0792,6.133,6.1516,6.2042,6.2835,6.3755,6.4846,6.5943,6.6044,6.6519,6.7413,6.7339,6.7448,6.7742,6.768,6.7745,6.8012,6.8151,6.8278,6.8413,6.8769,6.8875,6.9218,7.2215,7.3468,7.3796,7.4771,7.3932,7.2332,7.1981,7.3369,7.5321,7.5928,7.647,7.73,7.9324,7.7042,7.3646,7.2301,7.0963,6.997,6.997,6.997,6.9965,6.998,6.9862,6.9781,6.9761,6.9706,6.9603,6.9453,6.9426,6.9331,6.9091,6.8946,6.8786,6.8547,6.8122,6.7817,6.7817,6.7745,6.7671,6.7671,6.7369,6.7206,6.7119,6.6812,6.6587,6.6587,6.6282,6.6151,6.6151,6.6799,6.7543,6.8276,7.0731,7.2261,7.2996,7.4722,7.5569,4.0807,4.3225,4.6992,5.255,5.6826,6.0476,6.3505,6.4687,6.5285,6.5911,6.531,6.4976,6.5939,6.5689,6.4994,6.3989,6.422,6.4164,6.2889,6.2585,6.2279,6.1725,6.1688,6.1651,6.1608,6.2483,6.2448,6.0906,6.0296,5.9267,5.764,5.7523,5.7863,5.8478,5.8968,5.9378,5.9733,6.1386,6.2928,6.415,6.4001,6.4614,6.5874,6.5767,6.6123,6.692,6.6999,6.7051,6.7146,6.7045,6.7149,6.7427,6.7754,6.7857,6.7808,6.7688,6.7834,6.8323,7.0132,6.9345,6.7604,6.815,7.0428,7.3033,7.3538,7.3872,7.4553,7.6463,7.3425,6.9659,6.9892,6.9965,6.9942,6.9913,6.9791,6.9764,6.9894,6.9679,6.9426,6.9426,6.9354,6.9219,6.9051,6.8951,6.8804,6.8545,6.8461,6.8197,6.7555,6.7476,6.744,6.733,6.728,6.7312,6.7283,6.6791,6.6469,6.6423,6.5865,6.5522,6.5522,6.5127,6.4905,6.4905,6.4905,6.549,6.6678,6.8292,6.9908,7.143,7.3085,7.4042,4.1312,4.2867,4.5027,5.0455,5.456,5.8246,6.2309,6.4255,6.5352,6.6265,6.5715,6.5211,6.5627,6.4605,6.4109,6.5367,6.5413,6.4997,6.4185,6.4782,6.4288,6.1557,6.2236,6.2779,6.2575,6.2678,6.18,5.9368,5.8517,5.7147,5.5118,5.4935,5.4845,5.4845,5.5608,5.5698,5.4999,5.7514,5.9863,6.2008,6.1355,6.2006,6.3698,6.3215,6.4261,6.6518,6.7159,6.6832,6.5824,6.5822,6.6403,6.7268,6.73,6.7297,6.7271,6.675,6.655,6.659,6.6604,6.7076,6.7831,6.9254,7.0213,7.1222,7.3115,7.3011,7.1831,6.9754,6.9134,6.9163,6.9831,6.997,6.992,6.968,6.9301,6.9188,6.968,6.9384,6.9059,6.9059,6.9031,6.9034,6.9014,6.8798,6.848,6.8112,6.8268,6.7958,6.6715,6.6748,6.6748,6.6376,6.6676,6.6763,6.6378,6.5747,6.5344,6.5213,6.4726,6.4433,6.4433,6.4433,6.4373,6.4373,6.4373,6.4408,6.4478,6.6331,6.8057,6.9583,7.1395,7.304,3.8792,4.127,4.4273,4.9265,5.2632,5.5759,5.9885,6.1874,6.3178,6.4339,6.4008,6.366,6.4121,6.2597,6.104,6.022,5.9702,5.9224,5.8733,5.9762,6.0618,6.0946,6.2177,6.2938,6.2846,6.1461,5.959,5.7347,5.5774,5.43,5.2946,5.2521,5.2592,5.3407,5.3698,5.3861,5.3964,5.5426,5.6645,5.7626,6.0226,6.1693,6.2082,6.2758,6.291,6.2823,6.4114,6.5064,6.5636,6.489,6.5087,6.5861,6.589,6.6233,6.6732,6.6566,6.6503,6.6136,6.3695,6.4298,6.6188,6.7285,6.8434,6.9897,7.2718,7.1757,6.9629,6.9041,6.8461,6.8199,6.9146,6.9335,6.9317,6.9239,6.9091,6.9048,6.9245,6.8923,6.864,6.8648,6.8298,6.7992,6.8023,6.7742,6.7411,6.7056,6.7088,6.6914,6.6115,6.609,6.6172,6.6295,6.5557,6.5271,6.5591,6.4574,6.4019,6.4209,6.3075,6.2652,6.2992,6.1966,6.189,6.2955,6.2376,6.207,6.214,6.4083,6.5617,6.6686,6.8763,7.0702,3.6941,4.0303,4.3865,4.8707,5.1592,5.416,5.7746,5.9722,6.1086,6.2348,6.2588,6.2504,6.2804,6.1171,5.9196,5.7183,5.5943,5.5275,5.5303,5.6546,5.8229,6.0478,6.1837,6.2743,6.288,5.9643,5.6707,5.482,5.2573,5.1063,5.0562,4.9583,4.9449,5.0138,5.0847,5.0999,5.0804,5.2448,5.3514,5.4112,5.8291,5.9844,5.9246,6.0158,6.0,5.9286,6.0166,6.089,6.1385,5.8653,5.9916,6.369,6.4251,6.4504,6.4691,6.4983,6.4267,6.2993,6.2053,6.3281,6.5346,6.558,6.6243,6.7534,6.9894,6.9207,6.7636,6.784,6.7376,6.7097,6.8155,6.8696,6.8995,6.8993,6.8724,6.844,6.8201,6.7958,6.7706,6.756,6.7133,6.6884,6.6853,6.6561,6.6259,6.6067,6.6031,6.5714,6.4953,6.5379,6.5555,6.5279,6.4142,6.3705,6.4492,6.3243,6.2584,6.2946,6.1691,6.1032,6.1445,6.0158,6.0055,6.1418,6.0432,6.0125,6.0235,6.1649,6.3101,6.4575,6.6169,6.8135,3.6366,4.0277,4.4038,4.8939,5.1541,5.3553,5.6276,5.7989,5.9336,6.0569,6.1516,6.211,6.1804,6.048,5.861,5.6676,5.4638,5.3618,5.4587,5.6,5.7763,6.0032,6.1261,6.2031,6.2275,5.7113,5.3185,5.1666,4.8833,4.7435,4.7839,4.6099,4.5179,4.5203,4.6918,4.7031,4.5179,4.8456,5.0512,5.1498,5.5096,5.6286,5.5124,5.5145,5.5578,5.6185,5.5334,5.4304,5.2983,4.733,5.1014,6.0455,6.2247,6.2103,6.1001,6.1733,5.9732,5.7093,6.127,6.3838,6.507,6.3851,6.3465,6.3697,6.4667,6.5402,6.5835,6.5628,6.5589,6.5862,6.6877,6.8007,6.8902,6.8943,6.8137,6.7177,6.6551,6.6441,6.6255,6.574,6.5637,6.5607,6.5635,6.5415,6.5208,6.5109,6.5053,6.4543,6.3254,6.4566,6.4976,6.3277,6.226,6.2126,6.2945,6.1661,6.0925,6.1374,6.0366,5.9768,5.9768,5.9194,5.9194,5.9689,5.8724,5.8478,5.9065,5.9097,6.0511,6.3363,6.3706,6.5455,4.1763,4.6331,4.6612,5.0835,5.4306,5.6603,5.6459,5.852,6.0369,6.0074,6.0607,6.1177,6.1494,5.8096,5.4269,5.128,5.0348,5.0443,5.2093,5.4185,5.6001,5.7221,5.8261,5.8018,5.5665,5.1392,4.8639,4.8197,4.4683,4.287,4.3464,4.2582,4.2221,4.2774,4.3747,4.4007,4.344,4.6238,4.7091,4.6153,4.8485,5.1229,5.4035,5.4091,5.1896,4.8121,4.782,4.7547,4.7329,4.7536,4.9306,5.2375,5.6701,5.8325,5.8209,5.8305,5.703,5.5212,5.5547,5.5912,5.5912,5.3549,5.2791,5.3954,6.0031,6.3693,6.524,6.2754,6.2859,6.38,6.4078,6.5344,6.6847,6.7688,6.6595,6.5418,6.5719,6.5262,6.4595,6.3981,6.4106,6.4118,6.367,6.4139,6.4551,6.4467,6.3306,6.2176,6.1471,6.2538,6.2653,6.0805,6.0573,6.042,5.9941,5.9553,5.9483,5.986,5.7894,5.6712,5.6501,5.5699,5.5426,5.5756,5.6389,5.7304,5.8384,5.889,6.0296,6.2536,6.3078,6.4743,3.3908,4.2666,4.6871,5.1028,5.4345,5.6955,5.8131,5.958,6.0739,6.0574,6.0748,6.0705,5.9984,5.6583,5.3055,5.0348,4.8782,4.8618,5.0677,5.2168,5.3549,5.5133,5.3427,5.1069,4.8447,4.6425,4.5058,4.4678,4.172,4.0208,4.1005,4.031,4.0084,4.039,4.1417,4.1782,4.1417,4.3886,4.4547,4.3535,4.5167,4.7407,4.996,4.996,4.9504,4.8405,4.5963,4.4912,4.5074,4.6443,4.9022,5.2307,5.6591,5.805,5.7331,5.3994,5.2455,5.1914,4.9812,4.9669,4.9936,4.8398,4.7831,4.9015,5.4849,5.7563,5.8451,5.7931,5.9774,6.201,6.2008,6.3292,6.484,6.5527,6.4418,6.3262,6.3392,6.3366,6.3066,6.2209,6.2411,6.2614,6.1973,6.2717,6.3117,6.2582,6.1596,6.0557,5.9637,6.0427,6.0626,5.9391,5.935,5.8952,5.7804,5.7054,5.6748,5.6887,5.5303,5.4178,5.3773,5.3016,5.2691,5.2756,5.3578,5.4631,5.582,5.6661,5.8325,6.0778,6.1367,6.2442,2.0683,3.5028,4.6621,5.082,5.3443,5.5991,0.0,6.0854,6.0819,6.1531,6.1526,6.0685,5.8656,5.6266,5.4036,5.2421,4.9603,4.8242,5.0055,5.0223,5.0873,5.289,4.7565,4.3153,4.1549,4.182,4.1756,4.0963,3.9212,3.8471,3.9401,3.8555,3.7976,3.7949,3.9508,3.997,3.9212,4.1358,4.2494,4.2445,4.3625,4.4385,4.4584,4.4597,4.7376,5.2053,4.6489,4.4146,4.4199,4.4244,4.8732,5.564,5.8198,5.8168,5.582,4.9203,4.7254,4.7552,4.5004,4.522,4.6573,4.6941,4.7002,4.751,5.0187,5.0094,4.9661,5.2947,5.6664,5.9668,5.9821,6.1376,6.2983,6.3136,6.2118,6.103,6.0527,6.103,6.1349,6.0247,6.056,6.0839,6.0478,6.1112,6.1238,6.0191,5.997,5.948,5.8154,5.8599,5.8937,5.8567,5.8357,5.7609,5.6174,5.4591,5.3534,5.332,5.262,5.1976,5.1438,5.0847,5.0507,5.0397,5.0772,5.1502,5.2681,5.3784,5.5647,5.8452,5.8951,5.9223,0.0,0.0,0.0,0.0,0.0,0.0,0.0,6.0398,6.2174,6.124,6.1599,6.2011,6.1561,5.8769,5.5999,5.4382,5.3104,5.1895,5.0555,5.034,4.9275,4.6585,4.2837,3.9872,3.8221,3.7094,3.6421,3.6271,3.5848,3.565,3.5489,3.5253,3.5017,3.4809,3.5864,3.6322,3.6206,3.8316,3.9296,3.8993,3.9348,4.0848,4.3001,4.2498,4.2827,4.3836,4.0826,3.9572,3.9651,4.0566,4.3745,4.8134,4.9902,4.7773,4.384,4.5657,4.4708,4.2733,4.4594,4.5005,4.5163,4.7442,4.8099,4.8374,4.9788,5.0961,5.2184,5.4602,5.4234,5.3513,5.4727,5.8108,6.1461,6.2762,6.1243,5.9614,5.9935,5.9257,5.8351,5.7599,5.7968,5.8579,5.8887,5.9749,5.9937,5.8555,5.8702,5.8867,5.8587,5.8147,5.7751,5.7373,5.6725,5.5729,5.4492,5.2946,5.1919,5.1298,5.0138,4.9476,4.9369,4.8883,4.8583,4.8557,5.0054,5.1571,5.2853,5.3925,5.5204,5.6849,5.6969,5.6985,0.0,0.0,0.0,0.0,0.0,0.0,0.0,0.0,0.0,0.0,0.0,6.1328,6.0519,0.0,5.7074,5.5531,5.4822,5.3465,5.0715,4.9522,4.7861,4.5227,4.2797,4.0221,3.735,3.6271,3.5717,3.5717,3.4702,3.4088,3.3949,3.3637,3.3273,3.2711,3.4408,3.5191,3.49,3.724,3.8677,3.9032,3.8513,3.9381,4.1289,3.9572,3.8621,3.8304,3.7136,3.7177,3.7925,3.7657,3.8471,4.0065,4.1652,4.144,4.0421,4.1484,4.1739,4.1811,4.1654,4.2762,4.4286,4.6101,4.7313,4.8238,5.0128,5.168,5.3038,5.3452,5.1884,5.0229,5.0907,5.3481,5.5951,5.6088,5.6005,5.5876,5.5479,5.5577,5.5487,5.5055,5.5669,5.642,5.6836,5.7006,5.7061,5.7017,5.7254,5.7373,5.7285,5.6902,5.6201,5.4845,5.4345,5.3522,5.1975,5.0466,4.9691,4.9899,4.853,4.7702,4.7393,4.7082,4.7048,4.7401,4.8817,5.0298,5.1914,5.2904,5.4233,5.566,5.393,5.383,0.0,0.0,0.0,0.0,0.0,0.0,0.0,0.0,0.0,0.0,0.0,0.0,0.0,0.0,0.0,5.7153,5.5948,5.4212,5.1429,4.9028,4.7098,4.572,4.3741,4.1124,3.7902,3.678,3.6135,3.5985,3.4474,3.3289,3.2756,3.2385,3.1837,3.1239,3.3081,3.3999,3.3668,3.5834,3.7421,3.846,3.769,0.0,3.8867,3.6709,3.549,3.5262,3.4824,3.5649,3.7079,3.556,3.4484,3.3949,3.4695,3.6718,3.9278,3.7189,3.8381,4.0706,3.8458,4.0032,4.3189,4.4536,4.58,4.7275,5.0064,5.1615,0.0,5.1402,4.97,4.8016,4.8212,4.8772,4.9127,4.8374,5.0078,5.166,5.0743,5.1789,5.279,5.2407,5.3172,5.4112,5.4864,5.4171,5.3773,5.4881,5.5457,5.5608,5.5244,5.5456,5.4941,5.2845,5.2515,5.158,4.9484,4.7641,4.6947,4.7715,4.622,4.5121,4.4801,4.4687,4.4854,4.5473,4.683,4.847,5.0196,5.1448,5.2729,5.4171,5.0189,4.9639,0.0,0.0,0.0,0.0,0.0,0.0,0.0,0.0,0.0,0.0,0.0,0.0,0.0,0.0,0.0,0.0,5.7715,5.4949,5.3609,5.034,4.7487,4.5845,4.2675,4.0296,3.942,3.7317,3.5664,3.4702,3.3904,3.2572,3.0437,3.0248,0.0,0.0,0.0,3.0084,3.1253,3.1379,3.2214,3.3868,3.3867,3.4407,3.5146,3.418,3.462,3.5972,3.4356,3.462,3.6165,3.5042,3.44,3.4041,3.0901,3.2018,3.5298,3.3669,3.4029,3.5508,3.6624,0.0,0.0,4.3454,4.4305,4.5046,4.8259,4.8835,4.858,4.9916,4.8057,4.5819,4.6611,4.4936,4.3293,4.4273,4.6502,4.8477,4.9101,4.9583,4.9851,4.9771,5.0247,5.1336,5.3183,5.225,5.1239,5.1163,5.2818,5.3843,5.2975,5.4246,5.4641,5.3145,5.2629,0.0,4.792,4.4767,4.3187,4.3582,4.1087,3.9994,4.0833,4.0362,4.0375,4.1301,4.3937,4.6048,4.7503,4.9206,5.0705,5.1804,4.5509,4.387,0.0,0.0,0.0,0.0,0.0,0.0,0.0,0.0,0.0,0.0,0.0,0.0,0.0,0.0,0.0,0.0,5.8063,5.5789,5.6574,5.352,5.0135,4.7616,4.4659,4.2117,4.0339,3.8958,3.7554,3.6129,3.3697,3.18,3.0359,2.8469,2.7604,2.8101,2.8334,2.9052,3.0453,3.0923,3.1596,3.2369,3.2432,3.2974,3.4012,3.2956,3.3496,3.5183,3.2726,3.242,3.3483,3.1424,3.163,3.3078,0.0,0.0,0.0,0.0,3.3223,3.4928,3.5856,3.773,4.0046,4.3798,4.4947,4.5228,4.6594,4.6771,4.6771,4.8443,4.6295,4.372,4.4341,4.3926,4.361,4.5035,4.6826,4.8269,4.8976,4.9468,4.9634,4.9634,4.9837,0.0,4.9655,4.9447,4.9603,5.0939,5.1906,5.2784,5.352,5.3829,5.3192,5.1245,4.9913,4.7757,4.4203,4.2721,0.0,0.0,0.0,4.0165,3.9177,3.9341,0.0,0.0,0.0,4.2147,4.5148,4.4405,0.0,0.0,4.4921,4.368,0.0,0.0,0.0,0.0,0.0,0.0,0.0,0.0,0.0,0.0,0.0,0.0,0.0,0.0,0.0,0.0,5.9656,5.7882,5.8645,5.6307,5.2958,4.8963,4.7287,4.5118,4.1577,4.0614,3.924,3.7019,3.4081,3.1655,2.9888,2.7411,2.6262,2.6739,2.7112,2.7987,2.93,3.0034,3.076,3.134,3.1306,3.2138,3.3539,3.2256,3.2659,3.4197,3.1613,3.0884,3.1339,2.8785,2.9315,3.1295,2.8894,2.8729,2.9958,3.0699,3.1776,3.3158,3.5149,3.744,3.9883,4.3042,4.4152,4.4194,4.4068,4.4297,4.4714,4.5916,4.4492,4.2588,4.295,4.3542,4.4159,4.5309,4.6607,4.752,4.7898,4.8274,4.85,4.8383,4.8826,4.8725,4.7637,4.7544,4.8263,5.0016,5.0823,5.1558,5.2708,5.2686,5.1665,4.9008,4.7209,4.4561,4.0438,3.9448,3.807,3.5669,3.6868,3.6806,3.5012,3.506,3.5501,3.6224,3.6405,3.8231,0.0,0.0,0.0,0.0,0.0,0.0,0.0,0.0,0.0,0.0,0.0,0.0,0.0,0.0,0.0,0.0,0.0,0.0,0.0,0.0,0.0,0.0,0.0,0.0,5.9447,5.8229,5.5385,4.9451,5.0229,4.9028,4.331,4.1947,4.0093,3.6394,3.4947,3.2355,2.8043,2.7825,2.6867,2.5033,2.5099,2.5793,2.7122,2.7367,2.8444,3.0123,3.0123,3.134,3.3369,3.2256,3.2385,3.3361,3.1337,3.0573,3.0596,2.8629,2.8204,2.88,2.8025,2.8096,2.8613,2.864,2.826,2.8409,3.4271,3.7953,3.9993,4.0195,4.0203,4.028,4.028,4.0933,4.1746,4.1726,4.2309,4.2966,4.3309,4.341,4.3454,4.3454,4.4293,4.4995,4.4995,4.4995,4.5103,4.508,4.6327,4.7734,4.8269,4.7531,4.7058,4.7285,4.8992,0.0,4.8907,5.039,5.0297,4.687,4.5457,4.2683,3.7339,3.4382,3.1948,3.0157,2.8007,2.6751,2.6312,2.5004,2.4179,2.3534,3.0246,3.4873,3.6946,0.0,0.0,0.0,0.0,0.0,0.0,0.0,0.0,0.0,0.0,0.0,0.0,0.0,0.0,0.0,0.0,0.0,0.0,0.0,0.0,0.0,0.0,0.0,0.0,5.7645,5.5335,4.8589,4.8245,4.6959,4.2619,4.2881,4.239,4.0225,3.8359,3.5766,3.211,2.8489,2.6339,2.5807,2.57,2.6453,2.7867,3.0089,3.1108,3.0967,3.2334,3.3194,3.3521,3.2256,3.1835,3.2059,2.9619,2.8552,2.8471,2.7701,2.775,2.8283,2.8531,2.9397,3.0289,2.9776,3.0071,3.111,3.3099,3.4255,3.5582,3.893,4.0068,3.9978,3.9978,4.0315,4.0836,4.2242,4.2923,4.3505,4.41,4.3868,4.3755,4.446,4.4881,4.5299,4.6086,4.6635,4.6997,4.7044,4.5335,4.4725,4.6932,4.7108,4.7285,4.8472,4.9712,5.0376,5.0076,4.9853,4.8533,4.5581,4.216,3.8429,3.4475,3.2651,3.0554,2.754,2.7416,2.7053,2.6027,2.3091,2.1016,1.9653,2.552,3.0268,3.374,0.0,0.0,0.0,0.0,0.0,0.0,0.0,0.0,0.0,0.0,0.0,0.0,0.0,0.0,0.0,0.0,0.0,0.0,0.0,0.0,0.0,0.0,0.0,0.0,0.0,0.0,5.2446,5.1886,0.0,4.5159,4.4639,4.3578,4.0862,3.8435,3.6041,3.3447,2.9459,2.7486,2.7715,2.7614,2.8085,2.9592,3.2005,3.3283,3.3408,3.4382,3.4962,3.4923,3.3783,3.2646,3.156,2.9752,2.836,2.7425,2.906,2.9162,2.8389,2.9776,3.0313,3.0402,3.1368,3.2277,3.3204,3.4336,3.4928,3.5874,4.0395,4.0427,3.9258,4.1243,4.1044,4.058,4.2308,4.3066,4.3556,4.452,4.413,4.3839,4.4855,4.4855,4.4978,4.5938,4.5813,4.566,4.6031,4.5507,4.5608,4.7607,4.7859,4.8266,4.9622,5.011,5.0347,5.0336,4.8994,4.6749,4.3203,3.8678,3.4622,3.1136,2.9071,2.6351,2.2286,2.2177,2.1698,2.0344,1.5861,1.3284,1.2812,1.9346,2.5667,0.0,0.0,0.0,0.0,0.0,0.0,0.0,0.0,0.0,0.0,0.0,0.0,0.0,0.0,0.0,0.0,0.0,0.0,0.0,0.0,0.0,0.0,0.0,0.0,0.0,0.0,0.0,6.0317,5.9966,0.0,0.0,0.0,0.0,3.9066,3.6123,3.3981,3.245,3.0577,2.9911,3.0593,3.0084,3.066,3.2163,3.3449,3.5166,3.7444,3.6352,3.6474,3.7813,3.6474,3.4543,3.2005,3.1988,3.0263,2.7882,3.2114,3.1949,2.9196,3.1532,3.0906,2.9179,3.3436,3.4689,3.4743,3.7941,3.9267,4.041,4.3963,4.1281,3.7697,4.3251,4.2811,0.0,0.0,4.2505,4.3251,4.4209,4.3879,4.3506,4.4337,4.4068,4.3631,4.4502,4.2783,4.142,4.223,4.6566,5.0043,4.9521,0.0,4.9638,5.0426,5.018,4.9878,4.9563,4.7861,4.4646,3.9596,3.531,3.1152,2.6888,2.3205,1.9109,1.4485,1.2498,1.0695,0.9083,0.3293,0.0874,0.2489,1.0594,0.0,0.0,0.0,0.0,0.0,0.0,0.0,0.0,0.0,0.0,0.0,0.0,0.0,0.0,0.0,0.0,0.0,0.0,0.0,0.0,0.0,0.0,0.0,0.0,0.0,0.0,6.1301,6.0482,5.8645,5.6646,5.4555,0.0,0.0,0.0,0.0,0.0,0.0,3.6904,3.2575,3.0591,3.1483,3.0442,3.1954,3.6612,3.8445,4.0398,4.2227,4.1288,4.1092,4.1286,3.8169,3.6333,3.5658,3.4179,3.2694,3.158,3.2438,3.2579,3.2118,3.2956,3.273,3.2507,3.5451,3.598,3.5879,4.1149,4.0065,3.7637,4.6012,4.2761,3.622,4.0199,0.0,0.0,0.0,0.0,4.104,4.2227,4.1524,4.0838,4.2486,4.2227,4.2104,4.3487,4.3086,4.2921,4.4402,4.9669,5.201,4.6021,4.7367,0.0,4.8095,5.0662,5.1064,4.6735,4.4429,4.1466,3.6623,3.2225,2.6809,2.0056,1.6442,1.3148,0.9452,0.5415,0.1811,-0.1058,-0.6079,-1.0254,-1.3293,0.0,0.0,0.0,0.0,0.0,0.0,0.0,0.0,0.0,0.0,0.0,0.0,0.0,0.0,0.0,0.0,0.0,0.0,0.0,0.0,0.0,0.0,0.0,0.0,0.0,0.0,0.0,6.0608,6.1206,6.0436,5.7152,5.4531,0.0,0.0,0.0,0.0,0.0,0.0,0.0,0.0,0.0,3.718,3.5636,3.6132,3.885,4.132,4.312,4.4341,4.503,4.5309,4.505,4.2757,4.0813,3.926,3.7492,3.6993,3.7471,3.845,3.7194,3.4802,0.0,0.0,0.0,0.0,3.7869,3.7488,4.0664,4.1068,4.0413,4.1427,0.0,0.0,0.0,0.0,0.0,0.0,0.0,4.337,4.303,4.3341,4.3496,4.285,4.2809,4.3118,4.3677,4.2772,4.2424,4.4545,5.0817,5.3702,4.7035,4.8174,0.0,0.0,0.0,5.1353,4.733,4.4425,4.1022,3.656,2.9318,2.2228,1.5449,1.1933,0.7809,0.2404,-0.0604,-0.3885,-0.7967,-0.9911,-1.4331,0.0,0.0,0.0,0.0,0.0,0.0,0.0,0.0,0.0,0.0,0.0,0.0,0.0,0.0,0.0,0.0,0.0,0.0,0.0,0.0,0.0,0.0,0.0,0.0,0.0,0.0,0.0,0.0,0.0,6.3126,6.298,0.0,0.0,0.0,0.0,0.0,0.0,0.0,0.0,0.0,0.0,0.0,0.0,0.0,4.1653,4.1885,4.3939,4.5375,4.6113,4.81,4.8657,4.8021,4.7186,4.5321,4.2912,4.217,0.0,4.4669,4.6072,0.0,0.0,0.0,0.0,0.0,0.0,0.0,0.0,0.0,0.0,0.0,0.0,0.0,0.0,0.0,0.0,0.0,0.0,0.0,0.0,0.0,0.0,4.7026,4.354,4.3607,4.4447,4.4408,4.2962,4.2135,4.397,5.0218,5.3769,0.0,0.0,0.0,0.0,0.0,0.0,4.9866,4.681,4.2825,3.7929,2.7417,1.8457,1.2972,0.9493,0.4542,-0.3029,-0.3304,-0.5517,-1.0487,-1.1111,0.0,0.0,0.0,0.0,0.0,0.0,0.0,0.0,0.0,0.0,0.0,0.0,0.0,0.0,0.0,0.0,0.0,0.0,0.0,0.0,0.0,0.0,0.0,0.0,0.0,0.0,0.0,0.0,0.0,0.0,0.0,0.0,0.0,0.0,0.0,0.0,0.0,0.0,0.0,0.0,0.0,0.0,0.0,0.0,0.0,0.0,0.0,0.0,0.0,0.0,5.0751,4.8981,4.6785,4.3697,4.3582,4.6127,4.9409,5.1312,5.1834,4.7462,0.0,0.0,0.0,0.0,0.0,0.0,0.0,0.0,0.0,0.0,0.0,0.0,0.0,0.0,0.0,0.0,0.0,0.0,0.0,0.0,0.0,0.0,4.0868,3.9767,3.9938,4.1206,4.4264,0.0,0.0,0.0,0.0,0.0,0.0,0.0,0.0,0.0,0.0,0.0,5.2254,5.1748,4.7542,3.7893,2.8102,2.0091,1.4561,1.1211,0.7904,0.4395,0.4828,0.2987,0.0,0.0,0.0,0.0,0.0,0.0,0.0,0.0,0.0,0.0,0.0,0.0,0.0,0.0,0.0,0.0,0.0,0.0,0.0,0.0,0.0,0.0,0.0,0.0,0.0,0.0,0.0,0.0,0.0,0.0,0.0,0.0,0.0,0.0,0.0,0.0,0.0,0.0,0.0,0.0,0.0,0.0,0.0,0.0,0.0,0.0,0.0,0.0,0.0,0.0,0.0,0.0,0.0,0.0,0.0,0.0,0.0,0.0,5.1544,5.0945,0.0,0.0,0.0,0.0,0.0,0.0,0.0,0.0,0.0,0.0,0.0,0.0,0.0,0.0,0.0,0.0,0.0,0.0,0.0,0.0,0.0,0.0,0.0,0.0,0.0,0.0,0.0,0.0,0.0,0.0,0.0,0.0,0.0,0.0,0.0,0.0,0.0,0.0,0.0,0.0,4.949,4.9578,4.5879,3.5711,2.7765,2.0708,1.4561,1.2902,1.1144,0.8473,0.7709,0.0,0.0,0.0,0.0,0.0,0.0,0.0,0.0,0.0,0.0,0.0,0.0,0.0,0.0,0.0,0.0,0.0,0.0,0.0,0.0,0.0,0.0,0.0,0.0,0.0,0.0,0.0,0.0,0.0,0.0,0.0,0.0,0.0,0.0,0.0,0.0,0.0,0.0,0.0,0.0,0.0,0.0,0.0,0.0,0.0,0.0,0.0,0.0,0.0,0.0,0.0,0.0,0.0,0.0,0.0,0.0,0.0,0.0,0.0,5.16,4.8766,0.0,0.0,0.0,0.0,0.0,0.0,0.0,0.0,0.0,0.0,0.0,0.0,0.0,0.0,0.0,0.0,0.0,0.0,0.0,0.0,0.0,0.0,0.0,0.0,0.0,0.0,0.0,0.0,0.0,0.0,0.0,0.0,0.0,0.0,0.0,0.0,0.0,0.0,0.0,0.0,4.6411,4.6143,4.2626,3.3207,2.7017,2.0989,1.45,1.4129,1.2917,0.9929,0.927,0.0,0.0,0.0,0.0,0.0,0.0,0.0,0.0,0.0,0.0,0.0,0.0,0.0,0.0,0.0,0.0,0.0,0.0,0.0,0.0,0.0,0.0,0.0,0.0,0.0,0.0,0.0,0.0,0.0,0.0,0.0,0.0,0.0,0.0,0.0,0.0,0.0,0.0,0.0,0.0,0.0,0.0,0.0,0.0,0.0,0.0,0.0,0.0,0.0,0.0,0.0,0.0,0.0,0.0,0.0,0.0,0.0,0.0,0.0,0.0,0.0,0.0,0.0,0.0,0.0,0.0,0.0,0.0,0.0,0.0,0.0,0.0,0.0,0.0,0.0,0.0,0.0,0.0,0.0,0.0,0.0,0.0,0.0,0.0,0.0,0.0,0.0,0.0,0.0,0.0,0.0,0.0,0.0,0.0,0.0,0.0,0.0,0.0,0.0,0.0,0.0,4.6585,4.509,4.0829,3.1725,2.6462,2.1506,1.6217,1.4008,1.1418,0.7725,0.0,0.0,0.0,0.0,0.0,0.0,0.0,0.0,0.0,0.0,0.0,0.0,0.0,0.0,0.0,0.0,0.0,0.0,0.0,0.0,0.0,0.0,0.0,0.0,0.0,0.0,0.0,0.0,0.0,0.0,0.0,0.0,0.0,0.0,0.0,0.0,0.0,0.0,0.0,0.0,0.0,0.0,0.0,0.0,0.0,0.0,0.0,0.0,0.0,0.0,0.0,0.0,0.0,0.0,0.0,0.0,0.0,0.0,0.0,0.0,0.0,0.0,0.0,0.0,0.0,0.0,0.0,0.0,0.0,0.0,0.0,0.0,0.0,0.0,0.0,0.0,0.0,0.0,0.0,0.0,0.0,0.0,0.0,0.0,0.0,0.0,0.0,0.0,0.0,0.0,0.0,0.0,0.0,0.0,0.0,0.0,0.0,0.0,0.0,0.0,0.0,0.0,4.6938,4.5104,4.0944,3.2821,2.7595,2.3044,1.8947,1.4406,0.8289,0.0434,0.0,0.0,0.0,0.0,0.0,0.0,0.0,0.0,0.0,0.0,0.0,0.0,0.0,0.0,0.0,0.0,0.0,0.0,0.0,0.0,0.0,0.0,0.0,0.0,0.0,0.0,0.0,0.0,0.0,0.0,0.0,0.0,0.0,0.0,0.0,0.0,0.0,0.0,0.0,0.0,0.0,0.0,0.0,0.0,0.0,0.0,0.0,0.0,0.0,0.0,0.0,0.0,0.0,0.0,0.0,0.0,0.0,0.0,0.0,0.0,0.0,0.0,0.0,0.0,0.0,0.0,0.0,0.0,0.0,0.0,0.0,0.0,0.0,0.0,0.0,0.0,0.0,0.0,0.0,0.0,0.0,0.0,0.0,0.0,0.0,0.0,0.0,0.0,0.0,0.0,0.0,0.0,0.0,0.0,0.0,0.0,0.0,0.0,0.0,0.0,0.0,0.0,4.7897,4.5884,4.198,3.4846,2.8754,2.3664,1.993,1.1051,0.4307,0.0983,0.0,0.0,0.0,0.0,0.0,0.0,0.0,0.0,0.0,0.0,0.0,0.0,0.0,0.0,0.0,0.0,0.0,0.0,0.0,0.0,0.0,0.0,0.0,0.0,0.0,0.0,0.0,0.0,0.0,0.0,0.0,0.0,0.0,0.0,0.0,0.0,0.0,0.0,0.0,0.0,0.0,0.0,0.0,0.0,0.0,0.0,0.0,0.0,0.0,0.0,0.0,0.0,0.0,0.0,0.0,0.0,0.0,0.0,0.0,0.0,0.0,0.0,0.0,0.0,0.0,0.0,0.0,0.0,0.0,0.0,0.0,0.0,0.0,0.0,0.0,0.0,0.0,0.0,0.0,0.0,0.0,0.0,0.0,0.0,0.0,0.0,0.0,0.0,0.0,0.0,0.0,0.0,0.0,0.0,0.0,0.0,0.0,0.0,0.0,0.0,0.0,0.0,4.9682,4.7516,4.3726,3.7551,2.996,2.3183,1.7974,0.2836,-0.0587,0.0,0.0,0.0,0.0,0.0,0.0,0.0,0.0,0.0,0.0,0.0,0.0,0.0,0.0,0.0,0.0,0.0,0.0,0.0,0.0,0.0,0.0,0.0,0.0,0.0,0.0,0.0,0.0,0.0,0.0,0.0,0.0,0.0,0.0,0.0,0.0,0.0,0.0,0.0,0.0,0.0,0.0,0.0,0.0,0.0,0.0,0.0,0.0,0.0,0.0,0.0,0.0,0.0,0.0,0.0,0.0,0.0,0.0,0.0,0.0,0.0,0.0,0.0,0.0,0.0,0.0,0.0,0.0,0.0,0.0,0.0,0.0,0.0,0.0,0.0,0.0,0.0,0.0,0.0,0.0,0.0,0.0,0.0,0.0,0.0,0.0,0.0,0.0,0.0,0.0,0.0,0.0,0.0,0.0,0.0,0.0,0.0,0.0,0.0,0.0,0.0,0.0,0.0,5.0992,4.7835,4.311,3.6783,3.5,3.1032,2.2939,1.7559,0.6503,-1.2599,0.0,0.0,0.0,0.0,0.0,0.0,0.0,0.0,0.0,0.0,0.0,0.0,0.0,0.0,0.0,0.0,0.0,0.0,0.0,0.0,0.0,0.0,0.0,0.0,0.0,0.0,0.0,0.0,0.0,0.0,0.0,0.0,0.0,0.0,0.0,0.0,0.0,0.0,0.0,0.0,0.0,0.0,0.0,0.0,0.0,0.0,0.0,0.0,0.0,0.0,0.0,0.0,0.0,0.0,0.0,0.0,0.0,0.0,0.0,0.0,0.0,0.0,0.0,0.0,0.0,0.0,0.0,0.0,0.0,0.0,0.0,0.0,0.0,0.0,0.0,0.0,0.0,0.0,0.0,0.0,0.0,0.0,0.0,0.0,0.0,0.0,0.0,0.0,0.0,0.0,0.0,0.0,0.0,0.0,0.0,0.0,0.0,0.0,0.0,0.0,0.0,0.0,0.0,5.0425,4.7362,4.252,4.2243,3.9279,3.1349,2.1229,0.7685,-1.0132,0.0,0.0,0.0,0.0,0.0,0.0,0.0,0.0,0.0,0.0,0.0,0.0,0.0,0.0,0.0,0.0,0.0,0.0,0.0,0.0,0.0,0.0,0.0,0.0,0.0,0.0,0.0,0.0,0.0,0.0,0.0,0.0,0.0,0.0,0.0,0.0,0.0,0.0,0.0,0.0,0.0,0.0,0.0,0.0,0.0,0.0,0.0,0.0,0.0,0.0,0.0,0.0,0.0,0.0,0.0,0.0,0.0,0.0,0.0,0.0,0.0,0.0,0.0,0.0,0.0,0.0,0.0,0.0,0.0,0.0,0.0,0.0,0.0,0.0,0.0,0.0,0.0,0.0,0.0,0.0,0.0,0.0,0.0,0.0,0.0,0.0,0.0,0.0,0.0,0.0,0.0,0.0,0.0,0.0,0.0,0.0,0.0,0.0,0.0,0.0,0.0,0.0,0.0,5.4409,5.4719,5.2711,5.0526,4.7023,4.1609,1.751,0.6177,1.4492,1.1276,0.0,0.0,0.0,0.0,0.0,0.0,0.0,0.0,0.0,0.0,0.0,0.0,0.0,0.0,0.0,0.0,0.0,0.0,0.0,0.0,0.0,0.0,0.0,0.0,0.0,0.0,0.0,0.0,0.0,0.0,0.0,0.0,0.0,0.0,0.0,0.0,0.0,0.0,0.0,0.0,0.0,0.0,0.0,0.0,0.0,0.0,0.0,0.0,0.0,0.0,0.0,0.0,0.0,0.0,0.0,0.0,0.0,0.0,0.0,0.0,0.0,0.0,0.0,0.0,0.0,0.0,0.0,0.0,0.0,0.0,0.0,0.0,0.0,0.0,0.0,0.0,0.0,0.0,0.0,0.0,0.0,0.0,0.0,0.0,0.0,0.0,0.0,0.0,0.0,0.0,0.0,0.0,0.0,0.0,0.0,0.0,0.0,0.0,0.0,0.0,0.0,0.0,5.2649,5.3066,5.4099,5.2654,4.9159,4.2879,3.4113,2.6155,1.9608,2.1893,0.0,0.0,0.0,0.0,0.0,0.0,0.0,0.0,0.0,0.0,0.0,0.0,0.0,0.0,0.0,0.0,0.0,0.0,0.0,0.0,0.0,0.0,0.0,0.0,0.0,0.0,0.0,0.0,0.0,0.0,0.0,0.0,0.0,0.0,0.0,0.0,0.0,0.0,0.0,0.0,0.0,0.0,0.0,0.0,0.0,0.0,0.0,0.0,0.0,0.0,0.0,0.0,0.0,0.0,0.0,0.0,0.0,0.0,0.0,0.0,0.0,0.0,0.0,0.0,0.0,0.0,0.0,0.0,0.0,0.0,0.0,0.0,0.0,0.0,0.0,0.0,0.0,0.0,0.0,0.0,0.0,0.0,0.0,0.0,0.0,0.0,0.0,0.0,0.0,0.0,0.0,0.0,0.0,0.0,0.0,0.0,0.0,0.0,0.0,0.0,0.0,0.0,5.1905,5.2198,5.4392,5.221,4.8594,4.3563,4.118,3.5747,2.5842,3.0011,0.0,0.0,0.0,0.0,0.0,0.0,0.0,0.0,0.0,0.0,0.0,0.0,0.0,0.0,0.0,0.0,0.0,0.0,0.0,0.0,0.0,0.0,0.0,0.0,0.0,0.0,0.0,0.0,0.0,0.0,0.0,0.0,0.0,0.0,0.0,0.0,0.0,0.0,0.0,0.0,0.0,0.0,0.0,0.0,0.0,0.0,0.0,0.0,0.0,0.0,0.0,0.0,0.0,0.0,0.0,0.0,0.0,0.0,0.0,0.0,0.0,0.0,0.0,0.0,0.0,0.0,0.0,0.0,0.0,0.0,0.0,0.0,0.0,0.0,0.0,0.0,0.0,0.0,0.0,0.0,0.0,0.0,0.0,0.0,0.0,0.0,0.0,0.0,0.0,0.0,0.0,0.0,0.0,0.0,0.0,0.0,0.0,0.0,0.0,0.0,0.0,0.0,0.0,5.2133,5.391,5.1115,4.7904,4.4847,4.3564,3.9678,3.212,0.0,0.0,0.0,0.0,0.0,0.0,0.0,0.0,0.0,0.0,0.0,0.0,0.0,0.0,0.0,0.0,0.0,0.0,0.0,0.0,0.0,0.0,0.0,0.0,0.0,0.0,0.0,0.0,0.0,0.0,0.0,0.0,0.0,0.0,0.0,0.0,0.0,0.0,0.0,0.0,0.0,0.0,0.0,0.0,0.0,0.0,0.0,0.0,0.0,0.0,0.0,0.0,0.0,0.0,0.0,0.0,0.0,0.0,0.0,0.0,0.0,0.0,0.0,0.0,0.0,0.0,0.0,0.0,0.0,0.0,0.0,0.0,0.0,0.0,0.0,0.0,0.0,0.0,0.0,0.0,0.0,0.0,0.0,0.0,0.0,0.0,0.0,0.0,0.0,0.0,0.0,0.0,0.0,0.0,0.0,0.0,0.0,0.0,0.0,0.0,0.0,0.0,0.0,0.0,5.3465,5.2841,5.2504,5.1539,4.962,4.6911,4.2646,3.637,0.0,0.0,0.0,0.0,0.0,0.0,0.0,0.0,0.0,0.0,0.0,0.0,0.0,0.0]}]]]